     2.10           OBSERVATION DATA    G (GPS)             RINEX VERSION / TYPE
teqc 2000Feb29 simon 20020107 22:29:03UTC                   PGM / RUN BY / DATE
Linux 2.0.36|Pentium II|gcc|Linux|486/DX+                   COMMENT
BIT 2 OF LLI FLAGS DATA COLLECTED UNDER A/S CONDITION       COMMENT
BM25                                                        MARKER NAME
bm25                                                        MARKER NUMBER
___ -Unknown-                                               OBSERVER / AGENCY
481 ASHTECH Z-XII3 4J30                                     REC # / TYPE / VERS
015 ASH701933_M                                             ANT # / TYPE
 -2419847.0000 -4561817.0000  3732779.0000                  APPROX POSITION XYZ
        0.7394        0.0000        0.0000                  ANTENNA: DELTA H/E/N
     1     1                                                WAVELENGTH FACT L1/2
     7    L1    L2    C1    P1    P2    S1    S2            # / TYPES OF OBSERV
    30.0000                                                 INTERVAL
SNR is mapped to RINEX snr flag value [1-9]                 COMMENT
L1: 1 -> 1; 90 -> 5; 210 -> 9                               COMMENT
L2: 1 -> 1; 150 -> 5; 250 -> 9                              COMMENT
Original height was 0.8220                                  COMMENT
New height found assuming measured height 0.8220            COMMENT
and assuming radial 0.1737 vertical -0.0640                 COMMENT
  2001    12     3    15    54   30.0000000     GPS         TIME OF FIRST OBS
                                                            END OF HEADER
 01 12  3 15 54 30.0000000  0  8G20G13G29G 4G 1G25G11G22
    -84694.39049    -59160.77347  20482120.015    20482119.036    20482125.694
       235.000         207.000
   -347025.12549   -254099.17446  23377195.918    23377195.795    23377203.158
       225.000         174.000
     38522.31555                  24020358.683                    24020371.110
       215.000         156.000
   -192557.02449   -137759.07945  24667641.847    24667642.005    24667651.370
       219.000         154.000
   -248018.26049   -177789.74747  21273342.335    21273341.675    21273349.108
       243.000         210.000
     99240.27949     70760.53346  23542075.848    23542075.590    23542084.957
       230.000         182.000
     82177.92053                  25009573.084
       213.000          90.000
   -302238.37059   -136857.89757  20930196.879    20930195.797    20930203.981
       243.000         210.000
 01 12  3 15 55  0.0000000  0  8G20G13G29G 4G 1G25G11G22
   -114295.05349    -82226.30147  20476487.292    20476486.317    20476492.965
       235.000         207.000
   -469168.52349   -349275.93946  23353952.782    23353952.662    23353960.180
       227.000         174.000
     79161.15249     54525.83945  24024267.178    24024268.383    24024279.205
       215.000         156.000
   -263242.29449   -192838.70045  24654191.092    24654191.352    24654199.935
       222.000         151.000
   -333171.10649   -244142.67347  21257138.362    21257137.696    21257145.012
       243.000         208.000
    133699.75949     97611.83346  23548633.408    23548633.168    23548642.508
       229.000         180.000
     22860.76944                  25016597.888
       214.000         121.000
   -362066.77249   -183477.49747  20918812.028    20918810.960    20918819.004
       243.000         209.000
 01 12  3 15 55 30.0000000  0  8G20G13G29G 4G 1G25G11G22
   -143144.90349   -104706.77347  20470997.453    20470996.471    20471003.090
       235.000         207.000
   -591087.94749   -444278.15646  23330752.301    23330752.141    23330759.731
       229.000         174.000
    100003.65559     70766.44255  24028233.592    24028233.722    24028245.858
       213.000         156.000
   -333240.22349   -247382.70245  24640871.103    24640871.307    24640879.657
       222.000         150.000
   -417988.30449   -310234.05647  21240998.247    21240997.556    21241004.834
       242.000         208.000
    168391.47249    124644.10746  23555235.215    23555234.928    23555244.216
       229.000         180.000
     51678.77155                  25023635.911
       215.000         140.000
   -421065.13249   -229450.30147  20907585.168    20907584.073    20907591.974
       243.000         209.000
 01 12  3 15 56  0.0000000  0  9G20G13G27G29G 4G 1G25G11G22
   -171335.56449   -126673.59447  20465633.059    20465632.038    20465638.622
       236.000         209.000
   -712874.46749   -539176.79246  23307577.161    23307576.975    23307584.524
       228.000         174.000
   -388991.73059   -269557.31355  24873737.534    24873736.409    24873748.156
       207.000         145.000
    121059.12249     87172.97345  24032240.422    24032240.862    24032252.742
       214.000         157.000
   -402641.74049   -301461.93945  24627664.546    24627664.767    24627672.972
       220.000         150.000
   -502560.43849   -376134.47147  21224904.744    21224904.019    21224911.296
       242.000         209.000
    203222.92749    151785.24646  23561863.541    23561863.243    23561872.563
       230.000         180.000
    307378.48749     80477.74445  25030669.702    25030671.287    25030681.964
       217.000         146.000
   -479324.29649   -274847.10947  20896498.970    20896497.821    20896505.639
       244.000         211.000
 01 12  3 15 56 30.0000000  0  9G20G13G27G29G 4G 1G25G11G22
   -198904.80849   -148156.18547  20460386.934    20460385.863    20460392.426
       236.000         209.000
   -834565.01349   -634000.67446  23284420.317    23284420.086    23284427.617
       229.000         175.000
   -518603.18549   -370553.33745  24849073.143    24849072.202    24849083.714
       206.000         140.000
    142289.74249    103715.98345  24036280.687    24036280.918    24036293.117
       213.000         157.000
   -471484.66049   -355105.95945  24614564.347    24614564.479    24614572.741
       221.000         150.000
   -586924.64449   -441872.87547  21208850.811    21208850.073    21208857.373
       243.000         210.000
    238154.96149    179004.77546  23568511.160    23568510.738    23568520.018
       230.000         180.000
    344274.14059    109227.16855  25037691.370    25037693.026    25037705.983
       218.000         147.000
   -536881.44549   -319696.90347  20885546.374    20885545.174    20885552.901
       243.000         210.000
 01 12  3 15 57  0.0000000  0  9G20G13G27G29G 4G 1G25G11G22
   -225910.18549   -169199.40747  20455248.051    20455246.962    20455253.525
       237.000         209.000
   -956216.45749   -728794.06046  23261271.010    23261270.708    23261278.191
       229.000         177.000
   -648083.82559   -471447.40355  24824433.855    24824433.497    24824444.379
       216.000         155.000
    163638.45049    120351.02945  24040343.406    24040343.501    24040355.795
       214.000         157.000
   -539825.92049   -408359.02345  24601559.591    24601559.670    24601567.827
       218.000         148.000
   -671137.58249   -507493.40547  21192825.701    21192824.921    21192832.243
       243.000         210.000
    273128.79049    206256.85846  23575166.764    23575166.195    23575175.444
       230.000         179.000
    381045.39549    137879.61145  25044689.256    25044690.199    25044702.874
       215.000         143.000
   -593793.39149   -364043.93147  20874716.448    20874715.234    20874722.990
       244.000         210.000
 01 12  3 15 57 30.0000000  0  9G20G13G27G29G 4G 1G25G11G22
   -252305.46449   -189767.22947  20450225.279    20450224.161    20450230.727
       237.000         209.000
  -1077782.07649   -823520.56546  23238137.980    23238137.605    23238145.086
       228.000         176.000
   -777386.45149   -572202.86945  24799828.570    24799828.173    24799838.919
       220.000         157.000
    185151.62449    137114.22045  24044437.531    24044437.441    24044449.826
       214.000         157.000
   -607619.06349   -461184.99645  24588659.212    24588659.163    24588667.313
       219.000         148.000
   -755152.18749   -572959.38947  21176838.334    21176837.508    21176844.859
       243.000         209.000
    308189.45949    233576.61746  23581838.881    23581838.174    23581847.432
       229.000         179.000
    417736.35349    166469.51945  25051671.690    25051672.289    25051685.021
       213.000         139.000
   -650013.11549   -407851.56747  20864018.255    20864017.030    20864024.801
       243.000         210.000
 01 12  3 15 58  0.0000000  0  9G20G13G27G29G 4G 1G25G11G22
   -278071.06849   -209844.40047  20445322.305    20445321.190    20445327.749
       238.000         209.000
  -1199241.46049   -918164.27446  23215025.068    23215024.709    23215032.192
       229.000         175.000
   -906490.90949   -672803.88745  24775261.019    24775260.631    24775270.874
       219.000         159.000
    206849.39049    154021.25445  24048566.739    24048566.574    24048578.981
       216.000         159.000
   -674844.08449   -513568.28645  24575866.825    24575866.653    24575874.839
       220.000         145.000
   -838947.92749   -638254.82547  21160892.591    21160891.751    21160899.117
       243.000         209.000
    343355.39449    260978.38846  23588531.041    23588530.216    23588539.474
       229.000         178.000
    454364.30449    195010.31245  25058642.034    25058642.295    25058655.376
       211.000         139.000
   -705520.40049   -451104.05547  20853455.673    20853454.408    20853462.172
       243.000         210.000
 01 12  3 15 58 30.0000000  0  9G20G13G27G29G 4G 1G25G11G22
   -303195.79849   -229422.18147  20440541.282    20440540.161    20440546.718
       237.000         209.000
  -1320583.03749  -1012716.19146  23191934.708    23191934.271    23191941.717
       228.000         176.000
  -1035385.60649   -773241.43545  24750733.230    24750732.701    24750743.005
       219.000         162.000
    228742.82349    171080.76545  24052733.133    24052732.847    24052745.249
       213.000         158.000
   -741489.59749   -565500.01845  24563184.819    24563184.571    24563192.588
       219.000         146.000
   -922512.88349   -703370.42147  21144990.749    21144989.892    21144997.273
       242.000         209.000
    378636.31049    288469.76446  23595244.994    23595244.107    23595253.394
       228.000         178.000
    490937.86349    223508.70145  25065602.071    25065602.079    25065615.096
       209.000         140.000
   -760303.53949   -493792.26847  20843030.879    20843029.578    20843037.357
       243.000         210.000
 01 12  3 15 59  0.0000000  0  9G20G13G27G29G 4G 1G25G11G22
   -327673.63449   -248495.90047  20435883.381    20435882.245    20435888.808
       237.000         209.000
  -1441799.88049  -1107170.91346  23168868.015    23168867.568    23168875.009
       227.000         175.000
  -1164063.43649   -873510.03046  24726246.601    24726246.075    24726256.677
       220.000         163.000
    250838.58849    188297.93545  24056937.945    24056937.646    24056950.100
       214.000         158.000
   -807549.20449   -616975.20545  24550614.146    24550613.898    24550622.000
       219.000         146.000
  -1005839.86549   -768300.58847  21129134.214    21129133.345    21129140.720
       243.000         209.000
    414037.55049    316054.88546  23601981.798    23601980.906    23601990.227
       229.000         177.000
    527461.38149    251968.09445  25072552.582    25072552.354    25072565.677
       211.000         142.000
   -814355.73549   -535910.91947  20832745.174    20832743.862    20832751.636
       244.000         210.000
 01 12  3 15 59 30.0000000  0  9G20G13G27G29G 4G 1G25G11G22
   -351513.80849   -267072.72947  20431346.832    20431345.682    20431352.241
       237.000         209.000
  -1562900.30949  -1201534.92246  23145823.468    23145822.978    23145830.426
       229.000         175.000
  -1292532.75849   -973616.18145  24701799.710    24701799.146    24701810.108
       219.000         160.000
    273127.74749    205665.81245  24061179.644    24061179.189    24061191.805
       213.000         159.000
   -873031.65849   -668000.67345  24538153.419    24538153.117    24538161.227
       220.000         148.000
  -1088936.96449   -833051.62147  21113321.429    21113320.546    21113327.912
       243.000         209.000
    449548.93149    343725.82346  23608739.673    23608738.666    23608748.047
       228.000         179.000
    563923.51649    280379.66745  25079491.540    25079491.057    25079504.455
       212.000         142.000
   -867685.43549   -577466.58047  20822596.951    20822595.609    20822603.388
       243.000         210.000
 01 12  3 16  0  0.0000000  0  9G20G13G27G29G 4G 1G25G11G22
   -374714.24849   -285151.07247  20426932.024    20426930.844    20426937.412
       238.000         209.000
  -1683881.79249  -1295806.24646  23122801.526    23122801.042    23122808.426
       229.000         175.000
  -1420791.11049  -1073557.98545  24677393.125    24677392.450    24677403.668
       218.000         156.000
    295612.43449    223186.05045  24065458.685    24065458.022    24065470.781
       214.000         160.000
   -937934.73049   -718574.65145  24525802.924    24525802.554    24525810.684
       218.000         148.000
  -1171801.58249   -897621.51247  21097552.910    21097551.995    21097559.340
       244.000         209.000
    485171.18249    371483.14046  23615518.555    23615517.547    23615526.983
       229.000         179.000
    600323.76949    308743.00745  25086418.766    25086418.054    25086431.570
       210.000         139.000
   -920290.30949   -618457.43947  20812586.621    20812585.285    20812593.067
       243.000         210.000
 01 12  3 16  0 30.0000000  0  9G20G13G27G29G 4G 1G25G11G22
   -397261.54949   -302720.47547  20422641.504    20422640.300    20422646.854
       237.000         209.000
  -1804729.96249  -1389973.70146  23099804.873    23099804.438    23099811.852
       228.000         175.000
  -1548823.88149  -1173323.95945  24653029.700    24653028.828    24653040.134
       216.000         157.000
    318306.92549    240869.76145  24069777.582    24069776.815    24069789.637
       215.000         159.000
  -1002244.50649   -768686.33845  24513565.291    24513564.875    24513573.205
       219.000         148.000
  -1254418.84849   -961998.65147  21081831.418    21081830.509    21081837.849
       243.000         209.000
    520917.19549    399336.89946  23622321.084    23622319.988    23622329.470
       227.000         178.000
    636673.80649    337067.19545  25093336.422    25093335.508    25093349.084
       212.000         140.000
   -972155.86049   -658872.19447  20802716.956    20802715.652    20802723.466
       243.000         210.000
 01 12  3 16  1  0.0000000  0  9G20G13G27G29G 4G 1G25G11G22
   -419164.44849   -319787.74647  20418473.628    20418472.397    20418478.949
       238.000         209.000
  -1925452.34249  -1484043.12646  23076832.208    23076831.789    23076839.255
       229.000         175.000
  -1676638.90949  -1272920.23045  24628707.695    24628706.622    24628717.891
       217.000         157.000
    341202.87549    258710.45345  24074134.751    24074133.928    24074146.774
       214.000         159.000
  -1065969.19049   -818342.09845  24501439.105    24501438.518    24501446.980
       220.000         147.000
  -1336796.33849  -1026188.95347  21066155.564    21066154.640    21066161.987
       243.000         209.000
    556777.22249    427279.48846  23629145.175    23629144.092    23629153.634
       227.000         177.000
    672962.88449    365343.91945  25100242.457    25100241.343    25100254.981
       209.000         133.000
  -1023290.24749   -698717.21147  20792986.480    20792985.164    20792993.012
       243.000         211.000
 01 12  3 16  1 30.0000000  0  9G20G13G27G29G 4G 1G25G11G22
   -440426.60649   -336355.73647  20414427.634    20414426.406    20414432.977
       237.000         208.000
  -2046051.93649  -1578016.90346  23053882.961    23053882.550    23053889.936
       229.000         174.000
  -1804239.28049  -1372349.19945  24604426.412    24604425.224    24604436.450
       217.000         158.000
    364296.89449    276705.49845  24078529.662    24078528.743    24078541.581
       214.000         159.000
  -1129112.20649   -867544.62845  24489423.450    24489422.865    24489431.240
       219.000         147.000
  -1418936.93649  -1090194.66147  21050524.786    21050523.857    21050531.215
       243.000         209.000
    592746.34949    455307.11546  23635990.067    23635988.973    23635998.560
       227.000         177.000
    709184.90849    393568.43645  25107135.529    25107134.388    25107148.288
       210.000         137.000
  -1073696.68149   -737994.99047  20783394.518    20783393.191    20783401.069
       243.000         211.000
 01 12  3 16  2  0.0000000  0  9G20G13G27G29G 4G 1G25G11G22
   -461040.48749   -352418.57947  20410504.968    20410503.776    20410510.360
       237.000         208.000
  -2166520.17849  -1671888.31946  23030958.628    23030958.222    23030965.597
       229.000         174.000
  -1931616.52249  -1471604.32145  24580187.271    24580186.181    24580197.243
       214.000         151.000
    387596.86149    294861.01845  24082963.805    24082962.803    24082975.584
       214.000         160.000
  -1191665.78949   -916287.85745  24477520.132    24477519.456    24477527.859
       221.000         150.000
  -1500831.70949  -1154008.81947  21034940.779    21034939.838    21034947.204
       243.000         209.000
    628831.38449    483425.02746  23642857.003    23642855.946    23642865.552
       228.000         177.000
    745345.67849    421745.20644  25114016.975    25114015.878    25114029.848
       200.000         124.000
  -1123366.97649   -776699.15347  20773942.597    20773941.286    20773949.178
       243.000         210.000
 01 12  3 16  2 30.0000000  0  9G20G13G27G29G 4G 1G25G11G22
   -481014.26749   -367982.64647  20406704.134    20406702.940    20406709.543
       237.000         208.000
  -2286864.26649  -1765662.99446  23008057.930    23008057.528    23008064.965
       231.000         175.000
  -2058777.78549  -1570691.13945  24555989.077    24555988.148    24555999.076
       210.000         152.000
    411095.30549    313171.20045  24087435.788    24087434.643    24087447.509
       215.000         161.000
  -1253637.72749   -964577.84945  24465727.348    24465726.732    24465735.140
       220.000         147.000
  -1582487.63049  -1217636.85947  21019402.202    21019401.271    21019408.657
       242.000         209.000
    665023.48549    511626.39146  23649744.409    23649743.283    23649752.930
       227.000         177.000
                    449866.39944  25120884.810
       185.000         101.000
  -1172308.61549   -814835.52647  20764629.326    20764628.048    20764635.937
       243.000         210.000
 01 12  3 16  3  0.0000000  0  9G20G13G27G29G 4G 1G25G11G22
   -500351.33449   -383050.57047  20403024.508    20403023.299    20403029.903
       238.000         208.000
  -2407086.70449  -1859342.87846  22985180.455    22985180.036    22985187.458
       232.000         174.000
  -2185725.69249  -1669611.63345  24531831.549    24531830.718    24531841.571
       213.000         160.000
    434789.28849    331633.76645  24091944.831    24091943.692    24091956.638
       214.000         161.000
  -1315030.77449  -1012416.71445  24454044.846    24454044.177    24454052.545
       220.000         148.000
  -1663907.21249  -1281080.74447  21003908.574    21003907.685    21003915.091
       243.000         209.000
    701318.01549    539907.56146  23656651.334    23656650.137    23656659.810
       228.000         177.000
                    477928.01053  25127738.186
       177.000          92.000
  -1220524.52849   -852406.39847  20755454.244    20755452.930    20755460.802
       244.000         211.000
 01 12  3 16  3 30.0000000  0  8G20G13G27G29G 4G 1G25G22
   -519048.37249   -397619.77647  20399466.638    20399465.447    20399472.058
       237.000         209.000
  -2527183.44249  -1952924.82646  22962326.910    22962326.442    22962333.829
       231.000         175.000
  -2312456.13449  -1768362.67746  24507715.638    24507714.787    24507725.603
       215.000         164.000
    458682.31449    350251.41145  24096491.689    24096490.582    24096503.629
       214.000         160.000
  -1375841.68649  -1059801.99745  24442472.849    24442472.338    24442480.889
       218.000         150.000
  -1745086.12449  -1344337.09647  20988460.790    20988459.888    20988467.316
       243.000         209.000
    737717.56249    568270.56946  23663578.253    23663576.971    23663586.678
       228.000         176.000
  -1268010.78749   -889408.70647  20746417.965    20746416.650    20746424.545
       243.000         211.000
 01 12  3 16  4  0.0000000  0  8G20G13G27G29G 4G 1G25G22
   -537109.64249   -411693.57347  20396029.717    20396028.544    20396035.216
       237.000         208.000
  -2647157.23649  -2046410.96346  22939496.745    22939496.254    22939503.687
       231.000         176.000
  -2438972.31949  -1866946.72746  24483640.708    24483639.735    24483650.538
       217.000         165.000
    482770.96749    369021.50645  24101075.792    24101074.690    24101087.832
       216.000         162.000
  -1436073.94949  -1106736.39745  24431011.267    24431010.670    24431019.230
       220.000         149.000
  -1826027.23349  -1407408.14747  20973058.264    20973057.356    20973064.792
       243.000         209.000
    774217.28649    596711.63446  23670524.127    23670522.878    23670532.593
       227.000         177.000
  -1314770.91349   -925845.19947  20737519.847    20737518.540    20737526.449
       243.000         210.000
 01 12  3 16  4 30.0000000  0  8G20G13G27G29G 4G 1G25G22
   -554540.12649   -425275.85747  20392712.852    20392711.692    20392718.417
       237.000         208.000
  -2767012.20149  -2139804.50846  22916689.159    22916688.685    22916696.125
       230.000         175.000
  -2565278.38749  -1965367.02046  24459605.924    24459604.745    24459615.565
       218.000         166.000
    507050.88949    387940.62545  24105696.332    24105695.233    24105708.374
       214.000         161.000
  -1495732.56349  -1153223.79045  24419658.777    24419658.145    24419666.668
       222.000         150.000
  -1906734.24249  -1470296.78347  20957700.295    20957699.375    20957706.813
       242.000         209.000
    810811.35249    625226.21846  23677487.983    23677486.718    23677496.500
       228.000         175.000
  -1360809.44749   -961719.41547  20728759.066    20728757.739    20728765.650
       243.000         210.000
 01 12  3 16  5  0.0000000  0  8G20G13G27G29G 4G 1G25G22
   -571341.98749   -438368.30647  20389515.644    20389514.470    20389521.221
       238.000         209.000
  -2886749.38549  -2233106.28046  22893903.951    22893903.476    22893910.980
       230.000         175.000
  -2691375.39749  -2063624.46746  24435610.686    24435609.428    24435620.415
       219.000         169.000
    531520.23249    407007.36845  24110352.995    24110351.810    24110364.988
       213.000         161.000
  -1554819.08149  -1199265.39145  24408415.270    24408414.501    24408423.137
       222.000         151.000
  -1987207.85649  -1533003.55347  20942386.718    20942385.800    20942393.274
       242.000         209.000
    847497.08749    653812.22746  23684469.297    23684468.003    23684477.804
       228.000         174.000
  -1406127.91049   -997032.53847  20720135.231    20720133.967    20720141.866
       243.000         210.000
 01 12  3 16  5 29.9990000  0  8G20G13G27G29G 4G 1G25G22
   -587510.27149   -450967.05947  20386439.027    20386437.818    20386444.592
       236.000         208.000
  -3006358.99049  -2326308.63646  22871143.041    22871142.578    22871150.087
       230.000         176.000
  -2817253.77549  -2161711.51546  24411656.839    24411655.640    24411666.845
       218.000         171.000
    556183.48249    426225.18945  24115046.457    24115045.289    24115058.491
       213.000         160.000
  -1613326.79249  -1244855.99845  24397281.664    24397280.983    24397289.656
       220.000         149.000
  -2067439.50849  -1595521.78247  20927119.206    20927118.272    20927125.762
       243.000         210.000
    884277.10649    682471.71046  23691468.533    23691467.220    23691477.039
       226.000         174.000
  -1450719.82449  -1031779.52347  20711649.730    20711648.452    20711656.365
       243.000         210.000
 01 12  3 16  5 59.9990000  0  8G20G13G27G29G 4G 1G25G22
   -603054.70449   -463079.69047  20383481.086    20383479.874    20383486.670
       236.000         208.000
  -3125856.56049  -2419423.67846  22848403.475    22848403.024    22848410.549
       230.000         177.000
  -2942929.54049  -2259640.63046  24387741.310    24387740.289    24387751.749
       215.000         170.000
    581034.21449    445589.13045  24119775.685    24119774.481    24119787.752
       215.000         159.000
  -1671267.80049  -1290004.99145  24386255.983    24386255.324    24386264.113
       221.000         150.000
  -2147441.74949  -1657861.24547  20911895.343    20911894.410    20911901.922
       243.000         210.000
    921144.56649    711199.30946  23698484.341    23698483.086    23698492.950
       225.000         173.000
  -1494596.06149  -1065968.83947  20703300.419    20703299.116    20703307.057
       243.000         210.000
 01 12  3 16  6 29.9990000  0  8G20G13G27G29G 4G 1G25G22
   -617978.04949   -474708.35247  20380641.315    20380640.123    20380646.951
       236.000         208.000
  -3245240.56949  -2512450.22946  22825685.521    22825685.058    22825692.613
       231.000         177.000
  -3068401.07649  -2357410.60246  24363864.541    24363863.761    24363875.283
       218.000         169.000
    606068.55049    465096.12445  24124539.814    24124538.609    24124551.942
       212.000         158.000
  -1728643.50449  -1334713.49645  24375337.865    24375337.212    24375346.072
       220.000         151.000
  -2227214.16849  -1720021.62347  20896715.232    20896714.288    20896721.803
       242.000         210.000
    958094.10549    739990.88346  23705515.721    23705514.546    23705524.478
       225.000         172.000
  -1537758.31849  -1099601.81447  20695086.943    20695085.652    20695093.603
       243.000         210.000
 01 12  3 16  6 59.9990000  0  8G20G13G27G29G 4G 1G25G22
   -632278.63349   -485851.75447  20377920.098    20377918.886    20377925.720
       236.000         208.000
  -3364508.03649  -2605385.97746  22802989.762    22802989.315    22802996.825
       231.000         178.000
  -3193665.60049  -2455019.29046  24340027.485    24340026.728    24340038.124
       218.000         167.000
    631288.95349    484748.12045  24129339.255    24129338.072    24129351.513
       211.000         158.000
  -1785451.62649  -1378979.74045  24364527.701    24364527.076    24364536.080
       221.000         152.000
  -2306753.48949  -1782000.36647  20881579.489    20881578.518    20881586.038
       243.000         210.000
    995126.58149    768847.07046  23712562.894    23712561.791    23712571.792
       223.000         171.000
  -1580204.23849  -1132676.60747  20687009.810    20687008.513    20687016.456
       245.000         210.000
 01 12  3 16  7 29.9990000  0  8G20G13G27G29G 4G 1G25G22
   -645960.38249   -496512.94447  20375316.637    20375315.423    20375322.252
       236.000         208.000
  -3483661.09649  -2698232.55446  22780315.725    22780315.286    22780322.858
       230.000         179.000
  -3318725.60749  -2552468.57246  24316229.498    24316228.677    24316239.915
       217.000         167.000
    656692.56449    504542.86545  24134173.464    24134172.408    24134185.971
       212.000         156.000
  -1841695.27549  -1422806.14045  24353825.132    24353824.388    24353833.400
       219.000         151.000
  -2386061.89549  -1843799.17247  20866487.651    20866486.682    20866494.215
       242.000         209.000
   1032238.06449    797764.83046  23719625.161    23719624.056    23719634.149
       224.000         170.000
  -1621936.83849  -1165195.56247  20679068.409    20679067.110    20679075.040
       245.000         210.000
 01 12  3 16  7 59.9990000  0  8G20G13G27G29G 4G 1G25G22
   -659023.49249   -506692.07947  20372830.858    20372829.658    20372836.507
       236.000         207.000
  -3602698.76249  -2790989.22546  22757663.650    22757663.213    22757670.831
       232.000         179.000
  -3443580.41649  -2649757.91746  24292470.644    24292469.711    24292480.900
       220.000         172.000
    682279.68649    524480.60245  24139042.863    24139041.681    24139055.289
       210.000         156.000
  -1897374.81849  -1466192.96445  24343229.806    24343229.071    24343238.053
       222.000         150.000
  -2465138.23349  -1905417.14947  20851439.948    20851439.004    20851446.544
       242.000         209.000
   1069427.48249    826743.31546  23726702.244    23726701.168    23726711.321
       224.000         170.000
  -1662956.07949  -1197158.66547  20671262.742    20671261.445    20671269.386
       244.000         210.000
 01 12  3 16  8 29.9990000  0  8G20G13G27G29G 4G 1G25G22
   -671467.15449   -516388.52947  20370462.971    20370461.768    20370468.641
       236.000         208.000
  -3721619.17649  -2883654.53446  22735034.039    22735033.510    22735041.069
       231.000         179.000
  -3568228.14449  -2746885.93746  24268751.166    24268750.146    24268761.361
       220.000         171.000
    708051.82149    544562.50245  24143947.389    24143946.192    24143959.850
       209.000         154.000
  -1952488.78849  -1509139.09245  24332742.187    24332741.353    24332750.242
       221.000         151.000
  -2543980.38249  -1966852.64447  20836436.839    20836435.904    20836443.428
       243.000         209.000
   1106695.17149    855782.79146  23733794.221    23733793.153    23733803.385
       223.000         169.000
  -1703260.55049  -1228564.80947  20663593.077    20663591.797    20663599.734
       244.000         211.000
 01 12  3 16  8 59.9990000  0  8G20G13G27G29G 4G 1G25G22
   -683291.56249   -525602.44147  20368212.971    20368211.745    20368218.625
       237.000         208.000
  -3840421.17849  -2976227.55246  22712426.798    22712426.317    22712433.843
       231.000         179.000
  -3692667.94649  -2843851.93946  24245071.084    24245070.055    24245081.392
       219.000         166.000
    734009.46449    564788.94745  24148887.032    24148885.950    24148899.709
       208.000         154.000
  -2007037.04249  -1551644.37845  24322362.025    24322361.312    24322370.257
       221.000         151.000
  -2622586.98049  -2028104.58447  20821478.578    20821477.623    20821485.145
       242.000         209.000
   1144040.79349    884882.98846  23740901.068    23740899.989    23740910.252
       222.000         170.000
  -1742850.02149  -1259413.81647  20656059.507    20656058.235    20656066.174
       245.000         211.000
 01 12  3 16  9 29.9990000  0  8G20G13G27G29G 4G 1G25G22
   -694506.07549   -534341.10847  20366078.967    20366077.762    20366084.671
       236.000         208.000
  -3959112.53649  -3068714.36346  22689840.636    22689840.142    22689847.735
       230.000         179.000
  -3816908.16549  -2940662.43646  24221428.732    24221427.872    24221439.385
       218.000         168.000
    760144.02549    585153.26945  24153860.508    24153859.406    24153873.272
       210.000         154.000
  -2061028.63149  -1593715.90745  24312088.020    24312087.284    24312096.174
       219.000         151.000
  -2700965.77449  -2089179.02147  20806563.646    20806562.702    20806570.190
       243.000         209.000
   1181454.35549    914036.12446  23748020.935    23748019.747    23748030.039
       222.000         168.000
  -1781733.25649  -1289712.50547  20648660.341    20648659.056    20648666.997
       245.000         211.000
 01 12  3 16  9 59.9990000  0  8G20G13G27G29G 4G 1G25G22
   -705101.49649   -542597.36947  20364062.787    20364061.580    20364068.513
       237.000         208.000
  -4077682.76949  -3161106.79246  22667277.524    22667277.038    22667284.697
       232.000         179.000
  -3940938.26749  -3037309.19346  24197826.300    24197825.633    24197837.323
       219.000         171.000
    786465.31249    605663.07545  24158869.595    24158868.431    24158882.369
       209.000         154.000
  -2114453.94549  -1635346.20945  24301921.565    24301920.847    24301929.795
       217.000         149.000
  -2779106.01149  -2150067.56847  20791694.150    20791693.185    20791700.645
       243.000         209.000
   1218945.02849    943249.36146  23755155.342    23755154.193    23755164.554
       222.000         169.000
  -1819900.53749  -1319453.31447  20641397.392    20641396.113    20641404.056
       245.000         211.000
 01 12  3 16 10 29.9990000  0  8G20G13G27G29G 4G 1G25G22
   -715084.17549   -550376.16147  20362163.213    20362161.998    20362168.968
       237.000         208.000
  -4196136.63549  -3253408.53546  22644736.479    22644736.041    22644743.792
       231.000         179.000
  -4064763.51249  -3133796.32546  24174262.909    24174262.350    24174274.115
       219.000         166.000
    812967.98549    626314.24545  24163913.224    24163911.975    24163925.978
       212.000         155.000
  -2167318.98849  -1676539.89145  24291861.673    24291861.117    24291870.104
       218.000         149.000
  -2857012.22449  -2210773.75047  20776869.165    20776868.191    20776875.626
       243.000         208.000
   1256505.91049    972517.29246  23762303.219    23762301.992    23762312.444
       221.000         170.000
  -1857357.71749  -1348640.79847  20634269.547    20634268.294    20634276.239
       245.000         211.000
 01 12  3 16 10 59.9990000  0  8G20G13G27G29G 4G 1G25G22
   -724469.30949   -557689.34447  20360377.327    20360376.141    20360383.137
       237.000         208.000
  -4314488.01849  -3345630.43546  22622215.016    22622214.566    22622222.341
       231.000         179.000
  -4188398.08449  -3230134.88546  24150735.994    24150735.410    24150746.993
       222.000         167.000
    839637.41749    647095.34145  24168988.408    24168987.206    24169001.252
       212.000         155.000
  -2219638.64549  -1717308.61645  24281905.638    24281905.121    24281914.150
       218.000         148.000
  -2934698.14749  -2271308.28847  20762086.077    20762085.116    20762092.516
       242.000         209.000
   1294121.36749   1001827.73846  23769461.407    23769460.187    23769470.735
       221.000         170.000
  -1894119.61449  -1377286.50947  20627274.108    20627272.804    20627280.741
       245.000         211.000
 01 12  3 16 11 29.9990000  0  8G20G13G27G29G 4G 1G25G22
   -733246.50849   -564528.80347  20358707.132    20358705.955    20358712.993
       237.000         208.000
  -4432725.01749  -3437763.18246  22599715.248    22599714.835    22599722.693
       231.000         179.000
  -4311830.41349  -3326315.86446  24127247.817    24127247.078    24127258.452
       226.000         173.000
    866485.03649    668015.28045  24174097.611    24174096.400    24174110.452
       213.000         153.000
  -2271402.13149  -1757643.96345  24272055.369    24272054.977    24272064.136
       217.000         148.000
  -3012151.69449  -2331661.74147  20747347.236    20747346.256    20747353.644
       243.000         209.000
   1331801.55749   1031188.64846  23776631.783    23776630.714    23776641.315
       222.000         171.000
  -1930175.26349  -1405381.90247  20620413.046    20620411.706    20620419.667
       245.000         212.000
 01 12  3 16 11 59.9990000  0  8G20G13G27G29G 4G 1G25G22
   -741415.87349   -570894.62647  20357152.632    20357151.439    20357158.519
       237.000         208.000
  -4550846.09049  -3529805.60246  22577237.559    22577237.190    22577245.044
       231.000         179.000
  -4435059.24049  -3422338.23746  24103798.306    24103797.462    24103808.710
       223.000         171.000
    893511.50149    689074.58345  24179240.916    24179239.653    24179253.712
       210.000         152.000
  -2322608.95749  -1797545.56345  24262311.221    24262310.832    24262320.058
       218.000         145.000
  -3089371.18849  -2391832.82647  20732652.882    20732651.916    20732659.299
       242.000         209.000
   1369546.22649   1060599.78146  23783814.543    23783813.494    23783824.183
       223.000         172.000
  -1965524.24449  -1432926.64547  20613686.419    20613685.085    20613693.075
       245.000         212.000
 01 12  3 16 12 29.9990000  0  8G20G13G27G29G 4G 1G25G22
   -748990.26149   -576796.82547  20355711.371    20355710.145    20355717.264
       238.000         208.000
  -4668862.21849  -3621766.24346  22554779.907    22554779.494    22554787.316
       232.000         179.000
  -4558096.15049  -3518211.09246  24080385.106    24080384.280    24080395.472
       223.000         168.000
    920705.06349    710264.08345  24184415.854    24184414.645    24184428.720
       214.000         152.000
  -2373271.61849  -1837023.10245  24252670.611    24252670.139    24252679.339
       219.000         147.000
  -3166367.68549  -2451830.14147  20718000.979    20718000.019    20718007.412
       242.000         209.000
   1407342.00349   1090050.75346  23791007.078    23791006.008    23791016.756
       221.000         172.000
  -2000178.86149  -1459930.32547  20607091.961    20607090.607    20607098.623
       245.000         212.000
 01 12  3 16 12 59.9990000  0  8G20G13G27G29G 4G 1G25G22
   -755964.87149   -582231.66747  20354384.200    20354382.978    20354390.138
       238.000         209.000
  -4786767.43749  -3713640.46846  22532343.320    22532342.927    22532350.689
       232.000         180.000
  -4680935.25449  -3613929.85546  24057009.357    24057008.670    24057019.902
       221.000         168.000
    948071.25749    731588.11045  24189623.708    24189622.504    24189636.660
       211.000         150.000
  -2423385.20149  -1876072.80245  24243134.472    24243133.935    24243143.271
       215.000         147.000
  -3243134.68749  -2511648.62847  20703392.772    20703391.805    20703399.202
       243.000         209.000
   1445193.83849   1119545.39146  23798210.208    23798209.166    23798220.018
       222.000         172.000
  -2034134.06749  -1486389.01147  20600630.601    20600629.218    20600637.252
       245.000         212.000
 01 12  3 16 13 29.9990000  0  8G20G13G27G29G 4G 1G25G22
   -762340.48349   -587199.75647  20353171.010    20353169.795    20353176.991
       238.000         209.000
  -4904560.87249  -3805427.57146  22509927.999    22509927.608    22509935.409
       232.000         179.000
  -4803576.07849  -3709494.07946  24033671.265    24033670.741    24033682.212
       219.000         166.000
    975610.00449    753046.59145  24194864.423    24194863.201    24194877.426
       216.000         151.000
  -2472950.03449  -1914694.90145  24233702.683    24233702.149    24233711.643
       219.000         148.000
  -3319671.32349  -2571287.60747  20688828.378    20688827.410    20688834.814
       243.000         209.000
   1483100.61949   1149082.85746  23805423.900    23805422.833    23805433.749
       223.000         172.000
  -2067390.10449  -1512302.88647  20594302.261    20594300.873    20594308.932
       245.000         212.000
 01 12  3 16 13 59.9990000  0  8G20G13G27G29G 4G 1G25G22
   -768125.10749   -591707.33847  20352070.327    20352069.082    20352076.314
       239.000         209.000
  -5022248.77349  -3897132.45646  22487532.796    22487532.412    22487540.247
       232.000         179.000
  -4926025.21849  -3804908.94246  24010369.761    24010369.307    24010380.943
       219.000         167.000
   1003314.42949    774634.19045  24200136.650    24200135.402    24200149.772
       212.000         150.000
  -2521973.62849  -1952895.27645  24224374.046    24224373.485    24224382.768
       218.000         147.000
  -3395983.45749  -2630751.65347  20674306.680    20674305.724    20674313.133
       244.000         208.000
   1521054.03749   1178656.65046  23812646.504    23812645.385    23812656.373
       224.000         173.000
  -2099954.59649  -1537677.90947  20588105.529    20588104.124    20588112.200
       245.000         212.000
 01 12  3 16 14 29.9990000  0  8G20G13G27G29G 4G 1G25G22
   -773319.75849   -595755.19847  20351081.914    20351080.658    20351087.902
       239.000         209.000
  -5139830.36749  -3988754.50946  22465157.760    22465157.398    22465165.218
       232.000         179.000
  -5048282.60149  -3900174.43446  23987105.120    23987104.495    23987116.110
       217.000         164.000
   1031184.37949    796350.75445  24205440.365    24205439.106    24205453.534
       210.000         147.000
  -2570456.56049  -1990674.35145  24215148.240    24215147.638    24215156.891
       220.000         148.000
  -3472070.36849  -2690040.20047  20659827.864    20659826.906    20659834.329
       244.000         209.000
   1559053.26249   1208266.14046  23819877.787    23819876.647    23819887.752
       223.000         174.000
  -2131827.80949  -1562514.26647  20582040.312    20582038.906    20582047.029
       245.000         212.000
 01 12  3 16 14 59.9990000  0  8G20G13G27G29G 4G 1G25G22
   -777923.14249   -599342.33047  20350205.965    20350204.731    20350211.989
       239.000         209.000
  -5257302.57549  -4080291.32946  22442803.534    22442803.198    22442811.034
       231.000         179.000
  -5170345.52249  -3995288.34146  23963877.485    23963876.755    23963888.303
       220.000         165.000
   1059222.15149    818198.07345  24210775.808    24210774.746    24210789.187
       214.000         146.000
  -2618397.17849  -2028030.82545  24206025.551    24206025.011    24206034.253
       219.000         147.000
  -3547928.74549  -2749150.67447  20645392.544    20645391.588    20645398.996
       244.000         209.000
   1597099.66049   1237912.38646  23827118.111    23827116.899    23827128.102
       223.000         173.000
  -2163008.19249  -1586810.75347  20576106.952    20576105.551    20576113.695
       245.000         212.000
 01 12  3 16 15 29.9990000  0  8G20G13G27G29G 4G 1G25G22
   -781941.89349   -602473.90347  20349441.237    20349440.044    20349447.332
       239.000         209.000
  -5374670.31849  -4171746.73246  22420469.221    22420468.874    22420476.746
       232.000         179.000
  -5292219.35149  -4090254.93346  23940685.778    23940685.007    23940696.436
       221.000         168.000
   1087421.98249    840171.67645  24216142.239    24216141.281    24216155.613
       212.000         147.000
  -2665801.88149  -2064969.74245  24197004.695    24197004.253    24197013.656
       220.000         151.000
  -3623563.32649  -2808086.75747  20630999.795    20630998.851    20631006.257
       244.000         209.000
   1635186.32849   1267590.01546  23834366.067    23834364.809    23834376.091
       223.000         171.000
  -2193502.00949  -1610572.24747  20570304.239    20570302.852    20570311.006
       245.000         212.000
 01 12  3 16 15 59.9990000  0  8G20G13G27G29G 4G 1G25G22
   -785372.81449   -605147.42947  20348788.441    20348787.225    20348794.519
       240.000         209.000
  -5491928.97449  -4263117.14546  22398155.670    22398155.306    22398163.174
       231.000         178.000
  -5413899.64449  -4185070.73445  23917530.635    23917529.955    23917541.361
       218.000         162.000
   1115788.10349    862274.85445  24221540.420    24221539.382    24221553.720
       214.000         145.000
  -2712667.12349  -2101488.24945  24188086.898    24188086.257    24188095.668
       216.000         146.000
  -3698969.31649  -2866844.71947  20616650.576    20616649.619    20616657.021
       245.000         209.000
   1673316.26949   1297301.37146  23841622.274    23841620.947    23841632.283
       221.000         171.000
  -2223305.79049  -1633796.04847  20564632.815    20564631.451    20564639.622
       245.000         211.000
 01 12  3 16 16 29.9990000  0  8G20G13G27G29G 4G 1G25G22
   -788215.81149   -607362.83847  20348247.521    20348246.298    20348253.586
       240.000         208.000
  -5609076.25349  -4354400.76246  22375863.244    22375862.927    22375870.781
       232.000         178.000
  -5535384.73549  -4279734.45246  23894412.673    23894412.023    23894423.396
       219.000         166.000
   1144321.45249    884508.32345  24226970.326    24226969.266    24226983.714
       212.000         145.000
  -2758992.15649  -2137585.83245  24179271.578    24179270.975    24179280.491
       220.000         151.000
  -3774144.41549  -2925422.76147  20602345.249    20602344.321    20602351.727
       244.000         209.000
   1711489.69849   1327046.59946  23848886.654    23848885.344    23848896.734
       222.000         169.000
  -2252418.79649  -1656481.58547  20559092.901    20559091.503    20559099.678
       245.000         212.000
 01 12  3 16 16 59.9990000  0  8G20G13G27G29G 4G 1G25G22
   -790471.05349   -609120.25347  20347818.451    20347817.206    20347824.498
       239.000         209.000
  -5726110.34649  -4445596.17646  22353592.436    22353592.121    22353599.959
       233.000         179.000
  -5656673.40649  -4374245.09046  23871332.110    23871331.535    23871342.940
       219.000         167.000
   1173023.38849    906873.16845  24232432.247    24232431.215    24232445.754
       211.000         146.000
  -2804776.72249  -2173262.26145  24170559.240    24170558.568    24170568.234
       217.000         149.000
  -3849086.61949  -2983819.32847  20588084.265    20588083.334    20588090.759
       244.000         209.000
   1749706.73449   1356825.80946  23856159.324    23856158.028    23856169.479
       220.000         168.000
  -2280840.70249  -1678628.60247  20553684.453    20553683.066    20553691.257
       245.000         211.000
 01 12  3 16 17 29.9990000  0  8G20G13G27G29G 4G 1G25G22
   -792120.46249   -610405.58947  20347504.625    20347503.399    20347510.711
       240.000         209.000
  -5843011.42549  -4536687.95146  22331346.940    22331346.601    22331354.474
       233.000         179.000
  -5777746.43449  -4468587.72446  23848292.821    23848292.115    23848303.462
       219.000         165.000
   1201912.61649    929383.92445  24237929.973    24237928.887    24237943.420
       213.000         145.000
  -2850002.59749  -2208503.37345  24161953.129    24161952.480    24161962.209
       221.000         148.000
  -3923775.97149  -3042018.87047  20573871.389    20573870.468    20573877.899
       244.000         209.000
   1787985.40249   1386653.01846  23863443.792    23863442.447    23863453.977
       219.000         166.000
  -2308553.09849  -1700222.75447  20548411.069    20548409.644    20548417.846
       245.000         211.000
 01 12  3 16 17 59.9990000  0  8G20G13G27G29G 4G 1G25G22
   -793193.17449   -611241.55647  20347300.574    20347299.347    20347306.666
       241.000         209.000
  -5959806.83149  -4627697.37846  22309121.473    22309121.192    22309129.056
       232.000         180.000
  -5898631.55249  -4562783.95346  23825289.259    23825288.491    23825299.686
       219.000         166.000
   1230961.18449    952018.82845  24243457.956    24243456.913    24243471.306
       210.000         146.000
  -2894698.54249  -2243331.52545  24153447.863    24153447.232    24153456.976
       219.000         147.000
  -3998239.60249  -3100042.52447  20559701.467    20559700.540    20559708.000
       244.000         209.000
   1826296.79749   1416505.72946  23870734.434    23870733.111    23870744.713
       220.000         166.000
  -2335584.90049  -1721286.56847  20543267.147    20543265.732    20543273.928
       245.000         210.000
 01 12  3 16 18 29.9990000  0  8G20G13G27G29G 4G 1G25G22
   -793693.59549   -611631.58347  20347205.454    20347204.194    20347211.523
       240.000         208.000
  -6076498.93049  -4718626.31446  22286915.746    22286915.427    22286923.322
       234.000         180.000
  -6019331.64849  -4656835.95846  23802320.864    23802320.062    23802331.239
       220.000         168.000
   1260165.82149    974775.32645  24249015.664    24249014.559    24249029.238
       210.000         146.000
  -2938868.43449  -2277749.75745  24145042.696    24145042.062    24145051.917
       219.000         154.000
  -4072479.83449  -3157892.10747  20545574.011    20545573.124    20545580.615
       243.000         209.000
   1864636.81249   1446380.77046  23878030.505    23878029.208    23878040.896
       214.000         164.000
  -2361939.92449  -1741823.02747  20538251.952    20538250.582    20538258.792
       244.000         210.000
 01 12  3 16 18 59.9990000  0  8G20G13G27G29G 4G 1G25G22
   -793627.65049   -611580.28647  20347218.045    20347216.822    20347224.127
       240.000         208.000
  -6193091.67349  -4809477.82346  22264728.940    22264728.600    22264736.465
       234.000         181.000
  -6139851.19249  -4750747.31046  23779386.664    23779385.941    23779397.081
       219.000         166.000
   1289521.65249    997649.61845  24254602.265    24254601.061    24254615.804
       210.000         146.000
  -2982517.85449  -2311762.42345  24136736.668    24136736.061    24136745.971
       220.000         151.000
  -4146500.49749  -3215570.59347  20531488.349    20531487.494    20531495.000
       244.000         209.000
   1902999.48949   1476273.44045  23885330.804    23885329.598    23885341.433
       218.000         162.000
  -2387623.76349  -1761836.47847  20533364.502    20533363.157    20533371.401
       245.000         211.000
 01 12  3 16 19 29.9990000  0  8G20G13G27G29G 4G 1G25G22
   -792980.00449   -611075.71947  20347341.370    20347340.142    20347347.429
       241.000         209.000
  -6309567.98249  -4900238.60646  22242564.289    22242563.925    22242571.772
       234.000         182.000
  -6260173.69549  -4844505.15146  23756489.955    23756489.332    23756500.452
       219.000         167.000
   1319044.79949   1020654.28245  24260220.654    24260219.366    24260234.180
       210.000         146.000
  -3025631.31249  -2345357.48645  24128532.493    24128531.939    24128541.919
       219.000         150.000
  -4220284.35549  -3273064.55847  20517447.799    20517446.928    20517454.445
       244.000         209.000
   1941400.32849   1506195.85745  23892638.352    23892637.261    23892649.171
       217.000         161.000
  -2412621.07349  -1781314.97747  20528607.738    20528606.392    20528614.666
       244.000         211.000
 01 12  3 16 19 59.9990000  0  8G20G13G27G29G 4G 1G25G22
   -791760.85549   -610125.82347  20347573.479    20347572.216    20347579.522
       241.000         208.000
  -6425935.80049  -4990914.85246  22220420.236    22220419.897    22220427.719
       233.000         182.000
  -6380307.51449  -4938115.93546  23733629.184    23733628.576    23733639.845
       221.000         170.000
   1348726.56849   1043782.52545  24265869.160    24265867.865    24265882.708
       208.000         146.000
  -3068218.55149  -2378542.49545  24120428.618    24120428.016    24120438.018
       218.000         146.000
  -4293839.25049  -3330380.10847  20503450.831    20503449.932    20503457.471
       244.000         209.000
   1979829.21949   1536140.12645  23899951.357    23899950.265    23899962.251
       217.000         161.000
  -2436941.22849  -1800265.82047  20523979.815    20523978.475    20523986.787
       244.000         211.000
 01 12  3 16 20 29.9990000  0  8G20G13G27G29G 4G 1G25G22
   -789976.83149   -608735.76547  20347913.014    20347911.779    20347919.111
       241.000         208.000
  -6542199.79849  -5081510.19846  22198295.982    22198295.632    22198303.422
       234.000         182.000
  -6500257.81849  -5031583.75246  23710803.508    23710802.836    23710814.116
       221.000         171.000
   1378561.52149   1067030.11445  24271546.717    24271545.548    24271560.466
       208.000         147.000
  -3110285.59049  -2411322.11745  24112423.644    24112423.017    24112432.972
       219.000         148.000
  -4367169.52249  -3387520.63347  20489496.553    20489495.679    20489503.248
       244.000         209.000
   2018279.88849   1566101.35145  23907268.428    23907267.422    23907279.460
       216.000         160.000
  -2460590.62949  -1818693.99647  20519479.525    20519478.188    20519486.518
       244.000         210.000
 01 12  3 16 20 59.9990000  0  8G20G13G27G29G 4G 1G25G22
   -787621.43449   -606900.48647  20348361.258    20348360.056    20348367.419
       241.000         209.000
  -6658351.21949  -5172017.81746  22176193.110    22176192.783    22176200.580
       235.000         184.000
  -6620016.57949  -5124902.29746  23688014.365    23688013.572    23688024.810
       223.000         172.000
   1408557.07449   1090402.82545  24277254.964    24277253.753    24277268.813
       207.000         147.000
  -3151825.46249  -2443690.99445  24104519.202    24104518.387    24104528.312
       220.000         147.000
  -4440266.50249  -3444479.37147  20475586.693    20475585.822    20475593.405
       243.000         209.000
   2056759.49249   1596085.12845  23914591.113    23914590.098    23914602.141
       216.000         159.000
  -2483562.53849  -1836594.25747  20515108.203    20515106.844    20515115.170
       245.000         210.000
 01 12  3 16 21 29.9990000  0  8G20G13G27G29G 4G 1G25G22
   -784695.41749   -604620.57347  20348918.176    20348916.959    20348924.304
       241.000         209.000
  -6774388.90949  -5262436.81546  22154111.859    22154111.559    22154119.426
       235.000         184.000
  -6739583.29449  -5218071.19346  23665261.672    23665260.874    23665272.080
       224.000         175.000
   1438713.65249   1113901.00845  24282993.974    24282992.658    24283007.901
       204.000         149.000
  -3192838.82449  -2475649.62545  24096714.558    24096713.919    24096723.811
       219.000         150.000
  -4513128.86249  -3501255.29347  20461721.455    20461720.619    20461728.229
       243.000         209.000
   2095266.94549   1626090.62145  23921919.216    23921918.106    23921930.241
       217.000         159.000
  -2505857.18649  -1853966.77847  20510865.749    20510864.392    20510872.703
       245.000         210.000
 01 12  3 16 21 59.9990000  0  8G20G13G27G29G 4G 1G25G22
   -781195.83749   -601893.72947  20349584.234    20349582.992    20349590.332
       241.000         209.000
  -6890307.60849  -5352763.09146  22132053.310    22132053.003    22132060.870
       235.000         185.000
  -6858953.31349  -5311086.82946  23642546.297    23642545.503    23642556.661
       223.000         172.000
   1469035.69549   1137528.10345  24288764.444    24288763.102    24288778.451
       206.000         146.000
  -3233322.21649  -2507195.20845  24089011.050    24089010.324    24089020.243
       218.000         150.000
  -4585751.13149  -3557844.12647  20447901.946    20447901.091    20447908.738
       243.000         209.000
   2133805.85449   1656120.61545  23929253.194    23929252.047    23929264.272
       218.000         159.000
  -2527471.35349  -1870809.05547  20506752.747    20506751.407    20506759.743
       244.000         210.000
 01 12  3 16 22 29.9980000  0  8G20G13G27G29G 4G 1G25G22
   -777133.57549   -598728.43447  20350357.326    20350356.089    20350363.447
       241.000         209.000
  -7006111.78249  -5443000.14046  22110016.561    22110016.257    22110024.073
       235.000         184.000
  -6978131.69049  -5403953.15046  23619867.331    23619866.595    23619877.710
       223.000         174.000
   1499512.70349   1161275.95945  24294564.410    24294563.026    24294578.393
       202.000         146.000
  -3273284.41449  -2538334.74045  24081406.433    24081405.786    24081415.950
       220.000         148.000
  -4658139.28449  -3614250.53447  20434126.977    20434126.110    20434133.792
       243.000         209.000
   2172364.73649   1686166.16645  23936591.134    23936589.774    23936602.134
       218.000         161.000
  -2548414.61049  -1887128.54047  20502767.440    20502766.098    20502774.441
       244.000         210.000
 01 12  3 16 22 59.9980000  0  8G20G13G27G29G 4G 1G25G22
   -772517.17449   -595131.34347  20351235.833    20351234.619    20351242.006
       241.000         209.000
  -7121816.09649  -5533159.37846  22087998.785    22087998.471    22088006.272
       236.000         185.000
  -7097133.93749  -5496682.19546  23597221.988    23597221.219    23597232.366
       224.000         174.000
   1530138.75349   1185139.92545  24300392.799    24300391.314    24300406.762
       200.000         144.000
  -3312736.99949  -2569077.14145  24073899.006    24073898.393    24073908.401
       218.000         149.000
  -4730304.84149  -3670483.48947  20420394.342    20420393.495    20420401.209
       243.000         209.000
   2210937.82849   1716222.78945  23943931.722    23943930.232    23943942.738
       219.000         162.000
  -2568697.19449  -1902933.21447  20498907.919    20498906.533    20498914.871
       244.000         210.000
 01 12  3 16 23 29.9980000  0  8G20G13G27G29G 4G 1G25G22
   -767330.33149   -591089.75347  20352222.977    20352221.730    20352229.134
       241.000         209.000
  -7237398.10849  -5623223.31446  22066004.318    22066004.004    22066011.758
       236.000         186.000
  -7215938.12849  -5589256.95146  23574614.493    23574613.624    23574624.740
       226.000         176.000
   1560930.57949   1209133.06845  24306252.651    24306251.140    24306266.647
       200.000         143.000
  -3351661.50449  -2599408.10945  24066491.952    24066491.375    24066501.423
       219.000         148.000
  -4802226.51449  -3726526.40747  20406708.116    20406707.292    20406715.037
       242.000         209.000
   2249540.68049   1746302.60946  23951277.916    23951276.352    23951288.970
       220.000         163.000
  -2588301.39549  -1918209.27747  20495177.414    20495176.035    20495184.396
       244.000         210.000
 01 12  3 16 23 59.9980000  0  8G20G13G27G29G 4G 1G25G22
   -761580.96649   -586609.83847  20353317.168    20353315.905    20353323.314
       241.000         209.000
  -7352863.34449  -5713196.25246  22044032.115    22044031.750    22044039.506
       237.000         187.000
  -7334550.35949  -5681682.11746  23552043.380    23552042.515    23552053.693
       225.000         176.000
   1591881.81249   1233250.41045  24312142.945    24312141.300    24312156.848
       198.000         141.000
  -3390065.57949  -2629333.50745  24059184.135    24059183.491    24059193.558
       219.000         150.000
  -4873909.90049  -3782383.64147  20393067.288    20393066.443    20393074.207
       243.000         209.000
   2288165.94149   1776399.86946  23958628.395    23958626.771    23958639.446
       221.000         164.000
  -2607234.85949  -1932962.68647  20491574.545    20491573.184    20491581.552
       244.000         210.000
 01 12  3 16 24 29.9980000  0  8G20G13G27G29G 4G 1G25G22
   -755267.54849   -581690.40347  20354518.648    20354517.384    20354524.849
       241.000         209.000
  -7468207.99749  -5803075.23246  22022082.774    22022082.413    22022090.186
       237.000         187.000
  -7452967.45049  -5773955.20946  23529509.352    23529508.519    23529519.799
       226.000         177.000
   1622995.04149   1257493.97845  24318063.676    24318062.277    24318077.868
       196.000         142.000
  -3427947.23149  -2658851.80245  24051975.555    24051974.962    24051984.978
       220.000         150.000
  -4945350.97149  -3838052.05847  20379472.544    20379471.699    20379479.480
       241.000         209.000
   2326815.34149   1806515.94746  23965983.367    23965981.781    23965994.496
       220.000         166.000
  -2625495.84449  -1947192.09147  20488099.641    20488098.285    20488106.676
       244.000         210.000
 01 12  3 16 24 59.9980000  0  8G20G13G27G29G 4G 1G25G22
   -748396.90849   -576336.76647  20355826.133    20355824.890    20355832.392
       241.000         209.000
  -7583436.48049  -5892863.68247  22000155.515    22000155.199    22000162.995
       236.000         188.000
  -7571194.57149  -5866080.28746  23507011.487    23507010.634    23507022.009
       224.000         174.000
   1654264.79749   1281859.50445  24324014.652    24324013.136    24324028.694
       199.000         142.000
  -3465312.77249  -2687967.96245  24044865.230    24044864.627    24044874.899
       219.000         151.000
  -5016554.24449  -3893535.17447  20365923.016    20365922.181    20365929.998
       241.000         208.000
   2365482.66649   1836645.97746  23973341.813    23973340.219    23973352.949
       222.000         165.000
  -2643090.71049  -1960902.44647  20484751.514    20484750.161    20484758.550
       244.000         210.000
 01 12  3 16 25 29.9980000  0  8G20G13G27G29G 4G 1G25G22
   -740972.81249   -570551.87147  20357238.930    20357237.715    20357245.250
       241.000         209.000
  -7698550.21749  -5982562.72747  21978250.175    21978249.828    21978257.630
       236.000         189.000
  -7689234.15649  -5958059.21646  23484549.166    23484548.422    23484559.842
       224.000         175.000
   1685688.63748   1306345.13045  24329994.535    24329993.182    24330008.990
       192.000         142.000
  -3502165.92049  -2716684.81545  24037852.471    24037851.846    24037862.097
       221.000         151.000
  -5087521.25349  -3948834.18747  20352418.491    20352417.649    20352425.488
       241.000         208.000
   2404164.31349   1866787.17246  23980703.020    23980701.360    23980714.186
       222.000         167.000
  -2660023.12649  -1974096.61047  20481529.424    20481528.077    20481536.477
       244.000         210.000
 01 12  3 16 25 59.9980000  0  8G20G13G27G29G 4G 1G25G22
   -732988.85949   -564330.72447  20358758.385    20358757.123    20358764.656
       241.000         209.000
  -7813540.46449  -6072165.54547  21956368.290    21956367.948    21956375.769
       237.000         189.000
  -7807077.98049  -6049885.60446  23462124.280    23462123.509    23462134.820
       224.000         174.000
   1717274.47349   1330956.97245  24336005.265    24336003.891    24336019.997
       195.000         142.000
  -3538499.48349  -2744996.84245  24030938.535    24030937.934    24030948.211
       220.000         147.000
  -5158243.07949  -4003942.14247  20338960.635    20338959.779    20338967.629
       241.000         209.000
   2442867.98249   1896945.51346  23988068.485    23988066.704    23988079.603
       222.000         168.000
  -2676286.23849  -1986769.24947  20478434.664    20478433.349    20478441.763
       243.000         210.000
 01 12  3 16 26 29.9980000  0  8G20G13G27G29G 4G 1G25G22
   -724449.01149   -557676.41047  20360383.600    20360382.309    20360389.849
       241.000         209.000
  -7928408.83849  -6161673.39047  21934509.574    21934509.243    21934517.121
       236.000         189.000
  -7924728.52249  -6141561.35546  23439736.209    23439735.402    23439746.625
       227.000         177.000
   1749019.24949   1355692.66945  24342046.464    24342045.032    24342061.412
       202.000         146.000
  -3574317.35249  -2772907.03645  24024122.836    24024122.156    24024132.462
       221.000         148.000
  -5228721.10549  -4058860.12847  20325549.166    20325548.312    20325556.158
       241.000         208.000
   2481589.82349   1927118.01146  23995437.319    23995435.529    23995448.489
       223.000         169.000
  -2691883.87349  -1998923.33347  20475466.593    20475465.273    20475473.707
       244.000         210.000
 01 12  3 16 26 59.9980000  0  8G20G13G27G29G 4G 1G25G22
   -715363.65349   -550597.02547  20362112.566    20362111.270    20362118.849
       241.000         208.000
  -8043163.21249  -6251092.41147  21912672.538    21912672.232    21912680.151
       236.000         189.000
  -8042194.32049  -6233093.14846  23417383.326    23417382.467    23417393.658
       226.000         177.000
   1780914.26849   1380545.47145  24348116.474    24348114.932    24348131.287
       202.000         145.000
  -3609629.34249  -2800423.00745  24017403.233    24017402.616    24017412.851
       219.000         144.000
  -5298963.06249  -4113594.16247  20312182.576    20312181.736    20312189.613
       241.000         208.000
   2520320.58649   1957297.44746  24002807.765    24002806.041    24002819.092
       220.000         168.000
  -2706826.03949  -2010566.66947  20472623.287    20472621.941    20472630.398
       244.000         210.000
 01 12  3 16 27 29.9980000  0  8G20G13G27G29G 4G 1G25G22
   -705732.85549   -543092.62447  20363945.289    20363943.999    20363951.639
       241.000         208.000
  -8157801.17549  -6340420.72947  21890857.706    21890857.379    21890865.321
       237.000         189.000
  -8159473.86649  -6324479.81246  23395065.822    23395064.976    23395076.179
       226.000         177.000
   1812960.63449   1405516.22145  24354215.309    24354213.549    24354229.911
       204.000         147.000
  -3644435.29149  -2827544.68245  24010780.041    24010779.326    24010789.766
       219.000         147.000
  -5368966.70949  -4168142.50047  20298861.335    20298860.513    20298868.427
       241.000         208.000
   2559060.54649   1987484.03846  24010179.943    24010178.288    24010191.385
       222.000         168.000
  -2721112.59749  -2021699.14447  20469904.709    20469903.358    20469911.822
       243.000         210.000
 01 12  3 16 27 59.9980000  0  9G20G13G27G29G 4G 1G25G 3G22
   -695557.86149   -535164.17647  20365881.624    20365880.335    20365887.979
       242.000         209.000
  -8272321.58949  -6429657.44047  21869065.177    21869064.884    21869072.834
       234.000         188.000
  -8276566.63449  -6415720.93446  23372783.692    23372782.940    23372794.326
       223.000         178.000
   1845158.60049   1430605.07145  24360342.891    24360341.075    24360357.366
       205.000         148.000
  -3678736.01149  -2854272.63745  24004252.919    24004252.194    24004262.624
       218.000         144.000
  -5438730.48449  -4222503.92747  20285585.763    20285584.942    20285592.896
       241.000         209.000
   2597809.16349   2017677.37946  24017553.840    24017552.164    24017565.313
       221.000         168.000
   -207314.76053                  24731021.974
       209.000          78.000
  -2734744.55549  -2032321.54447  20467310.683    20467309.337    20467317.821
       243.000         209.000
 01 12  3 16 28 29.9980000  0  9G20G13G27G29G 4G 1G25G 3G22
   -684834.31149   -526808.27647  20367922.369    20367921.068    20367928.720
       242.000         208.000
  -8386717.71949  -6518797.30846  21847296.261    21847295.999    21847304.013
       234.000         187.000
  -8393466.67749  -6506811.86646  23350538.337    23350537.583    23350549.111
       224.000         178.000
   1877513.87649   1455816.55545  24366500.439    24366498.537    24366514.887
       204.000         149.000
  -3712527.00049  -2880603.44345  23997822.970    23997822.150    23997832.718
       221.000         151.000
  -5508247.68749  -4276673.22047  20272357.161    20272356.300    20272364.251
       241.000         208.000
   2636571.52349   2047881.43546  24024930.356    24024928.711    24024941.872
       221.000         167.000
    -17814.20743                  24708632.388
       209.000          74.000
  -2747717.44749  -2042430.38347  20464842.074    20464840.744    20464849.239
       243.000         209.000
 01 12  3 16 28 59.9980000  0  9G20G13G27G29G 4G 1G25G 3G22
   -673566.71049   -518028.45047  20370066.567    20370065.299    20370073.006
       241.000         209.000
  -8500991.29649  -6607841.68047  21825550.671    21825550.453    21825558.534
       234.000         188.000
  -8510176.71649  -6597754.74846  23328329.178    23328328.420    23328339.973
       224.000         177.000
   1910023.19049   1481148.10145  24372687.136    24372685.319    24372701.786
       204.000         149.000
  -3745812.14349  -2906540.08345  23991489.084    23991488.326    23991498.849
       219.000         145.000
  -5577520.24149  -4330651.88347  20259175.063    20259174.219    20259182.180
       241.000         208.000
   2675343.65149   2078093.09246  24032308.763    24032307.096    24032320.301
       218.000         166.000
   -109487.91544                  24686244.782
       205.000         122.000
  -2760035.35249  -2052028.85247  20462498.123    20462496.777    20462505.309
       243.000         210.000
 01 12  3 16 29 29.9980000  0  9G20G13G27G29G 4G 1G25G 3G22
   -661754.67049   -508824.38247  20372314.342    20372313.114    20372320.868
       241.000         208.000
  -8615139.44549  -6696788.32747  21803829.027    21803828.794    21803836.907
       235.000         188.000
  -8626694.63749  -6688547.88746  23306156.631    23306155.843    23306167.311
       227.000         178.000
   1942688.74549   1506601.42145  24378903.314    24378901.581    24378918.349
       205.000         149.000
  -3778590.70549  -2932081.96745  23985251.642    23985250.927    23985261.400
       222.000         150.000
  -5646545.01749  -4384437.47347  20246040.127    20246039.273    20246047.252
       240.000         208.000
   2714127.05849   2108313.51046  24039689.288    24039687.599    24039700.904
       221.000         165.000
   -201149.25344                  24663860.519
       207.000         131.000
  -2771697.74149  -2061116.53747  20460278.924    20460277.575    20460286.130
       244.000         209.000
 01 12  3 16 29 59.9980000  0  9G20G13G27G29G 4G 1G25G 3G22
   -649389.98349   -499189.67747  20374667.351    20374666.109    20374673.895
       242.000         208.000
  -8729151.18649  -6785628.67247  21782133.363    21782133.104    21782141.228
       235.000         188.000
  -8743010.18549  -6779183.36846  23284022.611    23284021.795    23284033.092
       224.000         175.000
   1975520.22549   1532184.05145  24385151.017    24385149.492    24385166.377
       208.000         147.000
  -3810853.84849  -2957222.27245  23979112.377    23979111.576    23979122.180
       219.000         152.000
  -5715310.90949  -4438021.33347  20232954.423    20232953.596    20232961.589
       240.000         209.000
   2752931.00449   2138549.96246  24047073.787    24047072.061    24047085.424
       218.000         165.000
   -775623.91349   -292788.00545  24641481.739    24641479.911    24641498.889
       209.000         136.000
  -2782695.90049  -2069686.63747  20458186.117    20458184.767    20458193.328
       243.000         209.000
 01 12  3 16 30 29.9980000  0  9G20G13G27G29G 4G 1G25G 3G22
   -636498.78849   -489144.71047  20377120.594    20377119.329    20377127.114
       242.000         208.000
  -8843050.09849  -6874381.09847  21760459.198    21760458.897    21760467.043
       235.000         188.000
  -8859147.87949  -6869680.25246  23261922.295    23261921.517    23261932.792
       225.000         176.000
   2008492.83049   1557876.68245  24391425.868    24391424.363    24391441.168
       209.000         148.000
  -3842627.49449  -2981981.09845  23973066.176    23973065.445    23973076.069
       223.000         150.000
  -5783841.44849  -4491421.80747  20219913.563    20219912.709    20219920.718
       240.000         208.000
   2791729.75649   2168782.36846  24054457.289    24054455.555    24054468.974
       217.000         165.000
   -893219.55859   -384421.13355  24619104.166    24619104.005    24619123.042
       212.000         137.000
  -2793055.81549  -2077759.40247  20456214.753    20456213.412    20456221.978
       243.000         208.000
 01 12  3 16 30 59.9980000  0  9G20G13G27G29G 4G 1G25G 3G22
   -623066.42049   -478678.04947  20379676.796    20379675.509    20379683.330
       242.000         208.000
  -8956818.89149  -6963032.13947  21738809.780    21738809.455    21738817.602
       235.000         189.000
  -8975091.28649  -6960025.75446  23239858.869    23239858.166    23239869.496
       222.000         173.000
   2041622.56349   1583691.77645  24397730.600    24397729.126    24397746.073
       206.000         147.000
  -3873896.71949  -3006346.90245  23967116.045    23967115.251    23967126.025
       221.000         151.000
  -5852119.46849  -4544625.51147  20206920.721    20206919.867    20206927.905
       241.000         208.000
   2830539.21249   2199023.10746  24061842.737    24061841.062    24061854.575
       216.000         164.000
  -1010788.83549   -476033.60245  24596731.625    24596731.464    24596750.396
       212.000         139.000
  -2802762.72949  -2085323.33447  20454367.674    20454366.316    20454374.900
       243.000         209.000
 01 12  3 16 31 29.9980000  0  9G20G13G27G29G 4G 1G25G 3G22
   -609098.29049   -467793.91247  20382334.952    20382333.642    20382341.505
       242.000         208.000
  -9070460.17049  -7051583.81747  21717184.608    21717184.273    21717192.420
       235.000         189.000
  -9090844.02549  -7050222.69346  23217831.786    23217831.124    23217842.492
       225.000         177.000
   2074905.64149   1609626.35245  24404064.554    24404063.013    24404080.032
       209.000         146.000
  -3904666.42449  -3030323.46345  23961260.847    23961260.157    23961270.890
       220.000         149.000
  -5920147.55649  -4597634.46247  20193975.459    20193974.587    20193982.657
       240.000         208.000
   2869354.82549   2229268.66745  24069229.326    24069227.699    24069241.314
       212.000         162.000
  -1128332.78149   -567626.31345  24574363.778    24574363.640    24574381.530
       208.000         139.000
  -2811821.79549  -2092382.44447  20452643.873    20452642.500    20452651.103
       243.000         208.000
 01 12  3 16 31 59.9980000  0  9G20G13G27G29G 4G 1G25G 3G22
   -594597.41349   -456494.65047  20385094.439    20385093.155    20385101.055
       242.000         208.000
  -9183974.52149  -7140036.58747  21695583.526    21695583.215    21695591.420
       235.000         190.000
  -9206407.51849  -7140272.17246  23195840.909    23195840.182    23195851.502
       225.000         177.000
   2108340.19949   1635678.99845  24410426.932    24410425.656    24410442.706
       209.000         143.000
  -3934939.32549  -3053912.91245  23955500.041    23955499.433    23955510.284
       218.000         143.000
  -5987925.95449  -4650448.85147  20181077.684    20181076.826    20181084.927
       240.000         208.000
   2908174.14849   2259517.09745  24076616.723    24076615.035    24076628.776
       214.000         161.000
  -1245849.77149   -659197.89545  24552000.884    24552000.562    24552018.542
       205.000         140.000
  -2820235.90249  -2098938.99647  20451042.811    20451041.422    20451050.038
       243.000         208.000
 01 12  3 16 32 29.9980000  0  9G20G13G27G29G 4G 1G25G 3G22
   -579559.14049   -444776.63447  20387956.244    20387954.943    20387962.871
       243.000         208.000
  -9297354.21749  -7228384.42447  21674008.107    21674007.792    21674016.023
       234.000         189.000
  -9321775.08249  -7230168.99646  23173887.300    23173886.522    23173897.733
       226.000         176.000
   2141932.98149   1661854.97345  24416819.604    24416818.387    24416835.406
       206.000         142.000
  -3964710.40149  -3077111.36145  23949835.004    23949834.302    23949845.075
       222.000         146.000
  -6055447.04649  -4703062.73447  20168228.914    20168228.036    20168236.149
       240.000         208.000
   2947002.71349   2289772.73945  24084005.709    24084004.121    24084017.999
       213.000         162.000
  -1363330.61549   -750741.26945  24529644.831    24529644.324    24529663.014
       206.000         142.000
  -2828000.00149  -2104989.04147  20449565.458    20449564.043    20449572.681
       244.000         209.000
 01 12  3 16 32 59.9980000  0  9G20G13G27G29G 4G 1G25G 3G22
   -563985.35449   -432641.34347  20390919.921    20390918.626    20390926.580
       244.000         208.000
  -9410598.86649  -7316627.04547  21652458.347    21652458.081    21652466.313
       236.000         190.000
  -9436946.93549  -7319913.29646  23151970.805    23151970.053    23151981.221
       226.000         176.000
   2175683.29449   1688153.70645  24423242.473    24423241.137    24423258.156
       209.000         139.000
  -3993981.33049  -3099920.02545  23944265.054    23944264.348    23944275.143
       222.000         149.000
  -6122710.24949  -4755475.66147  20155429.196    20155428.321    20155436.448
       240.000         209.000
   2985839.68249   2320034.92545  24091396.378    24091394.811    24091408.833
       212.000         161.000
  -1480772.82349   -842254.48045  24507296.306    24507295.712    24507314.544
       208.000         145.000
  -2835115.99049  -2110534.06247  20448211.408    20448210.011    20448218.642
       243.000         209.000
 01 12  3 16 33 29.9980000  0  9G20G13G27G29G 4G 1G25G 3G22
   -547891.10049   -420100.48847  20393982.663    20393981.357    20393989.320
       244.000         207.000
  -9523720.36349  -7404773.68847  21630932.087    21630931.809    21630940.028
       237.000         190.000
  -9551935.85249  -7409515.08846  23130089.131    23130088.368    23130099.496
       226.000         178.000
   2209577.47549   1714564.56545  24429692.655    24429691.273    24429708.447
       205.000         137.000
  -4022766.34249  -3122350.12245  23938787.754    23938786.988    23938797.816
       222.000         150.000
  -6189727.47049  -4807696.91547  20142676.340    20142675.424    20142683.562
       240.000         208.000
   3024671.49649   2350293.10045  24098786.109    24098784.541    24098798.647
       211.000         159.000
  -1598186.77349   -933745.66645  24484953.234    24484952.692    24484971.380
       206.000         143.000
  -2841598.54549  -2115585.49147  20446977.900    20446976.499    20446985.132
       243.000         208.000
 01 12  3 16 33 59.9980000  0  9G20G13G27G29G 4G 1G25G 3G22
   -531271.77549   -407150.48547  20397145.282    20397144.005    20397151.973
       243.000         207.000
  -9636711.24749  -7492818.55047  21609430.638    21609430.378    21609438.596
       236.000         190.000
  -9666735.51749  -7498969.39146  23108243.538    23108242.759    23108253.915
       229.000         182.000
   2243622.02849   1741092.59645  24436171.224    24436169.938    24436187.298
       205.000         135.000
  -4051060.63149  -3144397.77945  23933403.584    23933402.893    23933413.871
       221.000         151.000
  -6256491.49349  -4859720.85747  20129971.618    20129970.702    20129978.847
       241.000         208.000
   3063503.62349   2380551.52445  24106175.790    24106174.395    24106188.494
       213.000         159.000
  -1715563.24349  -1025207.64045  24462617.228    24462616.666    24462635.477
       208.000         147.000
  -2847443.05049  -2120139.72547  20445865.811    20445864.408    20445873.049
       244.000         208.000
 01 12  3 16 34 29.9980000  0  9G20G13G27G29G 4G 1G25G 3G22
   -514125.92449   -393790.19847  20400408.095    20400406.837    20400414.830
       244.000         208.000
  -9749567.15849  -7580758.24847  21587954.961    21587954.653    21587962.827
       236.000         191.000
  -9781342.65949  -7588273.69246  23086434.617    23086433.805    23086444.974
       227.000         179.000
   2277819.97949   1767740.17445  24442679.028    24442677.774    24442695.092
       204.000         132.000
  -4078862.42849  -3166061.70945  23928113.138    23928112.479    23928123.615
       222.000         150.000
  -6322997.74549  -4911543.94547  20117315.953    20117315.033    20117323.182
       240.000         208.000
   3102338.42449   2410812.02445  24113566.114    24113564.724    24113578.838
       211.000         157.000
  -1832896.14749  -1116635.67145  24440289.466    24440288.910    24440307.943
       207.000         148.000
  -2852647.55849  -2124195.26247  20444875.477    20444874.080    20444882.755
       243.000         208.000
 01 12  3 16 34 59.9980000  0  8G20G13G27G 4G 1G25G 3G22
   -496458.30949   -380023.34547  20403770.213    20403768.957    20403777.005
       244.000         208.000
  -9862290.25149  -7668594.44947  21566504.456    21566504.189    21566512.339
       237.000         191.000
  -9895760.34149  -7677430.36446  23064661.782    23064660.929    23064672.111
       228.000         181.000
  -4106176.24449  -3187345.35645  23922915.587    23922914.964    23922926.189
       221.000         150.000
  -6389248.44949  -4963167.90647  20104708.933    20104707.989    20104716.139
       240.000         208.000
   3141171.97549   2441071.56845  24120956.216    24120954.763    24120969.029
       214.000         156.000
  -1950185.74149  -1208029.97945  24417969.958    24417969.422    24417988.409
       207.000         148.000
  -2857216.97349  -2127755.91647  20444005.991    20444004.620    20444013.311
       244.000         209.000
 01 12  3 16 35 29.9980000  0  8G20G13G27G 4G 1G25G 3G22
   -478269.44549   -365850.32447  20407231.544    20407230.282    20407238.382
       244.000         208.000
  -9974878.04649  -7756325.21347  21545079.742    21545079.465    21545087.600
       237.000         191.000
 -10009986.88749  -7766438.09746  23042925.172    23042924.356    23042935.501
       227.000         178.000
  -4133002.11549  -3208248.84745  23917810.986    23917810.338    23917821.486
       224.000         151.000
  -6455241.18049  -5014590.84647  20092150.948    20092150.030    20092158.180
       240.000         208.000
   3180004.93549   2471330.63145  24128346.266    24128344.699    24128359.063
       219.000         155.000
  -2067427.92649  -1299387.35245  24395659.528    24395659.004    24395677.793
       206.000         148.000
  -2861151.65649  -2130821.96847  20443257.341    20443255.963    20443264.653
       244.000         208.000
 01 12  3 16 35 59.9980000  0  8G20G13G27G 4G 1G25G 3G22
   -459563.23649   -351274.18547  20410791.372    20410790.074    20410798.200
       244.000         208.000
 -10087331.63749  -7843951.41247  21523680.532    21523680.279    21523688.413
       237.000         191.000
 -10124024.60449  -7855298.70146  23021224.449    23021223.687    23021234.818
       225.000         178.000
  -4159343.58149  -3228774.86345  23912798.597    23912797.870    23912809.139
       222.000         154.000
  -6520976.85549  -5065813.48847  20079641.859    20079640.974    20079649.136
       240.000         208.000
   3218834.76649   2501587.27345  24135735.600    24135734.069    24135748.524
       214.000         153.000
  -2184622.07449  -1390707.28845  24373358.337    24373357.690    24373376.423
       203.000         146.000
  -2864455.36349  -2133396.35547  20442628.776    20442627.368    20442636.062
       244.000         208.000
 01 12  3 16 36 29.9980000  0  8G20G13G27G 4G 1G25G 3G22
   -440346.55049   -336300.26147  20414448.283    20414446.996    20414455.126
       244.000         207.000
 -10199654.75849  -7931475.93447  21502306.172    21502305.924    21502314.041
       238.000         192.000
 -10237878.15749  -7944015.77546  22999558.704    22999558.044    22999569.141
       227.000         177.000
  -4185207.18849  -3248928.49645  23907877.040    23907876.297    23907887.622
       221.000         151.000
  -6586459.12949  -5116838.66747  20067181.034    20067180.148    20067188.314
       240.000         208.000
   3257655.78049   2531837.06345  24143123.147    24143121.696    24143136.355
       211.000         154.000
  -2301769.97549  -1481991.22645  24351065.601    24351065.065    24351083.948
       201.000         145.000
  -2867134.63949  -2135484.17047  20442118.989    20442117.591    20442126.310
       244.000         208.000
 01 12  3 16 36 59.9980000  0  8G20G13G27G 4G 1G25G 3G22
   -420626.47049   -320934.08947  20418200.966    20418199.685    20418207.850
       244.000         208.000
 -10311851.68749  -8018902.12647  21480955.830    21480955.584    21480963.713
       237.000         192.000
 -10351552.79649  -8032593.44946  22977927.223    22977926.529    22977937.542
       227.000         178.000
  -4210599.59049  -3268714.96545  23903045.184    23903044.465    23903055.857
       222.000         154.000
  -6651692.41149  -5167669.82647  20054767.596    20054766.714    20054774.876
       240.000         208.000
   3296461.94649   2562075.26145  24150507.918    24150506.480    24150521.352
       217.000         152.000
  -2418874.24049  -1573241.21745  24328781.306    24328780.774    24328799.602
       201.000         141.000
  -2869196.38649  -2137090.79947  20441726.716    20441725.334    20441734.051
       244.000         208.000
 01 12  3 16 37 29.9980000  0  8G20G13G27G 4G 1G25G 3G22
   -400396.89449   -305170.90347  20422050.597    20422049.333    20422057.532
       244.000         207.000
 -10423913.03249  -8106222.66347  21459631.300    21459631.039    21459639.160
       238.000         192.000
 -10465040.26849  -8121025.27846  22956331.509    22956330.688    22956341.702
       230.000         180.000
  -4235514.44949  -3288129.34645  23898304.056    23898303.423    23898314.947
       222.000         153.000
  -6716667.53549  -5218299.82347  20042403.305    20042402.399    20042410.558
       240.000         208.000
   3335260.78149   2592307.76445  24157891.392    24157889.908    24157904.921
       215.000         151.000
  -2535923.70248  -1664448.52045  24306507.208    24306506.874    24306525.496
       193.000         143.000
  -2870634.50349  -2138211.49047  20441453.125    20441451.747    20441460.464
       244.000         208.000
 01 12  3 16 37 59.9980000  0  8G20G13G27G 4G 1G25G 3G22
   -379662.46849   -289014.32947  20425996.361    20425995.066    20426003.303
       244.000         208.000
 -10535840.60549  -8193438.96547  21438332.228    21438331.942    21438340.052
       237.000         192.000
 -10578343.35649  -8209313.43046  22934770.804    22934769.896    22934780.949
       229.000         181.000
  -4259955.84749  -3307174.78945  23893653.282    23893652.541    23893664.118
       222.000         155.000
  -6781386.25249  -5268730.01947  20030087.787    20030086.880    20030095.032
       240.000         207.000
   3374048.49549   2622531.60245  24165272.743    24165271.246    24165286.339
       216.000         151.000
  -2652918.39049  -1755613.14245  24284243.359    24284243.231    24284262.092
       195.000         142.000
  -2871453.52349  -2138849.77647  20441297.338    20441295.961    20441304.683
       244.000         208.000
 01 12  3 16 38 29.9980000  0  8G20G13G27G 4G 1G25G 3G22
   -358429.08249   -272468.95347  20430037.089    20430035.760    20430044.026
       245.000         207.000
 -10647637.33049  -8280553.30547  21417058.050    21417057.765    21417065.855
       237.000         192.000
 -10691465.85949  -8297460.87046  22913244.256    22913243.405    22913254.575
       228.000         181.000
  -4283929.27149  -3325855.61345  23889091.423    23889090.681    23889102.326
       223.000         154.000
  -6845851.15849  -5318962.43447  20017820.559    20017819.653    20017827.798
       240.000         207.000
   3412820.86749   2652743.47345  24172651.119    24172649.701    24172664.771
       220.000         150.000
  -2769859.39449  -1846735.96845  24261990.341    24261990.013    24262008.960
       195.000         143.000
  -2871659.00049  -2139009.98147  20441258.329    20441256.925    20441265.682
       243.000         208.000
 01 12  3 16 38 59.9980000  0  8G20G13G27G 4G 1G25G 3G22
   -336695.88549   -255534.11447  20434172.855    20434171.552    20434179.851
       243.000         207.000
 -10759299.13249  -8367562.51447  21395809.521    21395809.247    21395817.324
       238.000         192.000
 -10804405.11249  -8385465.51946  22891752.519    22891751.746    22891762.972
       228.000         180.000
  -4307433.67849  -3344170.91645  23884618.828    23884618.130    23884629.698
       221.000         154.000
  -6910058.50649  -5368994.15847  20005602.312    20005601.433    20005609.563
       239.000         207.000
   3451579.88249   2682944.95345  24180027.126    24180025.599    24180040.649
       220.000         151.000
  -2886741.07348  -1937812.54445  24239748.358    24239748.143    24239766.981
       194.000         141.000
  -2871250.05349  -2138691.42047  20441336.198    20441334.805    20441343.585
       243.000         207.000
 01 12  3 16 39 29.9970000  0  8G20G13G27G 4G 1G25G 3G22
   -314464.96249   -238211.43747  20438403.291    20438402.025    20438410.379
       243.000         207.000
 -10870820.49949  -8454462.29747  21374587.700    21374587.455    21374595.521
       238.000         192.000
 -10917156.61649  -8473323.86346  22870296.585    22870295.828    22870306.962
       227.000         179.000
  -4330469.10649  -3362120.79545  23880235.371    23880234.717    23880246.458
       221.000         156.000
  -6974004.33649  -5418822.09747  19993433.855    19993432.981    19993441.107
       240.000         207.000
   3490324.48449   2713135.19045  24187400.107    24187398.723    24187413.825
       221.000         154.000
  -3003555.65749  -2028836.83745  24217519.343    24217518.910    24217537.816
       198.000         142.000
  -2870227.95649  -2137895.08747  20441530.772    20441529.379    20441538.180
       243.000         207.000
 01 12  3 16 39 59.9970000  0  8G20G13G27G 4G 1G25G 3G22
   -291737.42949   -220501.79647  20442728.273    20442727.003    20442735.401
       243.000         206.000
 -10982208.35349  -8541258.03947  21353391.266    21353391.044    21353399.144
       238.000         192.000
 -11029728.52349  -8561042.24646  22848874.923    22848874.148    22848885.127
       228.000         180.000
  -4353039.59449  -3379708.35645  23875940.597    23875939.842    23875951.693
       220.000         155.000
  -7037692.58649  -5468449.32947  19981314.401    19981313.548    19981321.669
       239.000         207.000
   3529055.61149   2743314.93345  24194770.708    24194769.283    24194784.567
       221.000         154.000
  -3120308.83649  -2119813.30645  24195302.056    24195301.593    24195320.426
       199.000         143.000
  -2868595.21049  -2136622.92647  20441841.561    20441840.157    20441848.974
       243.000         207.000
 01 12  3 16 40 29.9970000  0  8G20G13G27G 4G 1G25G 3G22
   -268508.64849   -202401.57547  20447148.673    20447147.391    20447155.832
       243.000         207.000
 -11093450.66949  -8627940.38747  21332222.524    21332222.323    21332230.432
       238.000         193.000
 -11142109.62849  -8648611.94646  22827489.642    22827488.801    22827499.723
       230.000         181.000
  -4375138.41449  -3396928.39645  23871735.503    23871734.705    23871746.768
       223.000         156.000
  -7101112.51549  -5517867.47947  19969246.041    19969245.176    19969253.285
       240.000         207.000
   3567778.55749   2773488.29145  24202139.798    24202138.342    24202153.793
       221.000         156.000
  -3236986.60549  -2210730.99045  24173099.081    24173098.526    24173117.402
       196.000         143.000
  -2866346.17349  -2134870.54447  20442269.616    20442268.216    20442277.031
       243.000         207.000
 01 12  3 16 40 59.9970000  0  8G20G13G27G 4G 1G25G 3G22
   -244790.02049   -183919.64947  20451662.279    20451660.993    20451669.469
       243.000         207.000
 -11204555.60349  -8714515.67947  21311080.014    21311079.773    21311087.884
       239.000         193.000
 -11254309.36149  -8736040.33846  22806138.709    22806137.903    22806148.912
       228.000         182.000
  -4396776.82849  -3413789.70545  23867617.923    23867617.214    23867629.206
       221.000         152.000
  -7164272.48649  -5567083.06447  19957227.125    19957226.266    19957234.370
       240.000         207.000
   3606483.50649   2803647.63645  24209505.610    24209504.008    24209519.615
       224.000         157.000
  -3353595.33449  -2301594.85045  24150909.027    24150908.584    24150927.330
       200.000         143.000
  -2863492.18849  -2132646.77547  20442812.784    20442811.385    20442820.220
       243.000         206.000
 01 12  3 16 41 29.9970000  0  8G20G13G27G 4G 1G25G 3G22
   -220590.73749   -165063.19447  20456267.381    20456266.072    20456274.583
       243.000         207.000
 -11315528.93149  -8800988.42447  21289962.602    21289962.292    21289970.393
       239.000         194.000
 -11366334.71149  -8823332.84846  22784820.976    22784820.199    22784831.349
       228.000         182.000
  -4417963.49549  -3430298.97845  23863586.506    23863585.714    23863597.646
       221.000         151.000
  -7227178.41049  -5616100.69347  19945256.513    19945255.695    19945263.800
       240.000         207.000
   3645162.88549   2833787.05345  24216866.522    24216864.828    24216880.460
       218.000         158.000
  -3470139.05449  -2392408.03045  24128731.390    24128730.972    24128749.637
       200.000         144.000
  -2860042.40949  -2129958.75547  20443469.360    20443467.937    20443476.782
       242.000         206.000
 01 12  3 16 41 59.9970000  0  8G20G13G27G 4G 1G25G 3G22
   -195905.29849   -145827.91847  20460964.958    20460963.657    20460972.218
       243.000         207.000
 -11426362.10349  -8887351.95047  21268871.769    21268871.460    21268879.561
       239.000         193.000
 -11478178.34049  -8910483.75946  22763537.931    22763537.111    22763548.346
       229.000         184.000
  -4438692.61349  -3446451.72745  23859641.804    23859641.179    23859653.263
       220.000         152.000
  -7289821.80249  -5664913.75847  19933335.910    19933335.077    19933343.206
       240.000         207.000
   3683823.11249   2863911.53645  24224223.530    24224221.913    24224237.619
       218.000         157.000
  -3586607.40849  -2483162.46545  24106568.059    24106567.647    24106586.467
       199.000         145.000
  -2855991.24249  -2126802.12547  20444240.357    20444238.920    20444247.814
       242.000         206.000
 01 12  3 16 42 29.9970000  0  8G20G13G27G 4G 1G25G 3G22
   -170732.39249   -126212.79347  20465755.283    20465753.983    20465762.593
       242.000         206.000
 -11537050.40349  -8973602.59947  21247808.494    21247808.216    21247816.294
       239.000         193.000
 -11589836.57749  -8997490.20146  22742290.209    22742289.333    22742300.513
       229.000         181.000
  -4458962.20449  -3462246.36345  23855784.872    23855784.165    23855796.245
       221.000         152.000
  -7352197.93849  -5713518.57447  19921466.185    19921465.334    19921473.458
       240.000         208.000
   3722467.56749   2894023.71745  24231577.560    24231575.963    24231591.751
       216.000         156.000
  -3702994.04449  -2573853.19245  24084420.166    24084419.866    24084438.764
       201.000         145.000
  -2851337.14349  -2123175.67547  20445126.056    20445124.637    20445133.585
       243.000         206.000
 01 12  3 16 42 59.9970000  0  8G20G13G27G 4G 1G25G 3G22
   -145090.61949   -106232.30947  20470634.813    20470633.530    20470642.209
       242.000         206.000
 -11647609.24049  -9059752.36747  21226769.863    21226769.589    21226777.646
       239.000         193.000
 -11701325.96249  -9084365.06746  22721074.543    22721073.664    22721084.652
       231.000         181.000
  -4478790.93649  -3477697.54945  23852011.827    23852011.012    23852023.247
       220.000         150.000
  -7414322.41149  -5761927.28747  19909644.327    19909643.472    19909651.610
       240.000         208.000
   3761078.65449   2924109.89745  24238925.079    24238923.680    24238939.521
       212.000         158.000
  -3819312.63649  -2664490.88045  24062285.484    24062285.104    24062303.809
       204.000         145.000
  -2846098.62249  -2119093.82447  20446122.994    20446121.578    20446130.556
       242.000         206.000
 01 12  3 16 43 29.9970000  0  8G20G13G27G 4G 1G25G 3G22
   -118967.64349    -85876.86647  20475605.873    20475604.650    20475613.396
       242.000         207.000
 -11758023.19549  -9145789.24647  21205758.799    21205758.536    21205766.575
       240.000         193.000
 -11812632.14749  -9171097.16446  22699893.642    22699892.794    22699903.700
       229.000         179.000
  -4498166.16549  -3492795.26645  23848325.014    23848324.229    23848336.364
       220.000         148.000
  -7476179.90649  -5810127.97047  19897873.226    19897872.412    19897880.558
       239.000         208.000
   3799670.29449   2954180.92745  24246269.099    24246267.678    24246283.603
       216.000         158.000
  -3935546.13049  -2755062.19045  24040166.855    24040166.510    24040185.274
       203.000         145.000
  -2840263.60249  -2114547.16447  20447233.423    20447232.018    20447241.031
       243.000         206.000
 01 12  3 16 43 59.9970000  0  8G20G13G27G 4G 1G25G 3G22
    -92361.37649    -65144.83547  20480668.969    20480667.740    20480676.550
       242.000         207.000
 -11868286.58149  -9231708.79447  21184776.395    21184776.124    21184784.158
       240.000         193.000
 -11923750.76049  -9257683.12346  22678748.337    22678747.585    22678758.547
       228.000         182.000
  -4517085.15049  -3507537.53645  23844725.003    23844724.228    23844736.408
       220.000         153.000
  -7537764.75249  -5858116.20647  19886154.025    19886153.228    19886161.380
       239.000         208.000
   3838246.34449   2984239.80845  24253610.240    24253608.711    24253624.780
       213.000         158.000
  -4051687.37249  -2845561.58845  24018065.791    24018065.432    24018084.407
       208.000         147.000
  -2833829.45749  -2109533.65347  20448457.842    20448456.463    20448465.517
       242.000         206.000
 01 12  3 16 44 29.9970000  0  8G20G13G27G 4G 1G25G 3G22
    -65281.06249    -44043.41447  20485822.329    20485821.061    20485829.916
       242.000         207.000
 -11978405.43849  -9317515.72047  21163821.486    21163821.226    21163829.218
       239.000         192.000
 -12034688.98149  -9344128.50346  22657637.468    22657636.730    22657647.851
       229.000         183.000
  -4535556.83249  -3521931.23845  23841210.026    23841209.285    23841221.368
       219.000         152.000
  -7599082.75549  -5905896.51847  19874485.635    19874484.832    19874492.986
       240.000         208.000
   3876798.85849   3014280.35245  24260946.670    24260945.297    24260961.482
       207.000         156.000
  -4167740.13549  -2935992.03145  23995981.572    23995981.256    23996000.168
       209.000         146.000
  -2826805.41349  -2104060.47547  20449794.521    20449793.159    20449802.260
       242.000         206.000
 01 12  3 16 44 59.9970000  0  8G20G13G27G 4G 1G25G 3G22
    -37732.91249    -22577.44647  20491064.678    20491063.407    20491072.287
       241.000         207.000
 -12088382.62549  -9403212.25447  21142893.566    21142893.281    21142901.276
       239.000         192.000
 -12145451.08149  -9430436.64946  22636560.216    22636559.458    22636570.676
       230.000         185.000
  -4553587.42849  -3535981.25645  23837779.024    23837778.328    23837790.455
       220.000         156.000
  -7660137.31449  -5953471.55047  19862867.385    19862866.568    19862874.728
       240.000         208.000
   3915323.06349   3044298.84345  24268277.944    24268276.534    24268292.814
       207.000         156.000
  -4283705.87049  -3026354.67745  23973913.922    23973913.672    23973932.322
       209.000         147.000
  -2819197.93649  -2098132.66447  20451242.256    20451240.887    20451250.040
       242.000         207.000
 01 12  3 16 45 29.9970000  0  8G20G13G27G 4G 1G25G 3G22
     -9722.62049      -751.36547  20496394.911    20496393.656    20496402.611
       241.000         206.000
 -12198220.27149  -9488800.04947  21121992.146    21121991.883    21121999.906
       239.000         192.000
 -12256040.37949  -9516610.13646  22615515.864    22615515.069    22615526.309
       229.000         183.000
  -4571181.98649  -3549691.47445  23834431.082    23834430.354    23834442.639
       219.000         155.000
  -7720930.46049  -6000842.88747  19851298.901    19851298.062    19851306.220
       240.000         208.000
   3953815.21049   3074292.35945  24275603.216    24275601.624    24275618.061
       209.000         153.000
  -4399585.14549  -3116649.93945  23951862.572    23951862.388    23951881.108
       211.000         148.000
  -2811012.40349  -2091754.41947  20452799.984    20452798.625    20452807.824
       243.000         207.000
 01 12  3 16 45 59.9970000  0  8G20G13G27G 4G 1G25G 3G22
     18752.70449     21437.07047  20501813.589    20501812.376    20501821.426
       241.000         207.000
 -12307912.26749  -9574274.35247  21101118.433    21101118.194    21101126.232
       239.000         193.000
 -12366451.86949  -9602645.05846  22594505.202    22594504.468    22594515.699
       229.000         183.000
  -4588337.24549  -3563059.38745  23831166.737    23831165.975    23831178.358
       221.000         158.000
  -7781456.29349  -6048005.93147  19839781.259    19839780.409    19839788.587
       240.000         208.000
   3992279.63749   3104264.24745  24282923.298    24282921.526    24282937.938
       204.000         152.000
  -4515370.04549  -3206871.70545  23929829.174    23929829.077    23929848.007
       212.000         148.000
  -2802245.84249  -2084923.42747  20454468.291    20454466.929    20454476.159
       242.000         206.000
 01 12  3 16 46 29.9970000  0  8G20G13G27G 4G 1G25G 3G22
     47697.31349     43991.18247  20507321.675    20507320.439    20507329.532
       242.000         207.000
 -12417450.86149  -9659629.11447  21080273.932    21080273.703    21080281.752
       239.000         194.000
 -12476679.34349  -9688536.58646  22573529.538    22573528.839    22573540.013
       229.000         182.000
  -4605048.88649  -3576081.61745  23827986.736    23827985.997    23827998.471
       219.000         153.000
  -7841707.17949  -6094954.73547  19828315.955    19828315.086    19828323.251
       239.000         208.000
   4030722.18549   3134219.10145  24290239.194    24290237.299    24290253.638
       206.000         154.000
  -4631051.02849  -3297012.51645  23907815.453    23907815.494    23907834.398
       212.000         147.000
  -2792894.16449  -2077636.49547  20456247.941    20456246.553    20456255.819
       241.000         206.000
 01 12  3 16 46 59.9970000  0  8G20G13G27G 4G 1G25G 3G22
     77110.50449     66910.41847  20512918.980    20512917.695    20512926.809
       242.000         206.000
 -12526833.35849  -9744862.24547  21059459.190    21059458.947    21059466.982
       239.000         194.000
 -12586721.18149  -9774283.46546  22552589.209    22552588.549    22552599.699
       229.000         182.000
  -4621317.11149  -3588758.36445  23824891.144    23824890.422    23824902.845
       221.000         157.000
  -7901680.38249  -6141687.16147  19816903.467    19816902.599    19816910.761
       240.000         207.000
   4069144.01249   3164157.79645  24297551.063    24297549.073    24297565.360
       211.000         151.000
  -4746623.73349  -3387069.00445  23885822.611    23885822.547    23885841.226
       214.000         144.000
  -2782957.87349  -2069894.01947  20458138.827    20458137.447    20458146.726
       241.000         205.000
 01 12  3 16 47 29.9970000  0  8G20G13G27G 4G 1G25G 3G22
    106975.74249     90181.89647  20518602.223    20518600.955    20518610.096
       241.000         206.000
 -12636072.91849  -9829983.99447  21038671.668    21038671.385    21038679.408
       240.000         194.000
 -12696591.74749  -9859896.90546  22531681.662    22531680.932    22531692.039
       230.000         185.000
  -4637158.05149  -3601102.15045  23821876.808    23821876.127    23821888.577
       222.000         157.000
  -7961389.02449  -6188213.43447  19805541.342    19805540.462    19805548.622
       240.000         208.000
   4107530.14949   3194068.67545  24304856.175    24304854.060    24304870.355
       208.000         152.000
  -4862099.63349  -3477050.05545  23863848.201    23863848.063    23863866.684
       213.000         142.000
  -2772453.46549  -2061708.86047  20460137.826    20460136.440    20460145.744
       242.000         206.000
 01 12  3 16 47 59.9970000  0  8G20G13G27G 4G 1G25G 3G22
    137287.43049    113801.26547  20524370.403    20524369.156    20524378.339
       242.000         206.000
 -12745171.38049  -9914995.78747  21017910.970    21017910.657    21017918.683
       240.000         194.000
 -12806294.43449  -9945379.50846  22510806.043    22510805.272    22510816.461
       230.000         186.000
  -4652576.83649  -3613116.93045  23818942.911    23818942.181    23818954.596
       222.000         156.000
  -8020835.42149  -6234535.35647  19794229.117    19794228.239    19794236.410
       240.000         208.000
   4145876.69649   3223948.71345  24312153.407    24312151.448    24312167.775
       209.000         152.000
  -4977479.09649  -3566956.02045  23841892.193    23841891.994    23841910.556
       214.000         140.000
  -2761386.43049  -2053085.28347  20462243.884    20462242.494    20462251.844
       241.000         205.000
 01 12  3 16 48 29.9970000  0  8G20G13G27G 4G 1G25G 3G22
    168053.47749    137774.67947  20530225.036    20530223.817    20530233.048
       242.000         206.000
 -12854117.39449  -9999888.78947  20997179.235    20997178.942    20997186.972
       240.000         194.000
 -12915819.13849 -10030723.42946  22489964.123    22489963.412    22489974.715
       229.000         185.000
  -4667565.55449  -3624796.64145  23816090.819    23816090.097    23816102.654
       221.000         160.000
  -8080008.26449  -6280644.12047  19782968.985    19782968.087    19782976.253
       239.000         208.000
   4184193.47849   3253805.56645  24319445.205    24319443.135    24319459.620
       214.000         155.000
  -5092749.09349  -3656776.76645  23819956.996    23819956.791    23819974.959
       214.000         139.000
  -2749748.94849  -2044017.21347  20464458.505    20464457.105    20464466.474
       241.000         205.000
 01 12  3 16 48 59.9970000  0  8G20G13G27G 4G 1G25G 3G22
    199264.65849    162094.94847  20536164.484    20536163.217    20536172.451
       243.000         206.000
 -12962916.75649 -10084667.51847  20976475.378    20976475.111    20976483.169
       240.000         194.000
 -13025173.04949 -10115934.27846  22469154.694    22469154.042    22469165.365
       230.000         183.000
  -4682132.94249  -3636147.99645  23813318.951    23813318.185    23813330.819
       218.000         155.000
  -8138913.39949  -6326544.28347  19771759.770    19771758.866    19771767.036
       240.000         208.000
   4222472.56249   3283633.04145  24326729.587    24326727.633    24326744.379
       208.000         155.000
  -5207913.89749  -3746515.57245  23798041.750    23798041.535    23798059.522
       214.000         140.000
  -2737550.14149  -2034511.74747  20466779.947    20466778.540    20466787.906
       241.000         205.000
 01 12  3 16 49 29.9970000  0  8G20G13G27G 4G 1G25G 3G22
    230916.48149    186758.57647  20542187.790    20542186.480    20542195.696
       242.000         205.000
 -13071570.29349 -10169332.61247  20955799.271    20955799.038    20955807.081
       239.000         195.000
 -13134358.26249 -10201013.66146  22448377.434    22448376.754    22448388.027
       230.000         184.000
  -4696283.17049  -3647174.34345  23810626.308    23810625.593    23810638.304
       215.000         155.000
  -8197551.97249  -6372236.73147  19760601.281    19760600.372    19760608.552
       240.000         208.000
   4260711.84449   3313429.51845  24334006.277    24334004.568    24334021.408
       211.000         157.000
  -5322972.41449  -3836171.62945  23776146.735    23776146.546    23776164.611
       214.000         138.000
  -2724794.56149  -2024572.43447  20469207.349    20469205.928    20469215.291
       241.000         205.000
 01 12  3 16 49 59.9970000  0  8G20G13G27G 4G 1G25G 3G22
    263007.57549    211764.49547  20548294.619    20548293.313    20548302.538
       242.000         205.000
 -13180075.74149 -10253882.30747  20935151.351    20935151.148    20935159.217
       239.000         195.000
 -13243373.87949 -10285960.87446  22427632.447    22427631.798    22427642.986
       230.000         184.000
  -4710017.40849  -3657876.52045  23808012.806    23808012.147    23808024.998
       215.000         156.000
  -8255921.89949  -6417719.84447  19749493.922    19749492.993    19749501.180
       240.000         208.000
   4298911.22949   3343194.91945  24341275.731    24341273.910    24341290.856
       207.000         157.000
  -5437920.47249  -3925741.64545  23754273.041    23754272.635    23754290.686
       213.000         140.000
  -2711483.31849  -2014200.14147  20471740.471    20471739.058    20471748.419
       242.000         205.000
 01 12  3 16 50 29.9970000  0  8G20G13G27G 4G 1G25G 3G22
    295539.20549    237113.68847  20554485.237    20554483.966    20554493.217
       242.000         204.000
 -13288428.08849 -10338312.69947  20914532.581    20914532.370    20914540.464
       239.000         195.000
 -13352216.21849 -10370773.08246  22406920.661    22406919.870    22406930.937
       230.000         185.000
  -4723333.71149  -3668253.02945  23805478.939    23805478.290    23805491.087
       219.000         154.000
  -8314018.14449  -6462989.70047  19738438.646    19738437.711    19738445.889
       240.000         208.000
   4337074.02049   3372931.82445  24348538.076    24348536.278    24348553.355
       218.000         158.000
  -5552751.72349  -4015220.63345  23732421.304    23732420.912    23732438.821
       212.000         140.000
  -2697615.13349  -2003393.87247  20474379.552    20474378.169    20474387.552
       241.000         205.000
 01 12  3 16 50 59.9970000  0  8G20G13G27G 4G 1G25G 3G22
    328502.22649    262799.03147  20560757.984    20560756.700    20560765.981
       243.000         204.000
 -13396633.24249 -10422628.40247  20893941.769    20893941.607    20893949.733
       240.000         195.000
 -13460892.41749 -10455455.83346  22386240.297    22386239.475    22386250.591
       229.000         186.000
  -4736241.34349  -3678311.10745  23803022.858    23803022.217    23803035.032
       216.000         154.000
  -8371846.76549  -6508051.01147  19727434.249    19727433.338    19727441.521
       240.000         208.000
   4375192.68949   3402634.33745  24355792.119    24355790.343    24355807.424
       216.000         158.000
  -5667470.19449  -4104611.72345  23710590.960    23710590.638    23710608.665
       211.000         138.000
  -2683199.33849  -1992160.90947  20477122.864    20477121.477    20477130.895
       241.000         204.000
 01 12  3 16 51 29.9970000  0  8G20G13G27G 4G 1G25G 3G22
    361903.15149    288825.60047  20567114.048    20567112.794    20567122.067
       242.000         203.000
 -13504681.02249 -10506821.47547  20873380.975    20873380.794    20873388.942
       239.000         195.000
 -13569393.74249 -10540002.30647  22365593.073    22365592.319    22365603.614
       230.000         188.000
  -4748733.36149  -3688045.26045  23800645.874    23800645.195    23800658.089
       216.000         154.000
  -8429397.83749  -6552896.05547  19716482.661    19716481.779    19716489.971
       239.000         208.000
   4413275.43149   3432308.86745  24363039.527    24363037.589    24363054.699
       214.000         158.000
  -5782064.09049  -4193905.77645  23688784.304    23688784.007    23688802.117
       211.000         140.000
  -2668229.45549  -1980496.19147  20479971.638    20479970.243    20479979.668
       242.000         204.000
 01 12  3 16 51 59.9970000  0  8G20G13G27G 4G 1G25G 3G22
    395720.73749    315176.83647  20573549.485    20573548.192    20573557.441
       243.000         203.000
 -13612588.62849 -10590905.31747  20852846.876    20852846.670    20852854.826
       240.000         196.000
 -13677738.71149 -10624426.96946  22344975.620    22344974.948    22344986.309
       230.000         187.000
  -4760830.28049  -3697471.61245  23798344.011    23798343.311    23798356.385
       214.000         155.000
  -8486688.73949  -6597538.36647  19705580.598    19705579.725    19705587.923
       240.000         208.000
   4451303.58149   3461940.84945  24370276.384    24370274.468    24370291.635
       217.000         155.000
  -5896548.94049  -4283114.83545  23666998.721    23666998.216    23667016.209
       214.000         143.000
  -2652726.39049  -1968416.00547  20482921.886    20482920.486    20482929.889
       242.000         204.000
 01 12  3 16 52 29.9970000  0  8G20G13G27G 4G 1G25G 3G22
    429953.91249    341851.90247  20580063.935    20580062.667    20580071.901
       242.000         202.000
 -13720353.66749 -10674878.06747  20832339.876    20832339.675    20832347.818
       240.000         196.000
 -13785926.56649 -10708729.19046  22324388.147    22324387.481    22324398.854
       229.000         186.000
  -4772533.39249  -3706591.06645  23796117.140    23796116.450    23796129.581
       216.000         153.000
  -8543717.19349  -6641976.18047  19694728.523    19694727.624    19694735.816
       240.000         208.000
   4489277.36749   3491530.49145  24377502.623    24377500.873    24377518.114
       214.000         156.000
  -6010920.85649  -4372235.87645  23645234.691    23645234.062    23645251.891
       213.000         144.000
  -2636691.34849  -1955921.29847  20485973.387    20485971.962    20485981.344
       242.000         204.000
 01 12  3 16 52 59.9970000  0  8G20G13G27G 4G 1G25G 3G22
    464609.86449    368856.40947  20586658.863    20586657.586    20586666.800
       242.000         201.000
 -13827965.16149 -10758731.17547  20811862.073    20811861.890    20811870.041
       240.000         197.000
 -13893947.71949 -10792901.51147  22303832.512    22303831.792    22303843.089
       230.000         188.000
  -4783835.01449  -3715397.70945  23793966.664    23793965.991    23793979.119
       214.000         154.000
  -8600472.45449  -6686201.11447  19683928.410    19683927.519    19683935.702
       240.000         208.000
   4527206.08849   3521085.01545  24384720.273    24384718.709    24384736.013
       217.000         154.000
  -6125167.33049  -4461259.11345  23623494.552    23623493.754    23623511.587
       214.000         145.000
  -2620117.24049  -1943006.54447  20489127.439    20489125.996    20489135.385
       241.000         203.000
 01 12  3 16 53 29.9970000  0  8G20G13G27G 4G 1G25G 3G22
    499687.20949    396189.27847  20593333.939    20593332.678    20593341.875
       242.000         200.000
 -13935420.93249 -10842462.94347  20791413.945    20791413.733    20791421.880
       241.000         197.000
 -14001801.36249 -10876943.28446  22283308.620    22283307.930    22283319.227
       230.000         187.000
  -4794736.35549  -3723892.42845  23791892.372    23791891.653    23791904.802
       214.000         151.000
  -8656952.58949  -6730211.66647  19673180.676    19673179.756    19673187.941
       239.000         208.000
   4565090.22449   3550604.80345  24391929.618    24391928.062    24391945.362
       213.000         149.000
  -6239284.33549  -4550181.44345  23601778.804    23601778.071    23601795.802
       213.000         146.000
  -2603005.41649  -1929672.80247  20492383.818    20492382.361    20492391.767
       241.000         203.000
 01 12  3 16 53 59.9970000  0  8G20G13G27G 4G 1G25G 3G22
    535202.92249    423863.72647  20600092.444    20600091.199    20600100.366
       242.000         200.000
 -14042700.05649 -10926057.06047  20770999.427    20770999.204    20771007.354
       240.000         198.000
 -14109468.00249 -10960839.34947  22262820.281    22262819.604    22262830.956
       229.000         188.000
  -4805219.91349  -3732061.59245  23789897.497    23789896.822    23789909.989
       211.000         151.000
  -8713136.95649  -6773991.75047  19662489.174    19662488.263    19662496.465
       239.000         208.000
   4602948.91349   3580104.78045  24399133.859    24399132.571    24399149.866
       215.000         148.000
  -6353249.48649  -4638985.40445  23580091.955    23580091.217    23580108.822
       212.000         145.000
  -2585338.95449  -1915906.88247  20495745.706    20495744.260    20495753.686
       241.000         203.000
 01 12  3 16 54 29.9970000  0  8G20G13G27G 4G 1G25G 3G22
    571135.64549    451863.11647  20606930.366    20606929.088    20606938.231
       241.000         199.000
 -14149820.39549 -11009527.44547  20750615.058    20750614.875    20750623.045
       241.000         198.000
 -14216966.75149 -11044604.60547  22242363.929    22242363.254    22242374.721
       230.000         189.000
  -4815306.91849  -3739921.77945  23787978.101    23787977.449    23787990.699
       213.000         153.000
  -8769043.36349  -6817555.23747  19651850.580    19651849.666    19651857.886
       239.000         208.000
   4640762.43649   3609569.54545  24406329.872    24406328.457    24406345.747
       214.000         151.000
  -6467078.55949  -4727683.24045  23558431.003    23558430.201    23558447.849
       212.000         146.000
  -2567139.15049  -1901725.36847  20499209.136    20499207.669    20499217.113
       241.000         203.000
 01 12  3 16 54 59.9970000  0  8G20G13G27G 4G 1G25G 3G22
    607489.70249    480190.81447  20613848.484    20613847.173    20613856.291
       242.000         200.000
 -14256773.53149 -11092867.55147  20730262.553    20730262.363    20730270.549
       241.000         198.000
 -14324290.67749 -11128233.60747  22221940.875    22221940.186    22221951.759
       230.000         189.000
  -4824992.41449  -3747469.08045  23786135.148    23786134.523    23786147.787
       212.000         152.000
  -8824663.75049  -6860895.85347  19641266.362    19641265.489    19641273.737
       239.000         208.000
   4678537.78349   3639004.51145  24413518.494    24413517.118    24413534.369
       213.000         143.000
  -6580761.67849  -4816267.32145  23536797.880    23536797.015    23536814.806
       211.000         145.000
  -2548401.43249  -1887124.70247  20502774.892    20502773.439    20502782.897
       241.000         202.000
 01 12  3 16 55 29.9970000  0  8G20G13G27G 4G 1G25G 3G22
    644250.32049    508835.31647  20620843.911    20620842.607    20620851.752
       241.000         199.000
 -14363570.33049 -11176085.83247  20709939.786    20709939.602    20709947.812
       241.000         198.000
 -14431452.49749 -11211736.30147  22201548.699    22201548.003    22201559.552
       231.000         188.000
  -4834291.04549  -3754714.90045  23784365.842    23784365.136    23784378.516
       216.000         155.000
  -8880009.43549  -6904022.40847  19630734.466    19630733.585    19630741.860
       239.000         208.000
   4716261.35749   3668399.15845  24420697.306    24420695.975    24420713.235
       212.000         139.000
  -6694308.81149  -4904745.39045  23515190.446    23515189.645    23515207.537
       209.000         145.000
  -2529140.83449  -1872116.60147  20506440.188    20506438.711    20506448.187
       240.000         202.000
 01 12  3 16 55 59.9970000  0  7G20G13G27G 4G 1G 3G22
    681413.58849    537793.56847  20627915.973    20627914.658    20627923.838
       241.000         199.000
 -14470211.21149 -11259182.61747  20689646.677    20689646.521    20689654.740
       240.000         198.000
 -14538453.90049 -11295113.98147  22181186.969    22181186.298    22181197.851
       231.000         188.000
  -4843206.63649  -3761662.29845  23782669.298    23782668.669    23782682.086
       212.000         150.000
  -8935080.80149  -6946935.21547  19620254.771    19620253.899    19620262.195
       239.000         208.000
  -6807718.22849  -4993116.15845  23493609.216    23493608.443    23493626.398
       208.000         145.000
  -2509361.32449  -1856704.15147  20510204.185    20510202.720    20510212.232
       240.000         202.000
 01 12  3 16 56 29.9970000  0  7G20G13G27G 4G 1G 3G22
    718990.73249    567074.32247  20635066.780    20635065.469    20635074.674
       241.000         199.000
 -14576681.19549 -11342146.24347  20669386.116    20669385.938    20669394.205
       241.000         199.000
 -14645281.23249 -11378356.01547  22160858.329    22160857.708    22160869.247
       231.000         188.000
  -4851727.42149  -3768302.00745  23781047.927    23781047.290    23781060.772
       210.000         151.000
  -8989863.10049  -6989622.77247  19609830.083    19609829.219    19609837.519
       239.000         208.000
  -6920973.24049  -5081366.54845  23472057.198    23472056.709    23472074.723
       211.000         148.000
  -2489051.54249  -1840878.49947  20514069.073    20514067.643    20514077.197
       240.000         202.000
 01 12  3 16 56 59.9970000  0  7G20G13G27G 4G 1G 3G22
    756980.01649    596676.21647  20642295.981    20642294.697    20642303.946
       241.000         199.000
 -14682978.04249 -11424974.96447  20649158.496    20649158.321    20649166.606
       242.000         199.000
 -14751933.92149 -11461461.96847  22140562.913    22140562.334    22140573.902
       231.000         188.000
  -4859854.86549  -3774635.28445  23779501.478    23779500.803    23779514.315
       215.000         155.000
  -9044354.31749  -7032083.51847  19599460.790    19599459.919    19599468.231
       239.000         207.000
  -7034070.18449  -5169493.75445  23450535.578    23450535.029    23450553.119
       210.000         147.000
  -2468213.32749  -1824641.08047  20518034.572    20518033.126    20518042.735
       240.000         203.000
 01 12  3 16 57 29.9960000  0  7G20G13G27G 4G 1G 3G22
    795368.69849    626589.32547  20649601.190    20649599.932    20649609.196
       241.000         199.000
 -14789105.60249 -11507671.77147  20628963.059    20628962.927    20628971.207
       242.000         199.000
 -14858417.38149 -11544436.06147  22120299.703    22120299.161    22120310.762
       232.000         189.000
  -4867600.17349  -3780670.74245  23778027.832    23778027.115    23778040.612
       215.000         157.000
  -9098560.59749  -7074322.23347  19589145.742    19589144.845    19589153.176
       239.000         208.000
  -7147011.41949  -5257499.66945  23429043.394    23429042.928    23429060.986
       208.000         148.000
  -2446858.78749  -1808001.32847  20522098.333    20522096.859    20522106.518
       240.000         202.000
 01 12  3 16 57 59.9960000  0  7G20G13G27G 4G 1G 3G22
    834181.75649    656833.12747  20656987.188    20656985.912    20656995.202
       241.000         199.000
 -14895044.79249 -11590221.79847  20608803.536    20608803.384    20608811.662
       242.000         199.000
 -14964714.11549 -11627264.64047  22100072.101    22100071.544    22100083.149
       233.000         188.000
  -4874941.03549  -3786391.07145  23776631.084    23776630.345    23776643.986
       216.000         160.000
  -9152459.62949  -7116321.52647  19578889.167    19578888.245    19578896.602
       239.000         207.000
  -7259776.58449  -5345368.38145  23407584.653    23407584.252    23407602.333
       207.000         147.000
  -2424964.42749  -1790940.93347  20526264.768    20526263.318    20526273.020
       240.000         201.000
 01 12  3 16 58 29.9960000  0  7G20G13G27G 4G 1G 3G22
    873474.08249    687450.37847  20664464.413    20664463.127    20664472.404
       241.000         199.000
 -15000731.98449 -11672575.47047  20588691.987    20588691.801    20588700.064
       242.000         200.000
 -15070761.76449 -11709899.13047  22079891.904    22079891.345    22079902.953
       233.000         188.000
  -4881820.57249  -3791751.92045  23775322.141    23775321.367    23775335.005
       216.000         154.000
  -9205989.46049  -7158033.13747  19568702.779    19568701.894    19568710.283
       239.000         207.000
  -7372300.13449  -5433048.84845  23386171.891    23386171.636    23386189.658
       209.000         148.000
  -2402474.39849  -1773416.38947  20530544.539    20530543.117    20530552.858
       240.000         201.000
 01 12  3 16 58 59.9960000  0  7G20G13G27G 4G 1G 3G22
    913156.94549    718371.93947  20672015.962    20672014.648    20672023.938
       241.000         199.000
 -15106251.64649 -11754798.58347  20568612.232    20568612.055    20568620.364
       242.000         200.000
 -15176646.57249 -11792406.73647  22059742.640    22059742.090    22059753.678
       231.000         188.000
  -4888327.11049  -3796822.09745  23774084.021    23774083.332    23774097.053
       219.000         157.000
  -9259235.07249  -7199523.27947  19558570.513    19558569.622    19558578.022
       239.000         207.000
  -7484665.18949  -5520605.84845  23364789.401    23364789.099    23364807.177
       208.000         148.000
  -2379477.51549  -1755496.88647  20534920.809    20534919.362    20534929.167
       240.000         201.000
 01 12  3 16 59 29.9960000  0  7G20G13G27G 4G 1G 3G22
    953240.34849    749605.61847  20679643.745    20679642.386    20679651.707
       241.000         199.000
 -15211590.08049 -11836880.49747  20548567.016    20548566.827    20548575.132
       242.000         200.000
 -15282356.34949 -11874777.94446  22039626.579    22039626.119    22039637.696
       232.000         187.000
  -4894450.67749  -3801593.89245  23772918.955    23772918.203    23772931.876
       218.000         156.000
  -9312183.11349  -7240781.54747  19548494.823    19548493.966    19548502.387
       239.000         206.000
  -7596856.49349  -5608027.48345  23343440.081    23343439.737    23343457.703
       207.000         150.000
  -2355963.87349  -1737174.70947  20539395.424    20539393.962    20539403.835
       240.000         202.000
 01 12  3 16 59 59.9960000  0  7G20G13G27G 4G 1G 3G22
    993730.16049    781155.97347  20687348.808    20687347.445    20687356.805
       240.000         199.000
 -15316737.60449 -11918813.65047  20528558.122    20528557.952    20528566.236
       243.000         200.000
 -15387882.77649 -11957006.29747  22019545.630    22019545.100    22019556.607
       233.000         189.000
  -4900184.96049  -3806062.30245  23771827.826    23771827.116    23771840.771
       217.000         160.000
  -9364824.08049  -7281800.53647  19538477.614    19538476.761    19538485.190
       239.000         207.000
  -7708862.69349  -5695304.93945  23322125.730    23322125.467    23322143.485
       206.000         150.000
  -2331927.58049  -1718445.27747  20543969.549    20543968.037    20543977.957
       240.000         201.000
 01 12  3 17  0 29.9960000  0  7G20G13G27G 4G 1G 3G22
   1034593.57149    812997.44847  20695124.897    20695123.576    20695133.009
       240.000         199.000
 -15421722.90849 -12000620.40047  20508580.136    20508579.933    20508588.210
       243.000         200.000
 -15493256.22749 -12039115.44847  21999493.799    21999493.206    21999504.649
       234.000         189.000
  -4905562.46449  -3810252.76045  23770804.614    23770803.959    23770817.638
       215.000         153.000
  -9417186.95049  -7322602.82547  19528513.327    19528512.477    19528520.923
       239.000         207.000
  -7820711.02549  -5782459.42845  23300841.542    23300841.295    23300859.338
       207.000         150.000
  -2307401.57449  -1699334.24747  20548636.846    20548635.288    20548645.267
       240.000         201.000
 01 12  3 17  0 59.9960000  0  8G20G13G27G 4G 1G 3G31G22
   1075851.63149    845146.43047  20702976.142    20702974.824    20702984.300
       240.000         200.000
 -15526520.72449 -12082281.06147  20488637.819    20488637.597    20488645.863
       242.000         200.000
 -15598453.30649 -12121087.18047  21979475.519    21979474.873    21979486.276
       234.000         189.000
  -4910561.96149  -3814148.55845  23769853.350    23769852.740    23769866.405
       215.000         154.000
  -9469246.93249  -7363169.09947  19518606.709    19518605.839    19518614.302
       239.000         207.000
  -7932375.16749  -5869470.46845  23279592.409    23279592.131    23279610.263
       208.000         151.000
  -3092169.83359  -2078143.56054  24199500.551    24199499.799    24199520.792
       200.000         124.000
  -2282364.82949  -1679825.24247  20553401.291    20553399.728    20553409.761
       239.000         201.000
 01 12  3 17  1 29.9960000  0  8G20G13G27G 4G 1G 3G31G22
   1117500.02549    877599.56947  20710901.667    20710900.358    20710909.858
       240.000         200.000
 -15631131.74949 -12163796.15847  20468731.013    20468730.789    20468739.050
       242.000         200.000
 -15703475.90549 -12202922.94847  21959490.406    21959489.739    21959501.098
       234.000         190.000
  -4915187.41949  -3817753.01045  23768973.264    23768972.656    23768986.411
       220.000         157.000
  -9521004.59649  -7403499.79247  19508757.595    19508756.732    19508765.202
       239.000         207.000
  -8043853.87649  -5956337.05445  23258378.749    23258378.307    23258396.407
       208.000         152.000
  -3223161.76249  -2180215.13744  24174573.415    24174572.880    24174593.861
       203.000         130.000
  -2256821.64449  -1659921.61047  20558262.054    20558260.538    20558270.627
       239.000         201.000
 01 12  3 17  1 59.9960000  0  8G20G13G27G 4G 1G 3G31G22
   1159528.33949    910348.75247  20718899.539    20718898.209    20718907.720
       240.000         200.000
 -15735562.23249 -12245170.57947  20448858.581    20448858.346    20448866.614
       243.000         201.000
 -15808331.83349 -12284628.85847  21939536.924    21939536.288    21939547.625
       234.000         189.000
  -4919448.83949  -3821073.71445  23768162.487    23768161.913    23768175.704
       216.000         155.000
  -9572466.61949  -7443600.11947  19498964.751    19498963.882    19498972.369
       239.000         207.000
  -8155151.65449  -6043062.69045  23237199.447    23237199.059    23237216.950
       211.000         154.000
  -3354281.62349  -2282386.45144  24149621.430    24149621.451    24149642.608
       201.000         131.000
  -2230782.52249  -1639631.53847  20563217.246    20563215.714    20563225.863
       239.000         200.000
 01 12  3 17  2 29.9960000  0  8G20G13G27G 4G 1G 3G31G22
   1201936.81449    943394.15647  20726969.683    20726968.377    20726977.932
       240.000         199.000
 -15839807.60049 -12326400.75447  20429021.390    20429021.127    20429029.390
       242.000         200.000
 -15913018.57849 -12366202.93147  21919615.665    21919615.046    21919626.339
       233.000         189.000
  -4923345.97749  -3824110.60545  23767420.955    23767420.433    23767434.281
       218.000         162.000
  -9623629.30949  -7483467.19847  19489228.869    19489227.999    19489236.489
       239.000         207.000
  -8266262.67049  -6129642.82645  23216055.677    23216055.277    23216073.093
       211.000         155.000
  -3485524.11149  -2384653.36345  24124646.445    24124646.474    24124667.964
       207.000         132.000
  -2204247.16349  -1618954.79047  20568266.884    20568265.347    20568275.525
       239.000         200.000
 01 12  3 17  2 59.9960000  0  8G20G13G27G 4G 1G 3G31G22
   1244716.22649    976728.60547  20735110.414    20735109.125    20735118.727
       240.000         199.000
 -15943872.89549 -12407490.61647  20409218.383    20409218.155    20409226.436
       243.000         201.000
 -16017543.25949 -12447650.73747  21899725.276    21899724.657    21899735.920
       234.000         190.000
  -4926888.09649  -3826870.87845  23766747.012    23766746.489    23766760.370
       218.000         159.000
  -9674498.29049  -7523105.41847  19479548.883    19479548.000    19479556.518
       239.000         208.000
  -8377191.00549  -6216080.62445  23194946.661    23194946.337    23194964.130
       211.000         156.000
  -3616893.21649  -2487018.99144  24099647.767    24099647.693    24099668.978
       208.000         131.000
  -2177225.23849  -1597898.91247  20573409.089    20573407.547    20573417.765
       238.000         198.000
 01 12  3 17  3 29.9960000  0  8G20G13G27G 4G 1G 3G31G22
   1287875.11849   1010358.75047  20743323.331    20743322.072    20743331.766
       239.000         199.000
 -16047746.04449 -12488430.75047  20389452.001    20389451.779    20389460.028
       243.000         201.000
 -16121894.46849 -12528963.36047  21879867.922    21879867.313    21879878.568
       233.000         191.000
  -4930065.93049  -3829347.27045  23766142.509    23766141.907    23766155.821
       213.000         151.000
  -9725060.96849  -7562504.95747  19469927.180    19469926.289    19469934.827
       239.000         207.000
  -8487922.25349  -6302364.86745  23173875.248    23173874.907    23173892.656
       213.000         157.000
  -3748375.12449  -2589472.49145  24074627.463    24074627.451    24074648.676
       207.000         134.000
  -2149707.94549  -1576457.03247  20578645.516    20578644.004    20578654.275
       238.000         198.000
 01 12  3 17  3 59.9960000  0  8G20G13G27G 4G 1G 3G31G22
   1331411.18249   1044282.79347  20751608.044    20751606.802    20751616.590
       238.000         199.000
 -16151425.05649 -12569219.60847  20369722.551    20369722.338    20369730.572
       242.000         201.000
 -16226072.05249 -12610140.70947  21860043.661    21860042.990    21860054.200
       233.000         191.000
  -4932881.51749  -3831541.39345  23765606.860    23765606.227    23765620.183
       203.000         137.000
  -9775315.83449  -7601664.64547  19460363.975    19460363.149    19460371.694
       238.000         207.000
  -8598453.13849  -6388492.97845  23152842.134    23152841.619    23152859.316
       215.000         158.000
  -3879966.76549  -2692011.42845  24049586.086    24049586.204    24049607.570
       207.000         132.000
  -2121697.63849  -1554630.98447  20583975.734    20583974.293    20583984.624
       237.000         198.000
 01 12  3 17  4 29.9960000  0  8G20G13G27G 4G 1G 3G31G22
   1375313.47249   1078492.20247  20759962.498    20759961.247    20759971.105
       239.000         198.000
 -16254916.58049 -12649862.36847  20350028.778    20350028.547    20350036.801
       242.000         201.000
 -16330084.39949 -12691189.30347  21840250.752    21840250.097    21840261.301
       233.000         191.000
  -4935345.65349  -3833461.69444  23765138.018    23765137.292    23765151.565
       199.000         129.000
  -9825270.21249  -7640590.19047  19450857.983    19450857.172    19450865.730
       239.000         207.000
  -8708788.93549  -6474469.03045  23131846.077    23131845.478    23131863.147
       217.000         159.000
  -4011673.68849  -2794640.18645  24024523.112    24024523.190    24024544.518
       209.000         134.000
  -2093205.26049  -1532429.31047  20589397.822    20589396.330    20589406.701
       238.000         198.000
 01 12  3 17  4 59.9960000  0  8G20G13G27G 4G 1G 3G31G22
   1419590.37149   1112993.51447  20768388.279    20768386.988    20768396.889
       239.000         198.000
 -16358208.31949 -12730349.45647  20330373.009    20330372.796    20330381.048
       242.000         200.000
 -16433920.67549 -12772100.69947  21820491.329    21820490.725    21820501.877
       233.000         191.000
  -4937449.67848  -3835101.37344  23764737.635    23764738.547    23764753.327
       179.000         103.000
  -9874911.86949  -7679272.05747  19441411.554    19441410.721    19441419.281
       239.000         207.000
  -8818915.63849  -6560282.12145  23110889.823    23110889.140    23110906.752
       215.000         159.000
  -4143482.27149  -2897348.12845  23999440.915    23999440.793    23999461.891
       206.000         135.000
  -2064222.50649  -1509845.52047  20594913.160    20594911.692    20594922.083
       237.000         197.000
 01 12  3 17  5 29.9960000  0  8G20G13G27G 4G 1G 3G31G22
   1464230.12649   1147777.57747  20776883.099    20776881.762    20776891.715
       239.000         197.000
 -16461307.83149 -12810686.75147  20310753.810    20310753.621    20310761.861
       242.000         200.000
 -16537590.18249 -12852882.14347  21800763.698    21800763.069    21800774.152
       234.000         191.000
                  -3836469.15454  23764403.749
       173.000          96.000
  -9924248.78449  -7717716.45847  19432023.091    19432022.260    19432030.823
       239.000         207.000
  -8928839.51749  -6645937.11145  23089972.043    23089971.329    23089988.982
       215.000         159.000
  -4275398.79149  -3000140.05045  23974337.614    23974337.658    23974358.879
       205.000         138.000
  -2034761.25049  -1486888.87747  20600519.567    20600518.101    20600528.525
       237.000         197.000
 01 12  3 17  5 59.9960000  0  8G20G13G27G 4G 1G 3G31G22
   1509207.13349   1182824.42747  20785442.000    20785440.709    20785450.735
       238.000         197.000
 -16564236.52549 -12890890.93947  20291167.165    20291166.950    20291175.192
       242.000         200.000
 -16641116.08849 -12933551.69347  21781063.473    21781062.778    21781073.817
       234.000         191.000
                  -3837584.93553  23764131.441
       177.000          89.000
  -9973302.92349  -7755940.51647  19422688.496    19422687.625    19422696.177
       240.000         207.000
  -9038580.52849  -6731449.55545  23069089.107    23069088.348    23069106.057
       217.000         160.000
  -4407443.29049  -3103031.60245  23949210.066    23949210.199    23949231.601
       207.000         141.000
  -2004847.00449  -1463579.25447  20606212.250    20606210.727    20606221.165
       237.000         196.000
 01 12  3 17  6 29.9960000  0  7G20G13G27G 1G 3G31G22
   1554518.31549   1218131.67447  20794064.564    20794063.253    20794073.322
       238.000         197.000
 -16666993.29849 -12970961.16047  20271613.197    20271612.999    20271621.235
       241.000         201.000
 -16744499.02249 -13014109.83147  21761390.399    21761389.684    21761400.747
       234.000         192.000
 -10022073.53349  -7793943.64847  19413407.880    19413406.955    19413415.481
       240.000         208.000
  -9148135.97349  -6816817.32645  23048241.390    23048240.664    23048258.367
       215.000         161.000
  -4539613.75349  -3206021.25045  23924058.815    23924058.882    23924080.328
       205.000         141.000
  -1974483.05149  -1439919.20647  20611990.442    20611988.921    20611999.389
       237.000         196.000
 01 12  3 17  6 59.9960000  0  7G20G13G27G 1G 3G31G22
   1600190.69849   1253720.36847  20802755.847    20802754.547    20802764.674
       237.000         196.000
 -16769546.83849 -13050873.02847  20252097.944    20252097.736    20252105.952
       242.000         201.000
 -16847709.23849 -13094533.39547  21741750.207    21741749.455    21741760.503
       233.000         191.000
 -10070529.85449  -7831701.88047  19404187.029    19404186.096    19404194.614
       240.000         208.000
  -9257473.24249  -6902015.03045  23027435.085    23027434.460    23027452.218
       217.000         160.000
  -4671877.88949  -3309083.79945  23898889.540    23898889.701    23898911.176
       202.000         142.000
  -1943642.28849  -1415887.62047  20617859.360    20617857.851    20617868.358
       237.000         196.000
 01 12  3 17  7 29.9960000  0  7G20G13G27G 1G 3G31G22
   1646199.38149   1289571.12047  20811511.233    20811509.866    20811520.000
       238.000         196.000
 -16871917.91549 -13130642.70847  20232617.340    20232617.179    20232625.381
       241.000         201.000
 -16950769.34949 -13174839.99247  21722138.468    21722137.742    21722148.819
       234.000         191.000
 -10118693.09949  -7869231.74047  19395021.901    19395020.978    19395029.524
       240.000         208.000
  -9366611.65249  -6987057.73145  23006666.702    23006666.090    23006683.856
       218.000         160.000
  -4804254.91649  -3412234.21745  23873698.635    23873698.866    23873720.488
       206.000         142.000
  -1912349.69349  -1391503.95547  20623814.288    20623812.746    20623823.322
       236.000         196.000
 01 12  3 17  7 59.9960000  0  7G20G13G27G 1G 3G31G22
   1692556.61949   1325693.46947  20820332.913    20820331.504    20820341.657
       238.000         195.000
 -16974089.96049 -13210257.30447  20213174.666    20213174.498    20213182.700
       242.000         201.000
 -17053664.55549 -13255018.07547  21702558.127    21702557.402    21702568.470
       234.000         190.000
 -10166546.86349  -7906520.45147  19385915.673    19385914.760    19385923.321
       240.000         208.000
  -9475533.26249  -7071931.46745  22985939.540    22985938.958    22985956.751
       218.000         159.000
  -4936727.44949  -3515459.03745  23848489.871    23848489.939    23848511.602
       204.000         145.000
  -1880593.17749  -1366758.79547  20629857.515    20629855.948    20629866.562
       237.000         196.000
 01 12  3 17  8 29.9960000  0  7G20G13G27G 1G 3G31G22
   1739259.59949   1362085.22947  20829220.275    20829218.912    20829229.119
       237.000         194.000
 -17076061.60449 -13289715.73547  20193770.171    20193769.951    20193778.147
       242.000         201.000
 -17156395.22949 -13335067.95047  21683009.116    21683008.403    21683019.370
       234.000         190.000
 -10214090.29649  -7943567.34047  19376868.480    19376867.587    19376876.181
       239.000         208.000
  -9584235.48749  -7156634.22945  22965254.087    22965253.531    22965271.306
       219.000         160.000
  -5069292.77449  -3618756.16345  23823263.478    23823263.406    23823285.011
       203.000         143.000
  -1848375.67249  -1341654.40847  20635988.431    20635986.873    20635997.540
       236.000         196.000
 01 12  3 17  8 59.9960000  0  7G20G13G27G 1G 3G31G22
   1786337.63749   1398769.23547  20838178.957    20838177.659    20838187.905
       236.000         193.000
 -17177799.41249 -13368991.95347  20174410.158    20174409.906    20174418.104
       242.000         201.000
 -17258929.52749 -13414964.80947  21663497.528    21663496.792    21663507.698
       235.000         191.000
 -10261290.34049  -7980346.65347  19367886.638    19367885.761    19367894.373
       239.000         208.000
  -9692683.27349  -7241138.70845  22944617.072    22944616.552    22944634.351
       219.000         160.000
  -5201916.32449  -3722098.62845  23798025.607    23798025.640    23798047.302
       197.000         142.000
  -1815667.81549  -1316167.92747  20642212.648    20642211.103    20642221.823
       236.000         196.000
 01 12  3 17  9 29.9960000  0  7G20G13G27G 1G 3G31G22
   1833710.14349   1435682.69647  20847193.818    20847192.475    20847202.756
       236.000         193.000
 -17279379.69449 -13448145.43047  20155080.068    20155079.835    20155088.011
       241.000         200.000
 -17361345.28949 -13494769.29447  21644008.400    21644007.719    21644018.692
       234.000         193.000
 -10308223.50449  -8016918.01047  19358955.606    19358954.721    19358963.356
       239.000         207.000
  -9800951.33549  -7325503.12945  22924014.244    22924013.784    22924031.577
       217.000         160.000
  -5334673.20349  -3825545.00345  23772762.284    23772762.456    23772784.222
       207.000         142.000
  -1782550.05349  -1290362.03547  20648514.825    20648513.321    20648524.080
       237.000         196.000
 01 12  3 17  9 59.9960000  0  7G20G13G27G 1G 3G31G22
   1881427.08549   1472864.55247  20856274.217    20856272.857    20856283.141
       237.000         193.000
 -17380748.14549 -13527133.84047  20135790.270    20135790.053    20135798.212
       241.000         200.000
 -17463590.01749 -13574440.51547  21624551.840    21624551.201    21624562.258
       234.000         193.000
 -10354836.08649  -8053239.55647  19350085.562    19350084.687    19350093.323
       239.000         207.000
  -9908984.08949  -7409684.18845  22903456.175    22903455.724    22903473.533
       218.000         158.000
  -5467507.72249  -3929051.93845  23747484.607    23747484.650    23747506.343
       204.000         144.000
  -1748972.46549  -1264197.82747  20654904.588    20654903.049    20654913.858
       236.000         196.000
 01 12  3 17 10 29.9960000  0  7G20G13G27G 1G 3G31G22
   1929470.66349   1510300.92547  20865416.843    20865415.412    20865425.702
       238.000         193.000
 -17481917.99049 -13605967.49247  20116538.258    20116538.061    20116546.223
       241.000         200.000
 -17565679.19549 -13653990.52247  21605124.879    21605124.258    21605135.394
       234.000         193.000
 -10401142.34149  -8089322.40647  19341273.826    19341272.951    19341281.574
       239.000         208.000
 -10016793.98149  -7493691.57545  22882940.277    22882940.007    22882957.827
       216.000         156.000
  -5600432.56049  -4032629.29745  23722189.377    23722189.674    23722211.201
       200.000         142.000
  -1714953.30849  -1237689.53247  20661378.317    20661376.792    20661387.667
       237.000         196.000
 01 12  3 17 10 59.9960000  0  7G20G13G27G 1G 3G31G22
   1977858.63649   1548005.65547  20874624.917    20874623.486    20874633.805
       237.000         194.000
 -17582867.37749 -13684629.35747  20097328.246    20097328.033    20097336.167
       241.000         201.000
 -17667592.50649 -13733403.48147  21585731.450    21585730.810    21585741.946
       235.000         192.000
 -10447120.73349  -8125149.77347  19332524.449    19332523.596    19332532.244
       239.000         207.000
 -10124357.79849  -7577507.24145  22862471.267    22862471.133    22862488.888
       216.000         155.000
  -5733424.53149  -4136258.95545  23696881.572    23696881.730    23696903.361
       202.000         139.000
  -1680474.85649  -1210823.35347  20667939.440    20667937.950    20667948.874
       236.000         197.000
 01 12  3 17 11 29.9960000  0  7G20G13G27G 1G 3G31G22
   2026590.97949   1585978.71947  20883898.484    20883897.068    20883907.473
       236.000         193.000
 -17683592.15749 -13763116.20447  20078160.960    20078160.762    20078168.872
       241.000         201.000
 -17769327.15649 -13812677.21847  21566372.048    21566371.367    21566382.448
       235.000         192.000
 -10492767.22249  -8160718.52147  19323838.242    19323837.392    19323846.080
       239.000         207.000
 -10231669.66649  -7661126.57545  22842050.348    22842050.229    22842067.824
       216.000         155.000
  -5866477.73949  -4239936.39545  23671562.209    23671562.313    23671583.849
       200.000         139.000
  -1645537.07449  -1183599.25147  20674588.022    20674586.509    20674597.488
       237.000         197.000
 01 12  3 17 11 59.9960000  0  7G20G13G27G 1G 3G31G22
   2075635.23249   1624194.83247  20893231.404    20893229.980    20893240.482
       236.000         192.000
 -17784120.23949 -13841449.78047  20059031.121    20059030.909    20059039.021
       241.000         201.000
 -17870912.97149 -13891834.97447  21547040.924    21547040.248    21547051.293
       235.000         194.000
 -10538110.24749  -8196050.79947  19315209.810    19315208.953    19315217.657
       239.000         208.000
 -10338756.23049  -7744570.34245  22821672.273    22821672.173    22821689.715
       215.000         155.000
  -5999619.18449  -4343682.63145  23646225.809    23646225.929    23646247.473
       198.000         139.000
  -1610172.26849  -1156042.39747  20681317.859    20681316.327    20681327.362
       236.000         196.000
 01 12  3 17 12 29.9960000  0  7G20G13G27G 1G 3G31G22
   2124982.52849   1662647.07147  20902621.933    20902620.559    20902631.157
       236.000         193.000
 -17884456.30949 -13919633.73947  20039937.812    20039937.605    20039945.718
       242.000         202.000
 -17972356.62449 -13970881.95747  21527736.867    21527736.169    21527747.248
       234.000         194.000
 -10583155.12549  -8231150.75547  19306638.151    19306637.249    19306645.968
       240.000         208.000
 -10445620.74349  -7827841.13345  22801336.473    22801336.357    22801353.778
       215.000         155.000
  -6132852.49849  -4447500.49145  23620871.583    23620872.045    23620893.676
       200.000         139.000
  -1574389.79849  -1128160.09247  20688127.136    20688125.630    20688136.706
       235.000         196.000
 01 12  3 17 12 59.9960000  0  7G20G13G27G 1G 3G31G22
   2174666.23049   1701361.44247  20912076.505    20912075.170    20912085.837
       236.000         193.000
 -17984562.79349 -13997638.80347  20020888.219    20020887.990    20020896.114
       241.000         202.000
 -18073622.08649 -14049790.09247  21508466.646    21508465.980    21508477.136
       234.000         194.000
 -10627864.59649  -8265989.34747  19298130.260    19298129.368    19298138.113
       239.000         208.000
 -10552224.29749  -7910908.57945  22781050.306    22781050.223    22781067.619
       216.000         155.000
  -6266138.63949  -4551359.57245  23595507.799    23595508.289    23595529.785
       203.000         142.000
  -1538156.14949  -1099926.20947  20695022.274    20695020.788    20695031.883
       235.000         196.000
 01 12  3 17 13 29.9960000  0  7G20G13G27G 1G 3G31G22
   2224675.89549   1740329.80147  20921593.236    20921591.845    20921602.526
       235.000         192.000
 -18084445.81349 -14075469.74447  20001881.089    20001880.889    20001889.029
       241.000         203.000
 -18174717.39049 -14128565.64447  21489228.798    21489228.171    21489239.383
       235.000         194.000
 -10672245.25149  -8300571.72247  19289684.925    19289684.063    19289692.828
       239.000         208.000
 -10658571.67349  -7993776.41545  22760812.886    22760812.834    22760830.229
       216.000         155.000
  -6399482.39849  -4655263.59445  23570133.274    23570133.649    23570155.001
       199.000         140.000
  -1501481.80549  -1071348.94547  20702001.282    20701999.784    20702010.920
       235.000         196.000
 01 12  3 17 13 59.9960000  0  7G20G13G27G 1G 3G31G22
   2274994.39249   1779538.80847  20931168.665    20931167.301    20931177.963
       235.000         192.000
 -18184117.68949 -14153136.15647  19982914.169    19982913.963    19982922.129
       241.000         203.000
 -18275656.81049 -14207219.72147  21470020.676    21470020.059    21470031.285
       235.000         195.000
 -10716310.10049  -8334908.01847  19281299.649    19281298.835    19281307.623
       239.000         207.000
 -10764674.00849  -8076453.31745  22740622.051    22740622.033    22740639.441
       214.000         154.000
  -6532895.22349  -4759221.44445  23544745.242    23544745.621    23544767.060
       204.000         141.000
  -1464383.87949  -1042441.62147  20709060.902    20709059.398    20709070.568
       235.000         195.000
 01 12  3 17 14 29.9960000  0  7G20G13G27G 1G 3G31G22
   2325634.87949   1818998.72447  20940805.412    20940804.029    20940814.701
       235.000         192.000
 -18283561.06249 -14230624.50447  19963990.698    19963990.514    19963998.719
       241.000         203.000
 -18376424.75149 -14285740.17347  21450845.226    21450844.561    21450855.749
       234.000         194.000
 -10760042.27549  -8368985.08247  19272977.737    19272976.898    19272985.720
       239.000         207.000
 -10870512.68249  -8158924.79745  22720481.373    22720481.426    22720498.738
       214.000         152.000
  -6666358.32449  -4863218.56145  23519348.128    23519348.275    23519369.580
       209.000         146.000
  -1426849.40749  -1013194.14047  20716203.635    20716202.070    20716213.291
       234.000         195.000
 01 12  3 17 14 59.9950000  0  7G20G13G27G 1G 3G31G22
   2376600.54849   1858712.02047  20950503.990    20950502.606    20950513.339
       235.000         192.000
 -18382763.35149 -14307925.00147  19945113.164    19945112.958    19945121.194
       241.000         204.000
 -18477010.28849 -14364118.48747  21431704.426    21431703.770    21431714.888
       235.000         194.000
 -10803431.69349  -8402795.06947  19264721.048    19264720.215    19264729.049
       239.000         208.000
 -10976073.55749  -8241179.81445  22700393.632    22700393.630    22700410.822
       212.000         152.000
  -6799856.70249  -4967243.21145  23493944.213    23493944.292    23493965.394
       208.000         146.000
  -1388874.83949   -983603.73947  20723430.081    20723428.511    20723439.774
       234.000         195.000
 01 12  3 17 15 29.9950000  0  7G20G13G27G 1G 3G31G22
   2427850.63649   1898646.94247  20960256.618    20960255.309    20960266.085
       234.000         192.000
 -18481770.97149 -14385073.80047  19926272.636    19926272.448    19926280.723
       241.000         204.000
 -18577461.90949 -14442392.45547  21412589.145    21412588.465    21412599.559
       235.000         194.000
 -10846521.58049  -8436371.65647  19256521.343    19256520.528    19256529.379
       239.000         208.000
 -11081402.39249  -8323254.03245  22680350.045    22680349.971    22680367.107
       214.000         153.000
  -6933437.82149  -5071332.34545  23468524.223    23468524.426    23468545.513
       210.000         147.000
  -1350501.90949   -953702.93747  20730732.329    20730730.769    20730742.076
       234.000         195.000
 01 12  3 17 15 59.9950000  0  7G20G13G27G 1G 3G31G22
   2479395.94749   1938811.91047  20970065.507    20970064.192    20970075.034
       235.000         192.000
 -18580563.94649 -14462055.33547  19907472.958    19907472.768    19907481.091
       242.000         204.000
 -18677761.12649 -14520547.66347  21393502.801    21393502.143    21393513.268
       236.000         196.000
 -10889294.05949  -8469700.91247  19248382.078    19248381.243    19248390.104
       240.000         208.000
 -11186477.23549  -8405130.33545  22660354.850    22660354.774    22660371.711
       215.000         154.000
  -7067079.05549  -5175468.37345  23443092.938    23443093.148    23443114.179
       210.000         148.000
  -1311719.50149   -923483.07147  20738112.437    20738110.938    20738122.274
       233.000         194.000
 01 12  3 17 16 29.9950000  0  7G20G13G27G 1G 3G31G22
   2531237.05249   1979207.36147  20979930.710    20979929.377    20979940.278
       235.000         191.000
 -18679136.86149 -14538865.39847  19888715.139    19888714.959    19888723.341
       242.000         205.000
 -18777904.70849 -14598581.60147  21374446.093    21374445.444    21374456.602
       236.000         196.000
 -10931744.73449  -8502779.41147  19240304.095    19240303.218    19240312.063
       240.000         208.000
 -11291291.85949  -8486803.90045  22640409.116    22640409.066    22640425.846
       213.000         155.000
  -7200774.15549  -5279646.41645  23417651.792    23417651.778    23417672.576
       213.000         150.000
  -1272527.04549   -892943.69447  20745570.585    20745569.114    20745580.492
       232.000         193.000
 01 12  3 17 16 59.9950000  0  7G20G13G27G 1G 3G31G22
   2583368.09749   2019828.73547  20989851.116    20989849.743    20989860.674
       235.000         190.000
 -18777491.05649 -14615505.03147  19869998.952    19869998.776    19870007.195
       241.000         205.000
 -18877895.69249 -14676496.62947  21355418.384    21355417.793    21355428.951
       236.000         197.000
 -10973875.42249  -8535608.56847  19232286.948    19232286.075    19232294.899
       240.000         208.000
 -11395846.34349  -8568274.79045  22620512.834    22620512.806    22620529.573
       214.000         155.000
  -7334522.94149  -5383866.29645  23392200.326    23392200.167    23392220.918
       214.000         149.000
  -1232930.28549   -862089.26947  20753105.732    20753104.227    20753115.671
       233.000         193.000
 01 12  3 17 17 29.9950000  0  7G20G13G27G 1G 3G31G22
   2635804.25749   2060687.85347  20999829.557    20999828.175    20999839.114
       233.000         189.000
 -18875607.05949 -14691959.05847  19851328.054    19851327.914    19851336.379
       241.000         205.000
 -18977716.45649 -14754279.01847  21336423.127    21336422.537    21336433.668
       237.000         197.000
 -11015667.15649  -8568173.60647  19224334.276    19224333.418    19224342.254
       240.000         208.000
 -11500119.86749  -8649526.77345  22600670.057    22600670.072    22600686.823
       215.000         156.000
  -7468304.63949  -5488111.88345  23366742.691    23366742.281    23366763.112
       216.000         147.000
  -1192914.21049   -830908.11947  20760720.635    20760719.138    20760730.651
       232.000         193.000
 01 12  3 17 17 59.9950000  0  7G20G13G27G 1G 3G31G22
   2688537.06849   2101778.13847  21009864.375    21009863.046    21009874.001
       232.000         189.000
 -18973488.94949 -14768230.64747  19832701.729    19832701.619    19832710.100
       241.000         205.000
 -19077373.04749 -14831933.47247  21317459.104    21317458.500    21317469.603
       236.000         196.000
 -11057124.82749  -8600478.33747  19216445.172    19216444.334    19216453.178
       240.000         208.000
 -11604115.43049  -8730562.19645  22580880.307    22580880.218    22580896.949
       215.000         157.000
  -7602122.34149  -5592385.58845  23341278.382    23341277.707    23341298.366
       214.000         146.000
  -1152487.34349   -799406.87747  20768413.709    20768412.233    20768423.817
       232.000         193.000
 01 12  3 17 18 29.9950000  0  7G20G13G27G 1G 3G31G22
   2741569.97649   2143102.25447  21019956.329    21019955.020    21019966.021
       233.000         188.000
 -19071128.84749 -14844313.68147  19814121.525    19814121.376    19814129.871
       242.000         206.000
 -19176859.31149 -14909455.20247  21298527.458    21298526.875    21298537.935
       237.000         197.000
 -11098240.93849  -8632516.92147  19208621.083    19208620.237    19208629.107
       240.000         209.000
 -11707823.74349  -8811373.81745  22561145.162    22561145.072    22561161.749
       216.000         156.000
  -7735966.78249  -5696680.12845  23315808.771    23315808.052    23315828.497
       210.000         142.000
  -1111646.35549   -767582.94647  20776185.620    20776184.134    20776195.804
       231.000         192.000
 01 12  3 17 18 59.9950000  0  7G20G13G27G 1G 3G31G22
   2794874.89049   2184638.32247  21030100.106    21030098.775    21030109.835
       233.000         188.000
 -19168550.43449 -14920226.59747  19795582.843    19795582.667    19795591.192
       242.000         206.000
 -19276200.80649 -14986864.12247  21279623.385    21279622.793    21279633.869
       236.000         198.000
 -11139039.71349  -8664308.23347  19200857.407    19200856.536    19200865.419
       240.000         209.000
 -11811267.16649  -8891979.05245  22541460.471    22541460.322    22541476.897
       217.000         157.000
  -7869860.20949  -5801012.82045  23290329.657    23290328.946    23290349.438
       215.000         142.000
  -1070419.54349   -735458.37047  20784031.027    20784029.478    20784041.203
       232.000         191.000
 01 12  3 17 19 29.9950000  0  7G20G13G27G 1G 3G31G22
   2848470.77949   2226401.12347  21040299.290    21040297.914    21040309.027
       233.000         188.000
 -19265730.29349 -14995951.15847  19777090.093    19777089.959    19777098.498
       242.000         206.000
 -19375376.11849 -15064143.55247  21260750.922    21260750.343    21260761.421
       237.000         198.000
 -11179498.45649  -8695834.57847  19193158.410    19193157.547    19193166.443
       240.000         209.000
 -11914421.25849  -8972358.87845  22521830.830    22521830.665    22521847.138
       217.000         158.000
  -8003777.97349  -5905364.45945  23264846.067    23264845.352    23264865.701
       215.000         142.000
  -1028787.91049   -703018.34847  20791953.402    20791951.863    20791963.619
       232.000         191.000
 01 12  3 17 19 59.9950000  0  7G20G13G27G 1G 3G31G22
   2902349.56249   2268384.36546  21050552.366    21050550.921    21050562.049
       233.000         187.000
 -19362671.83749 -15071490.02147  19758642.712    19758642.597    19758651.139
       242.000         206.000
 -19474390.29849 -15141297.42747  21241909.132    21241908.560    21241919.664
       237.000         198.000
 -11219621.08449  -8727099.01847  19185523.382    19185522.518    19185531.416
       242.000         209.000
 -12017288.39749  -9052515.12845  22502255.777    22502255.603    22502272.015
       217.000         160.000
  -8137721.99749  -6009736.54345  23239357.465    23239356.763    23239376.906
       216.000         141.000
   -986759.56449   -670269.19247  20799951.319    20799949.738    20799961.502
       232.000         189.000
 01 12  3 17 20 29.9950000  0  7G20G13G27G 1G 3G31G22
   2956513.44349   2310589.75746  21060859.597    21060858.139    21060869.310
       233.000         186.000
 -19459368.47749 -15146838.04747  19740242.031    19740241.852    19740250.396
       242.000         206.000
 -19573238.68549 -15218322.10847  21223098.919    21223098.327    21223109.449
       237.000         198.000
 -11259401.76449  -8758097.00047  19177953.457    19177952.560    19177961.474
       242.000         209.000
 -12119860.72849  -9132441.68945  22482736.893    22482736.715    22482753.056
       216.000         160.000
  -8271684.32049  -6114122.80945  23213865.346    23213864.622    23213884.541
       215.000         138.000
   -944332.34749   -637209.23347  20808025.079    20808023.514    20808035.261
       231.000         189.000
 01 12  3 17 20 59.9950000  0  7G20G13G27G 1G 3G31G22
   3010925.46649   2352988.51446  21071214.015    21071212.572    21071223.763
       232.000         186.000
 -19555852.60549 -15222020.48147  19721881.736    19721881.540    19721890.083
       242.000         206.000
 -19671955.44249 -15295244.22147  21204313.720    21204313.136    21204324.208
       237.000         198.000
 -11298873.50249  -8788854.24647  19170442.281    19170441.396    19170450.315
       242.000         209.000
 -12222169.22949  -9212162.70045  22463268.339    22463268.012    22463284.353
       217.000         161.000
  -8405696.09249  -6218547.56945  23188363.950    23188363.080    23188382.787
       213.000         138.000
   -901543.27449   -603867.30347  20816167.724    20816166.158    20816177.897
       231.000         188.000
 01 12  3 17 21 29.9950000  0  7G20G13G27G 1G 3G31G22
   3065618.31949   2395606.09046  21081621.883    21081620.418    21081631.655
       232.000         186.000
 -19652086.97749 -15297008.30247  19703568.972    19703568.757    19703577.279
       242.000         206.000
 -19770505.39849 -15372036.36047  21185560.244    21185559.663    21185570.690
       237.000         197.000
 -11337999.76849  -8819342.29547  19162996.864    19162995.967    19163004.895
       242.000         209.000
 -12324175.66949  -9291648.36845  22443857.204    22443856.824    22443873.143
       217.000         162.000
  -8539718.89749  -6322980.86845  23162860.581    23162859.592    23162879.075
       216.000         140.000
   -858359.72449   -570217.98847  20824385.420    20824383.873    20824395.625
       232.000         189.000
 01 12  3 17 21 59.9950000  0  7G20G13G27G 1G 3G31G22
   3120577.88449   2438431.49746  21092080.431    21092079.020    21092090.297
       233.000         185.000
 -19748081.11249 -15371808.92847  19685301.912    19685301.685    19685310.208
       242.000         206.000
 -19868900.16149 -15448707.56647  21166836.310    21166835.740    21166846.730
       237.000         198.000
 -11376790.60349  -8849568.97347  19155615.211    19155614.364    19155623.294
       242.000         209.000
 -12425888.62649  -9370905.35545  22424501.818    22424501.443    22424517.789
       216.000         161.000
  -8673761.02649  -6427429.18845  23137353.423    23137352.322    23137371.812
       214.000         142.000
   -814796.01349   -536272.43247  20832675.515    20832673.937    20832685.713
       232.000         189.000
 01 12  3 17 22 29.9950000  0  7G20G13G27G 1G 3G31G22
   3175790.94849   2481454.43546  21102587.284    21102585.859    21102597.181
       233.000         185.000
 -19843843.51849 -15446428.98547  19667078.922    19667078.697    19667087.248
       242.000         206.000
 -19967150.19049 -15525266.00347  21148139.909    21148139.373    21148150.368
       237.000         198.000
 -11415255.40249  -8879541.60047  19148295.638    19148294.801    19148303.740
       242.000         209.000
 -12527315.36249  -9449939.33145  22405200.940    22405200.547    22405216.857
       216.000         161.000
  -8807829.85349  -6531898.24145  23111841.121    23111839.924    23111859.493
       212.000         141.000
   -770865.01649   -502040.66847  20841035.555    20841033.914    20841045.697
       233.000         189.000
 01 12  3 17 22 59.9950000  0  8G20G13G27G 2G 1G 3G31G22
   3231287.57949   2524698.33946  21113148.158    21113146.706    21113158.082
       232.000         184.000
 -19939339.83849 -15520841.69747  19648906.553    19648906.367    19648914.917
       242.000         206.000
 -20065222.86149 -15601686.23247  21129477.278    21129476.737    21129487.779
       238.000         198.000
   -252078.09255                  23485553.462
       214.000         150.000
 -11453360.33749  -8909233.81347  19141044.579    19141043.730    19141052.651
       242.000         209.000
 -12628420.21149  -9528722.46345  22385961.358    22385960.954    22385977.157
       219.000         161.000
  -8941889.45449  -6636360.11145  23086330.434    23086329.241    23086348.800
       212.000         143.000
   -726537.06549   -467499.58447  20849471.029    20849469.416    20849481.224
       232.000         188.000
 01 12  3 17 23 29.9950000  0  8G20G13G27G 2G 1G 3G31G22
   3287081.96149   2568174.25246  21123765.678    21123764.203    21123775.651
       233.000         183.000
 -20034551.32149 -15595032.45947  19630788.423    19630788.227    19630796.781
       242.000         206.000
 -20163101.30649 -15677955.12547  21110851.644    21110851.063    21110862.129
       237.000         198.000
   -511764.46549   -363407.95845  23458365.467    23458363.293    23458386.515
       211.000         149.000
 -11491087.24149  -8938631.45947  19133865.451    19133864.585    19133873.499
       242.000         209.000
 -12729183.27749  -9607239.26546  22366786.882    22366786.406    22366802.560
       219.000         163.000
  -9075919.73549  -6740799.10245  23060825.208    23060824.098    23060843.588
       212.000         144.000
   -681797.97749   -432638.13147  20857984.729    20857983.122    20857994.997
       232.000         188.000
 01 12  3 17 23 59.9950000  0  9G20G13G27G 2G 1G 3G31G 8G22
   3343122.87549   2611842.26746  21134430.109    21134428.612    21134440.128
       232.000         183.000
 -20129524.57149 -15669037.58547  19612715.609    19612715.419    19612723.970
       242.000         206.000
 -20260833.96949 -15754110.42147  21092253.741    21092253.145    21092264.174
       238.000         198.000
   -654557.59849   -474674.74355  23431192.606    23431190.442    23431213.235
       208.000         147.000
 -11528483.75349  -8967771.65447  19126749.158    19126748.316    19126757.222
       242.000         209.000
 -12829650.22749  -9685525.28145  22347668.737    22347668.237    22347684.398
       219.000         162.000
  -9209966.21349  -6845250.69845  23035316.813    23035315.808    23035335.332
       211.000         143.000
   -291262.24359   -206040.21855  23029178.292    23029175.543    23029194.967
       212.000         154.000
   -636698.95149   -397496.20547  20866566.862    20866565.326    20866577.258
       232.000         188.000
 01 12  3 17 24 29.9950000  0  9G20G13G27G 2G 1G 3G31G 8G22
   3399406.18549   2655699.16746  21145140.575    21145139.134    21145150.705
       231.000         183.000
 -20224259.44849 -15742856.96447  19594688.172    19594687.968    19594696.507
       242.000         206.000
 -20358422.57049 -15830153.46347  21073683.206    21073682.630    21073693.612
       237.000         197.000
   -797269.47159   -585878.21645  23404035.238    23404033.939    23404055.936
       211.000         151.000
 -11565550.20949  -8996654.66347  19119695.660    19119694.834    19119703.763
       242.000         209.000
 -12929819.64049  -9763579.40446  22328607.229    22328606.670    22328622.870
       218.000         163.000
  -9344027.37249  -6949713.69345  23009805.844    23009804.756    23009824.207
       211.000         146.000
   -419405.25749   -305891.84645  23004793.454    23004792.581    23004811.751
       218.000         157.000
   -591244.55049   -362077.36947  20875216.735    20875215.164    20875227.135
       232.000         188.000
 01 12  3 17 24 59.9950000  0  9G20G13G27G 2G 1G 3G31G 8G22
   3455911.60849   2699729.13646  21155893.293    21155891.900    21155903.548
       230.000         181.000
 -20318771.46449 -15816502.68547  19576703.094    19576702.924    19576711.456
       242.000         206.000
 -20455884.66649 -15906097.92847  21055136.756    21055136.192    21055147.147
       238.000         197.000
   -939915.25449   -697030.21345  23376890.342    23376889.265    23376911.397
       211.000         154.000
 -11602302.82249  -9025293.11647  19112701.916    19112701.087    19112710.034
       242.000         209.000
 -13029705.81549  -9841412.77746  22309599.508    22309598.970    22309615.212
       220.000         163.000
  -9478117.27949  -7054199.12245  22984289.293    22984288.251    22984307.645
       209.000         146.000
   -547467.01559   -405680.06355  22980424.277    22980423.745    22980441.499
       219.000         156.000
   -545454.78649   -326397.21147  20883930.408    20883928.806    20883940.812
       232.000         188.000
 01 12  3 17 25 29.9950000  0  9G20G13G27G 2G 1G 3G31G 8G22
   3512669.61049   2743955.91646  21166694.086    21166692.729    21166704.460
       230.000         182.000
 -20413025.35749 -15889947.27447  19558767.148    19558767.017    19558775.512
       242.000         206.000
 -20553187.11849 -15981918.01547  21036620.734    21036620.154    21036631.079
       237.000         198.000
  -1082459.73349   -808103.37245  23349764.951    23349763.743    23349785.965
       212.000         156.000
 -11638707.20149  -9053660.21547  19105774.468    19105773.617    19105782.587
       241.000         209.000
 -13129272.65349  -9918997.22846  22290652.636    22290652.060    22290668.271
       219.000         163.000
  -9612199.63049  -7158678.62745  22958774.065    22958773.150    22958792.527
       208.000         147.000
   -675413.71149   -505378.65845  22956076.896    22956076.407    22956093.907
       216.000         156.000
   -499299.17149   -290431.97247  20892713.592    20892712.071    20892724.117
       232.000         188.000
 01 12  3 17 25 59.9950000  0  9G20G13G27G 2G 1G 3G31G 8G22
   3569670.04449   2788371.61146  21177541.063    21177539.703    21177551.475
       230.000         181.000
 -20507027.01849 -15963195.31147  19540879.257    19540879.098    19540887.589
       242.000         206.000
 -20650337.68849 -16057619.75547  21018133.599    21018132.990    21018143.931
       238.000         198.000
  -1224908.60549   -919102.10745  23322657.717    23322656.501    23322678.773
       212.000         156.000
 -11674769.93149  -9081761.09447  19098912.005    19098911.143    19098920.151
       242.000         209.000
 -13228525.11749  -9996336.66246  22271765.664    22271765.008    22271781.143
       221.000         164.000
  -9746278.97849  -7263155.80645  22933259.467    22933258.590    22933277.948
       206.000         145.000
   -803252.56149   -604993.23645  22931750.082    22931749.448    22931766.605
       218.000         156.000
   -452788.23449   -254189.86246  20901564.406    20901562.927    20901575.035
       232.000         187.000
 01 12  3 17 26 29.9950000  0  9G20G13G27G 2G 1G 3G31G 8G22
   3626959.85549   2833012.78746  21188443.117    21188441.770    21188453.580
       230.000         181.000
 -20600724.70949 -16036206.49447  19523049.203    19523049.022    19523057.484
       242.000         206.000
 -20747286.42749 -16133164.23447  20999684.851    20999684.246    20999695.211
       237.000         198.000
  -1367210.03249  -1029986.06945  23295578.510    23295577.372    23295599.573
       213.000         154.000
 -11710439.93849  -9109555.95247  19092124.249    19092123.403    19092132.444
       242.000         209.000
 -13327410.30249 -10073389.85846  22252948.533    22252947.817    22252963.894
       221.000         164.000
  -9880302.01449  -7367589.11745  22907755.610    22907754.658    22907774.084
       207.000         146.000
   -930933.28949   -704484.62645  22907453.075    22907452.330    22907469.372
       217.000         155.000
   -405874.83449   -217634.15847  20910491.896    20910490.380    20910502.540
       231.000         188.000
 01 12  3 17 26 59.9950000  0  9G20G13G27G 2G 1G 3G31G 8G22
   3684469.85249   2877825.53346  21199387.185    21199385.746    21199397.555
       231.000         180.000
 -20694183.22749 -16109031.30647  19505264.635    19505264.462    19505272.913
       242.000         206.000
 -20844100.04649 -16208603.42847  20981261.811    20981261.218    20981272.159
       238.000         197.000
  -1509428.51649  -1140805.52145  23268514.889    23268513.872    23268536.030
       212.000         154.000
 -11745782.71649  -9137095.82347  19085398.735    19085397.922    19085406.991
       242.000         209.000
 -13425991.67549 -10150206.27446  22234189.007    22234188.385    22234204.497
       221.000         166.000
 -10014332.17349  -7472027.96445  22882250.111    22882249.367    22882268.831
       209.000         147.000
  -1058522.06849   -803904.38045  22883173.694    22883172.896    22883189.994
       219.000         159.000
   -358628.48249   -180819.01446  20919482.774    20919481.208    20919493.434
       232.000         187.000
 01 12  3 17 27 29.9950000  0  9G20G13G27G 2G 1G 3G31G 8G22
   3742229.15649   2922832.54446  21210378.615    21210377.198    21210389.006
       229.000         180.000
 -20787368.62049 -16181643.29747  19487532.037    19487531.866    19487540.330
       242.000         206.000
 -20940746.54449 -16283912.40647  20962870.589    20962869.985    20962880.879
       238.000         197.000
  -1651530.15549  -1251533.96145  23241473.509    23241472.675    23241494.754
       211.000         156.000
 -11780765.14949  -9164354.89947  19078741.821    19078741.025    19078750.105
       242.000         209.000
 -13524234.42549 -10226758.80746  22215493.860    22215493.352    22215509.533
       220.000         166.000
 -10148334.23449  -7576444.89045  22856750.070    22856749.441    22856768.961
       209.000         148.000
  -1185986.52649   -903227.32245  22858917.933    22858917.209    22858934.297
       219.000         158.000
   -311019.86149   -143721.60347  20928542.595    20928540.998    20928553.272
       231.000         188.000
 01 12  3 17 27 59.9950000  0  9G20G13G27G 2G 1G 3G31G 8G22
   3800236.99849   2968033.21446  21221417.381    21221415.906    21221427.805
       231.000         180.000
 -20880277.29349 -16254039.66147  19469852.076    19469851.935    19469860.397
       243.000         206.000
 -21037224.10049 -16359089.73847  20944511.526    20944510.919    20944521.753
       238.000         197.000
  -1793511.13249  -1362168.41745  23214455.125    23214454.433    23214476.518
       209.000         154.000
 -11815384.41749  -9191330.99047  19072154.061    19072153.244    19072162.335
       242.000         210.000
 -13622133.87749 -10303043.79246  22196864.096    22196863.656    22196879.865
       220.000         167.000
 -10282303.01949  -7680835.87145  22831256.440    22831255.859    22831275.394
       207.000         149.000
  -1313324.41749  -1002451.62845  22834686.403    22834685.637    22834702.723
       221.000         160.000
   -263049.88249   -106342.63146  20937671.112    20937669.552    20937681.863
       230.000         187.000
 01 12  3 17 28 29.9950000  0  9G20G13G27G 2G 1G 3G31G 8G22
   3858452.85249   3013395.98046  21232495.677    21232494.185    21232506.202
       228.000         179.000
 -20972944.95549 -16326248.21747  19452217.977    19452217.842    19452226.316
       242.000         206.000
 -21133570.56149 -16434164.92347  20926177.375    20926176.777    20926187.598
       238.000         197.000
  -1935406.93249  -1472736.58545  23187452.830    23187452.407    23187474.477
       211.000         153.000
 -11849676.97249  -9218052.49947  19065628.471    19065627.643    19065636.741
       242.000         210.000
 -13719724.81249 -10379088.35846  22178293.105    22178292.673    22178308.814
       220.000         167.000
 -10416272.98849  -7785227.71845  22805762.286    22805762.000    22805781.612
       204.000         150.000
  -1440573.01049  -1101606.37245  22810471.871    22810471.055    22810488.132
       220.000         157.000
   -214758.98549    -68713.59446  20946860.713    20946859.150    20946871.545
       230.000         187.000
 01 12  3 17 28 59.9950000  0  9G20G13G27G 2G 1G 3G31G 8G22
   3916908.94049   3058945.94346  21243619.611    21243618.157    21243630.274
       226.000         179.000
 -21065334.59749 -16398240.13747  19434636.831    19434636.688    19434645.134
       242.000         206.000
 -21229750.99349 -16509110.73847  20907874.892    20907874.262    20907885.105
       238.000         199.000
  -2077180.76249  -1583209.76545  23160474.069    23160473.649    23160495.588
       208.000         151.000
 -11883606.87549  -9244491.41847  19059171.874    19059171.036    19059180.162
       243.000         210.000
 -13816969.40049 -10454863.03946  22159787.913    22159787.538    22159803.674
       221.000         167.000
 -10550205.73849  -7889590.54045  22780275.248    22780275.128    22780294.890
       207.000         151.000
  -1567696.78749  -1200663.88745  22786280.964    22786280.170    22786297.203
       219.000         158.000
   -166115.14249    -30809.54446  20956117.469    20956115.912    20956128.385
       230.000         187.000
 01 12  3 17 29 29.9950000  0  9G20G13G27G 2G 1G 3G31G 8G22
   3975601.01249   3104679.77146  21254788.454    21254787.049    21254799.282
       227.000         178.000
 -21157446.12249 -16470015.33647  19417108.586    19417108.450    19417116.867
       242.000         206.000
 -21325767.25549 -16583928.62547  20889603.630    20889602.972    20889613.823
       238.000         198.000
  -2218832.12449  -1693587.46545  23133518.661    23133518.222    23133540.078
       208.000         151.000
 -11917174.59849  -9270648.11347  19052784.205    19052783.355    19052792.491
       242.000         210.000
 -13913866.86449 -10530367.23746  22141348.696    22141348.399    22141364.571
       220.000         166.000
 -10684100.03149  -7993923.39045  22754795.698    22754795.658    22754815.439
       209.000         153.000
  -1694697.20549  -1299625.25345  22762113.524    22762112.745    22762129.730
       219.000         154.000
   -117122.61049      7366.20946  20965440.676    20965439.034    20965451.579
       230.000         187.000
 01 12  3 17 29 59.9950000  0  9G20G13G27G 2G 1G 3G31G 8G22
   4034492.68649   3150569.13346  21265995.379    21265993.909    21266006.261
       229.000         178.000
 -21249311.19149 -16541598.49547  19399627.294    19399627.123    19399635.508
       243.000         206.000
 -21421652.83249 -16658644.67447  20871357.224    20871356.566    20871367.393
       238.000         198.000
  -2360392.27449  -1803894.04545  23106580.667    23106580.119    23106601.975
       210.000         155.000
 -11950412.44249  -9296547.76247  19046459.286    19046458.438    19046467.595
       241.000         209.000
 -14010447.59249 -10605624.65346  22122969.616    22122969.493    22122985.724
       219.000         166.000
 -10817985.91449  -8098249.64945  22729317.768    22729317.752    22729337.637
       208.000         153.000
  -1821607.08949  -1398516.07545  22737963.313    22737962.519    22737979.380
       216.000         151.000
    -67817.72149     45785.34346  20974823.337    20974821.601    20974834.224
       229.000         186.000
 01 12  3 17 30 29.9950000  0  9G20G13G27G 2G 1G 3G31G 8G22
   4093600.36249   3196626.81546  21277243.446    21277241.936    21277254.299
       228.000         178.000
 -21340909.10549 -16612973.47947  19382196.793    19382196.631    19382204.967
       242.000         206.000
 -21517388.90249 -16733244.21847  20853139.214    20853138.578    20853149.391
       237.000         198.000
  -2501840.37449  -1914113.31045  23079664.297    23079663.463    23079685.217
       213.000         154.000
 -11983300.49049  -9322174.84047  19040200.884    19040200.066    19040209.245
       242.000         209.000
 -14106689.79049 -10680618.29046  22104655.072    22104655.036    22104671.289
       219.000         166.000
 -10951841.12749  -8202552.01345  22703845.740    22703845.739    22703865.715
       211.000         156.000
  -1948407.24949  -1497321.40745  22713833.996    22713833.183    22713849.996
       216.000         153.000
    -18184.37449     84460.40546  20984268.402    20984266.689    20984279.356
       229.000         185.000
 01 12  3 17 30 59.9950000  0  9G20G13G27G 2G 1G 3G31G 8G22
   4152897.73649   3242832.30346  21288527.586    21288526.053    21288538.446
       229.000         179.000
 -21432261.20149 -16684156.91647  19364813.100    19364812.899    19364821.219
       242.000         206.000
 -21612998.89849 -16807745.50747  20834945.204    20834944.584    20834955.419
       238.000         199.000
  -2643197.83249  -2024261.91345  23052764.851    23052764.075    23052785.661
       211.000         151.000
 -12015861.06149  -9347546.74747  19034004.797    19034004.009    19034013.195
       242.000         209.000
 -14202614.45349 -10755364.52946  22086401.045    22086401.009    22086417.278
       220.000         167.000
 -11085686.09749  -8306846.39945  22678375.702    22678375.683    22678395.642
       211.000         156.000
  -2075120.87149  -1596059.30745  22689721.288    22689720.448    22689737.110
       217.000         152.000
     31751.34749    123371.09146  20993771.000    20993769.308    20993782.002
       230.000         184.000
 01 12  3 17 31 29.9950000  0  9G20G13G27G 2G 1G 3G31G 8G22
   4212439.91349   3289228.54546  21299858.282    21299856.749    21299869.196
       228.000         179.000
 -21523307.83849 -16755102.33447  19347487.481    19347487.295    19347495.581
       241.000         206.000
 -21708425.12749 -16882103.59747  20816786.206    20816785.589    20816796.427
       238.000         199.000
  -2784404.82649  -2134293.16645  23025894.078    23025893.314    23025914.759
       215.000         157.000
 -12048035.45549  -9372617.73247  19027882.226    19027881.454    19027890.648
       242.000         209.000
 -14298160.71149 -10829815.94646  22068218.917    22068218.982    22068235.192
       221.000         167.000
 -11219459.91249  -8411085.33745  22652919.278    22652919.238    22652939.066
       212.000         155.000
  -2201689.58049  -1694684.22845  22665636.180    22665635.289    22665651.921
       217.000         154.000
     82044.29449    162560.12546  21003341.617    21003339.926    21003352.632
       229.000         183.000
 01 12  3 17 31 59.9950000  0  9G20G13G27G 2G 1G 3G31G 8G22
   4272212.35549   3335804.20346  21311232.807    21311231.276    21311243.717
       229.000         179.000
 -21614058.75249 -16825817.31347  19330218.141    19330217.962    19330226.251
       242.000         206.000
 -21803679.21249 -16956327.55547  20798659.981    20798659.336    20798670.193
       238.000         200.000
  -2925470.95249  -2244214.58245  22999050.219    22999049.338    22999070.674
       219.000         159.000
 -12079833.98849  -9397395.84447  19021831.208    19021830.412    19021839.618
       242.000         209.000
 -14393337.18549 -10903979.23546  22050107.159    22050107.268    22050123.480
       219.000         165.000
 -11353170.58849  -8515275.05845  22627474.878    22627474.720    22627494.417
       212.000         153.000
  -2328124.63549  -1793205.01845  22641576.392    22641575.469    22641592.190
       213.000         153.000
    132680.12249    202016.32246  21012977.526    21012975.794    21012988.509
       229.000         183.000
 01 12  3 17 32 29.9950000  0  9G20G13G27G 2G 1G 3G31G 8G22
   4332178.65049   3382530.91446  21322644.191    21322642.685    21322655.125
       229.000         178.000
 -21704545.57049 -16896326.50747  19312999.038    19312998.872    19313007.172
       241.000         206.000
 -21898794.90949 -17030443.66347  20780560.069    20780559.445    20780570.313
       238.000         200.000
  -3066427.85949  -2354050.81945  22972227.124    22972226.101    22972247.356
       218.000         155.000
 -12111289.55849  -9421906.71247  19015845.416    19015844.637    19015853.858
       242.000         209.000
 -14488174.70349 -10977878.43646  22032059.982    22032060.077    22032076.310
       218.000         166.000
 -11486848.65149  -8619439.35545  22602036.526    22602036.358    22602055.977
       212.000         156.000
  -2454459.23849  -1891647.54345  22617535.694    22617534.794    22617551.598
       211.000         153.000
    183622.27249    241711.21846  21022671.795    21022669.970    21022682.684
       229.000         184.000
 01 12  3 17 32 59.9940000  0  9G20G13G27G 2G 1G 3G31G 8G22
   4392373.68249   3429435.86446  21334099.170    21334097.630    21334110.091
       228.000         179.000
 -21794724.04549 -16966595.43547  19295838.599    19295838.482    19295846.766
       241.000         206.000
 -21993729.61349 -17104418.72747  20762494.579    20762493.962    20762504.842
       238.000         199.000
  -3207229.51749  -2463766.02545  22945433.393    22945432.378    22945453.555
       219.000         154.000
 -12142360.59549  -9446117.94647  19009932.836    19009932.037    19009941.274
       242.000         209.000
 -14582627.98249 -11051478.26446  22014085.959    22014086.052    22014102.249
       219.000         167.000
 -11620446.72349  -8723541.33745  22576613.571    22576613.288    22576632.711
       215.000         157.000
  -2580649.51549  -1989977.55045  22593522.289    22593521.508    22593538.335
       214.000         154.000
    234905.85749    281672.15246  21032431.030    21032429.131    21032441.845
       229.000         184.000
 01 12  3 17 33 29.9940000  0  9G20G13G27G 2G 1G 3G31G 8G22
   4452740.57049   3476474.73246  21345586.783    21345585.253    21345597.753
       228.000         178.000
 -21884656.27049 -17036672.47947  19278725.067    19278724.943    19278733.210
       241.000         206.000
 -22088547.96549 -17178303.11747  20744451.250    20744450.644    20744461.490
       238.000         200.000
  -3347941.40049  -2573411.18145  22918656.696    22918655.693    22918676.825
       220.000         156.000
 -12173106.04849  -9470075.47947  19004082.161    19004081.398    19004090.641
       241.000         209.000
 -14676758.82849 -11124826.88646  21996173.339    21996173.408    21996189.577
       220.000         167.000
 -11754028.35849  -8827630.51245  22551193.604    22551193.353    22551212.616
       214.000         156.000
  -2706761.34349  -2088246.45945  22569523.894    22569523.176    22569539.993
       213.000         154.000
    286473.54249    321854.46946  21042244.276    21042242.354    21042255.086
       229.000         184.000
 01 12  3 17 33 59.9940000  0  9G20G13G27G 2G 1G 3G31G 8G22
   4513353.94049   3523705.66246  21357121.287    21357119.788    21357132.369
       229.000         178.000
 -21974258.19449 -17106492.15047  19261674.374    19261674.261    19261682.501
       240.000         206.000
 -22183167.61749 -17252032.66847  20726445.721    20726445.114    20726455.948
       238.000         200.000
  -3488477.80349  -2682919.55845  22891913.159    22891912.350    22891933.438
       221.000         152.000
 -12203444.62649  -9493715.98047  18998308.949    18998308.181    18998317.444
       242.000         209.000
 -14770481.95149 -11197857.82646  21978338.332    21978338.326    21978354.523
       221.000         168.000
 -11887506.65449  -8931639.16145  22525793.205    22525792.987    22525812.240
       214.000         155.000
  -2832710.97949  -2186388.93245  22545556.316    22545555.693    22545572.438
       209.000         155.000
    338399.91049    362316.28246  21052125.720    21052123.834    21052136.580
       228.000         182.000
 01 12  3 17 34 29.9940000  0  9G20G13G27G 2G 1G 3G31G 8G22
   4574108.06749   3571046.27446  21368682.630    21368681.128    21368693.787
       229.000         177.000
 -22063630.72049 -17176133.07347  19244667.335    19244667.231    19244675.437
       241.000         206.000
 -22277691.67349 -17325687.72747  20708458.394    20708457.776    20708468.598
       239.000         200.000
  -3628939.45649  -2792369.65845  22865183.949    22865183.219    22865204.204
       220.000         154.000
 -12233478.37049  -9517118.94747  18992593.745    18992592.972    18992602.248
       242.000         209.000
 -14863897.31149 -11270648.97046  21960561.888    21960561.825    21960578.026
       220.000         167.000
 -12020981.23449  -9035644.96745  22500393.624    22500393.404    22500412.513
       216.000         157.000
  -2958601.07449  -2284484.99345  22521600.201    22521599.560    22521616.277
       215.000         159.000
    390579.52449    402975.43846  21062055.279    21062053.458    21062066.283
       228.000         182.000
 01 12  3 17 34 59.9940000  0  9G20G13G27G 2G 1G 3G31G 8G22
   4635074.30749   3618552.16946  21380284.334    21380282.811    21380295.572
       228.000         177.000
 -22152697.92149 -17245536.07747  19227718.447    19227718.326    19227726.488
       242.000         206.000
 -22372045.90849 -17399210.44647  20690503.376    20690502.738    20690513.590
       238.000         200.000
  -3769250.31549  -2901702.17945  22838483.194    22838482.663    22838503.652
       219.000         155.000
 -12263132.16449  -9540225.85247  18986950.837    18986950.072    18986959.366
       242.000         209.000
 -14956927.98349 -11343140.38146  21942858.735    21942858.584    21942874.707
       220.000         167.000
 -12154374.81549  -9139587.66045  22475009.455    22475009.230    22475028.231
       216.000         158.000
  -3084356.94249  -2382476.49546  22497669.766    22497669.040    22497685.758
       218.000         164.000
    443083.56049    443887.39446  21072046.555    21072044.816    21072057.729
       228.000         181.000
 01 12  3 17 35 29.9940000  0  9G20G13G27G 2G 1G 3G31G 8G22
   4696230.10549   3666205.75246  21391922.159    21391920.587    21391933.507
       229.000         178.000
 -22241477.67749 -17314715.09847  19210824.250    19210824.087    19210832.245
       242.000         206.000
 -22466250.09749 -17472616.24847  20672576.881    20672576.256    20672587.139
       240.000         201.000
  -3909428.31349  -3010931.15645  22811807.733    22811807.337    22811828.402
       220.000         151.000
 -12292424.64249  -9563051.21047  18981376.690    18981375.935    18981385.252
       242.000         210.000
 -15049591.09449 -11415345.40946  21925225.427    21925225.277    21925241.326
       220.000         166.000
 -12287703.89249  -9243480.10845  22449637.349    22449637.287    22449656.257
       214.000         156.000
  -3209998.21249  -2480378.68346  22473761.176    22473760.356    22473777.068
       219.000         164.000
    495889.36549    485034.51246  21082095.328    21082093.599    21082106.582
       228.000         180.000
 01 12  3 17 35 59.9940000  0  9G20G13G27G 2G 1G 3G31G 8G22
   4757575.68549   3714007.23446  21403596.074    21403594.461    21403607.456
       229.000         177.000
 -22329965.27149 -17383666.46447  19193985.616    19193985.461    19193993.603
       241.000         206.000
 -22560301.58549 -17545903.05647  20654679.477    20654678.831    20654689.727
       240.000         201.000
  -4049468.73649  -3120052.94445  22785158.304    22785158.180    22785179.207
       217.000         152.000
 -12321351.99149  -9585592.05847  18975872.051    18975871.283    18975880.615
       242.000         209.000
 -15141881.11249 -11487259.72246  21907663.131    21907662.964    21907679.002
       221.000         168.000
 -12420962.23749  -9347317.48245  22424278.787    22424278.778    22424297.653
       216.000         155.000
  -3335521.53149  -2578188.94946  22449874.784    22449874.012    22449890.800
       217.000         163.000
    548997.19749    526416.97046  21092201.632    21092199.871    21092212.898
       229.000         180.000
 01 12  3 17 36 29.9940000  0  9G20G13G27G 2G 1G 3G31G 8G22
   4819100.73249   3761948.54946  21415304.136    21415302.499    21415315.568
       227.000         177.000
 -22418165.95549 -17452394.27047  19177201.593    19177201.443    19177209.580
       243.000         206.000
 -22654207.65849 -17619076.55447  20636809.676    20636809.076    20636819.969
       239.000         200.000
  -4189376.79649  -3229071.54945  22758534.254    22758534.193    22758555.246
       217.000         157.000
 -12349920.62049  -9607853.38047  18970435.691    18970434.900    18970444.217
       242.000         209.000
 -15233802.73949 -11558886.99746  21890171.068    21890170.829    21890186.817
       222.000         167.000
 -12554153.67149  -9451102.73445  22398933.131    22398933.064    22398951.745
       215.000         154.000
  -3460933.89649  -2675912.75446  22426009.440    22426008.726    22426025.558
       215.000         164.000
    602396.68749    568026.70846  21102363.477    21102361.667    21102374.698
       229.000         180.000
 01 12  3 17 36 59.9940000  0  9G20G13G27G 2G 1G 3G31G 8G22
   4880783.34449   3810012.62946  21427042.157    21427040.520    21427053.620
       227.000         176.000
 -22506097.29549 -17520912.20347  19160468.820    19160468.654    19160476.773
       243.000         206.000
 -22747987.79449 -17692151.91047  20618963.828    20618963.265    20618974.163
       239.000         200.000
  -4329170.23549  -3338000.81945  22731931.851    22731931.958    22731953.104
       215.000         155.000
 -12378148.96549  -9629849.54547  18965064.059    18965063.253    18965072.586
       242.000         209.000
 -15325372.57649 -11630240.16746  21872745.961    21872745.639    21872761.589
       220.000         167.000
 -12687294.27149  -9554848.39545  22373596.963    22373596.972    22373615.491
       215.000         154.000
  -3586254.38549  -2773564.93346  22402161.577    22402160.965    22402177.786
       217.000         163.000
    656065.89449    609846.61246  21112576.593    21112574.791    21112587.841
       229.000         180.000
 01 12  3 17 37 29.9940000  0  9G20G13G27G 2G 1G 3G31G 8G22
   4942664.50349   3858231.43246  21438817.949    21438816.317    21438829.435
       226.000         176.000
 -22593713.47849 -17589184.55647  19143795.975    19143795.835    19143803.967
       242.000         206.000
 -22841598.15649 -17765094.98747  20601150.361    20601149.790    20601160.655
       240.000         200.000
  -4468803.28249  -3446805.17045  22705359.746    22705360.213    22705381.348
       215.000         154.000
 -12405992.08249  -9651545.52847  18959765.715    18959764.919    18959774.266
       242.000         209.000
 -15416544.00949 -11701282.88746  21855396.610    21855396.285    21855412.160
       221.000         167.000
 -12820336.91349  -9658517.73845  22348279.492    22348279.527    22348297.940
       215.000         153.000
  -3711438.51149  -2871110.84246  22378339.798    22378339.147    22378355.932
       219.000         166.000
    710045.94349    651908.73746  21122848.913    21122847.083    21122860.150
       229.000         180.000
 01 12  3 17 37 59.9940000  0  9G20G13G27G 2G 1G 3G31G 8G22
   5004753.66449   3906612.29946  21450633.277    21450631.685    21450644.847
       227.000         176.000
 -22681000.41449 -17657200.35247  19127185.785    19127185.667    19127193.820
       242.000         206.000
 -22935026.68749 -17837896.37247  20583371.426    20583370.912    20583381.762
       240.000         200.000
  -4608261.54149  -3555473.33345  22678821.284    22678821.739    22678842.822
       217.000         157.000
 -12433436.94449  -9672931.18247  18954543.157    18954542.360    18954551.724
       242.000         209.000
 -15507302.17349 -11772003.58646  21838125.951    21838125.573    21838141.333
       221.000         166.000
 -12953266.10349  -9762098.71945  22322983.725    22322983.728    22323001.980
       214.000         153.000
  -3836474.08449  -2968540.96946  22354546.382    22354545.671    22354562.355
       220.000         167.000
    764346.16149    694220.35046  21133182.133    21133180.299    21133193.391
       229.000         181.000
 01 12  3 17 38 29.9940000  0  9G20G13G27G 2G 1G 3G31G 8G22
   5066985.51449   3955104.36946  21462475.856    21462474.218    21462487.442
       227.000         175.000
 -22768018.75749 -17725006.85747  19110626.717    19110626.624    19110634.779
       242.000         206.000
 -23028335.78349 -17910604.70547  20565615.296    20565614.746    20565625.585
       240.000         200.000
  -4747605.89149  -3664052.73745  22652304.599    22652305.002    22652325.980
       215.000         154.000
 -12460544.98549  -9694054.37747  18949384.725    18949383.904    18949393.277
       242.000         209.000
 -15597707.00549 -11842448.94546  21820922.608    21820922.121    21820937.769
       222.000         167.000
 -13086140.86849  -9865637.30845  22297698.314    22297698.293    22297716.498
       215.000         155.000
  -3961423.12949  -3065903.65246  22330769.376    22330768.642    22330785.269
       220.000         165.000
    818901.36149    736730.65046  21143563.824    21143562.019    21143575.163
       229.000         180.000
 01 12  3 17 38 59.9940000  0  9G20G13G27G 2G 1G 3G31G 8G22
   5129371.32549   4003716.39046  21474347.759    21474346.085    21474359.377
       226.000         176.000
 -22854752.46249 -17792591.57547  19094121.825    19094121.734    19094129.881
       241.000         206.000
 -23121511.65349 -17983209.21847  20547884.467    20547883.934    20547894.768
       239.000         199.000
  -4886820.31349  -3772530.96245  22625812.484    22625812.938    22625833.725
       213.000         156.000
 -12487301.36049  -9714903.54847  18944293.174    18944292.379    18944301.735
       241.000         209.000
 -15687741.61649 -11912605.82146  21803789.656    21803789.131    21803804.706
       222.000         168.000
 -13218943.82549  -9969119.96645  22272426.519    22272426.538    22272444.735
       213.000         155.000
  -4086271.23649  -3163187.64146  22307011.485    22307010.783    22307027.356
       220.000         166.000
    873722.58449    779448.23446  21153996.090    21153994.344    21154007.564
       227.000         179.000
 01 12  3 17 39 29.9940000  0  9G20G13G27G 2G 1G 3G31G 8G22
   5191937.58749   4052469.03146  21486253.884    21486252.271    21486265.622
       226.000         174.000
 -22941170.50949 -17859930.32647  19077677.046    19077676.937    19077685.057
       242.000         205.000
 -23214525.19049 -18055687.25147  20530184.508    20530184.003    20530194.845
       239.000         200.000
  -5025873.69649  -3880883.68945  22599351.060    22599351.529    22599372.201
       213.000         157.000
 -12513675.75849  -9735455.07547  18939274.322    18939273.545    18939282.893
       241.000         209.000
 -15777374.34749 -11982449.55246  21786733.126    21786732.595    21786748.148
       222.000         169.000
 -13351642.57949 -10072521.42045  22247174.640    22247174.635    22247192.764
       213.000         154.000
  -4210988.93549  -3260370.02446  22283278.344    22283277.709    22283294.236
       220.000         166.000
    928836.39249    822393.79846  21164484.033    21164482.350    21164495.624
       228.000         178.000
 01 12  3 17 39 59.9940000  0  9G20G13G27G 2G 1G 3G31G 8G22
   5254665.89249   4101347.93646  21498190.881    21498189.250    21498202.770
       225.000         175.000
 -23027286.64949 -17927033.82447  19061289.690    19061289.587    19061297.664
       242.000         205.000
 -23307391.98349 -18128050.94047  20512512.499    20512511.990    20512522.834
       240.000         200.000
  -5164779.70549  -3989121.61745  22572917.720    22572918.176    22572938.666
       215.000         158.000
 -12539682.91249  -9755720.43447  18934325.332    18934324.569    18934333.938
       242.000         209.000
 -15866618.11149 -12051990.17146  21769750.653    21769750.094    21769765.627
       220.000         169.000
 -13484249.39849 -10175851.27145  22221940.373    22221940.294    22221958.264
       213.000         152.000
  -4335591.31049  -3357462.51646  22259567.015    22259566.483    22259583.076
       220.000         167.000
    984224.52949    865553.13046  21175024.242    21175022.536    21175035.890
       228.000         177.000
 01 12  3 17 40 29.9940000  0  9G20G13G27G 2G 1G 3G31G 8G22
   5317581.28549   4150372.61946  21510163.510    21510161.881    21510175.511
       226.000         173.000
 -23113071.14749 -17993878.90347  19044965.469    19044965.355    19044973.368
       242.000         205.000
 -23400084.52249 -18200278.85647  20494873.664    20494873.167    20494883.961
       240.000         199.000
  -5303508.56649  -4097221.54645  22546518.161    22546518.557    22546538.827
       215.000         161.000
 -12565294.13049  -9775677.27247  18929451.712    18929450.954    18929460.324
       242.000         209.000
 -15955442.47449 -12121203.97746  21752847.940    21752847.369    21752862.873
       222.000         168.000
 -13616733.13849 -10279085.22145  22196729.427    22196729.316    22196747.151
       214.000         153.000
  -4460050.51249  -3454443.44246  22235883.089    22235882.555    22235899.123
       223.000         167.000
   1039911.86749    908945.59746  21185621.341    21185619.691    21185633.070
       226.000         177.000
 01 12  3 17 40 59.9940000  0  9G20G13G27G 2G 1G 3G31G 8G22
   5380654.79849   4199520.51346  21522166.177    21522164.559    21522178.283
       225.000         174.000
 -23198548.45649 -18060484.61447  19028699.726    19028699.568    19028707.531
       242.000         204.000
 -23492629.06649 -18272391.45747  20477263.033    20477262.505    20477273.231
       240.000         199.000
  -5442084.89349  -4205202.63546  22520147.546    22520147.983    22520168.142
       211.000         163.000
 -12590534.76749  -9795345.34547  18924648.598    18924647.852    18924657.251
       242.000         209.000
 -16043871.18649 -12190109.46146  21736020.502    21736019.935    21736035.450
       222.000         168.000
 -13749116.62349 -10382241.07045  22171537.653    22171537.413    22171555.064
       216.000         152.000
  -4584392.50149  -3551333.02546  22212221.362    22212220.894    22212237.467
       222.000         168.000
   1095869.40949    952548.60046  21196269.945    21196268.250    21196281.650
       227.000         176.000
 01 12  3 17 41 29.9940000  0  9G20G13G27G 2G 1G 3G31G 8G22
   5443875.77049   4248783.30246  21534196.952    21534195.316    21534209.102
       225.000         173.000
 -23283724.29649 -18126855.40747  19012491.286    19012491.151    19012499.086
       241.000         204.000
 -23585033.53149 -18344394.91347  20459679.001    20459678.488    20459689.179
       240.000         200.000
  -5580514.51249  -4313069.47545  22493804.924    22493805.355    22493825.322
       214.000         162.000
 -12615411.78849  -9814730.08547  18919914.744    18919913.957    18919923.362
       242.000         209.000
 -16131909.57249 -12258710.79546  21719267.374    21719266.795    21719282.271
       221.000         168.000
 -13881404.11949 -10485322.13145  22146364.292    22146363.829    22146381.208
       217.000         153.000
  -4708624.63849  -3648137.02946  22188580.558    22188580.126    22188596.733
       221.000         167.000
   1152086.58849    996353.91146  21206967.918    21206966.208    21206979.667
       226.000         176.000
 01 12  3 17 41 59.9940000  0  9G20G13G27G 2G 1G 3G31G 8G22
   5507303.38649   4298207.11646  21546266.945    21546265.389    21546279.238
       225.000         173.000
 -23368534.80649 -18192941.53547  18996352.395    18996352.266    18996360.160
       242.000         204.000
 -23677235.92249 -18416240.92347  20442133.413    20442132.904    20442143.603
       240.000         201.000
  -5718733.51149  -4420772.21746  22467502.409    22467502.794    22467522.590
       215.000         163.000
 -12639862.27949  -9833782.46647  18915262.048    18915261.234    18915270.640
       243.000         209.000
 -16219492.94249 -12326957.53846  21702600.695    21702600.191    21702615.719
       221.000         169.000
 -14013530.48949 -10588277.64445  22121221.416    22121220.934    22121238.018
       216.000         153.000
  -4832684.59649  -3744806.85446  22164972.473    22164972.120    22164988.716
       223.000         168.000
   1208622.71749   1040407.74146  21217726.586    21217724.887    21217738.369
       226.000         176.000
 01 12  3 17 42 29.9940000  0  9G20G13G27G 2G 1G 3G31G 8G22
   5570864.47849   4347734.91946  21558362.357    21558360.836    21558374.766
       224.000         174.000
 -23453048.59549 -18258796.45647  18980269.966    18980269.830    18980277.716
       241.000         204.000
 -23769306.94249 -18487984.57847  20424612.867    20424612.344    20424623.041
       241.000         201.000
  -5856810.71649  -4528364.50146  22441226.757    22441227.226    22441246.917
       216.000         165.000
 -12663956.15549  -9852556.96547  18910677.200    18910676.377    18910685.764
       243.000         209.000
 -16306689.42549 -12394902.81046  21686007.750    21686007.230    21686022.795
       222.000         171.000
 -14145562.81749 -10691159.88545  22096096.275    22096095.850    22096112.792
       217.000         153.000
  -4956642.69149  -3841397.37046  22141383.815    22141383.476    22141400.045
       223.000         169.000
   1265404.29849   1084652.83146  21228531.972    21228530.275    21228543.790
       226.000         175.000
 01 12  3 17 42 59.9940000  0  9G20G13G27G 2G 1G 3G31G 8G22
   5634583.26449   4397385.59946  21570487.826    21570486.339    21570500.320
       224.000         173.000
 -23537236.71349 -18324397.59947  18964249.464    18964249.350    18964257.239
       241.000         204.000
 -23861219.37249 -18559604.65747  20407122.506    20407121.975    20407132.659
       240.000         202.000
  -5994716.92049  -4635823.55946  22414983.893    22414984.242    22415003.855
       219.000         167.000
 -12687665.41649  -9871031.76047  18906165.535    18906164.696    18906174.077
       243.000         209.000
 -16393469.44749 -12462523.54046  21669494.080    21669493.541    21669509.122
       223.000         170.000
 -14277470.30549 -10793944.86445  22070994.891    22070994.559    22071011.424
       216.000         154.000
  -5080471.54449  -3937887.19446  22117819.783    22117819.460    22117835.974
       225.000         169.000
   1322455.80249   1129108.24246  21239388.792    21239387.039    21239400.601
       226.000         176.000
 01 12  3 17 43 29.9940000  0  9G20G13G27G 2G 1G 3G31G 8G22
   5698512.41549   4447200.18746  21582653.343    21582651.871    21582665.890
       223.000         173.000
 -23621042.10449 -18389700.51247  18948301.802    18948301.699    18948309.623
       241.000         204.000
 -23952918.04349 -18631058.17047  20389672.847    20389672.284    20389682.950
       241.000         202.000
  -6132395.12449  -4743104.95746  22388784.376    22388784.682    22388804.243
       222.000         170.000
 -12710933.73249  -9889162.95947  18901737.776    18901736.928    18901746.316
       244.000         209.000
 -16479774.83649 -12529774.40346  21653070.712    21653070.176    21653085.698
       223.000         170.000
 -14409194.31149 -10896586.89545  22045928.439    22045928.124    22045944.987
       215.000         154.000
  -5204115.65549  -4034233.09446  22094291.035    22094290.661    22094307.135
       226.000         171.000
   1379829.75549   1173814.90046  21250306.909    21250305.150    21250318.781
       225.000         175.000
 01 12  3 17 43 59.9940000  0  9G20G13G27G 2G 1G 3G31G 8G22
   5762543.80949   4497094.45946  21594838.348    21594836.880    21594850.952
       225.000         172.000
 -23704568.15749 -18454785.75347  18932407.257    18932407.201    18932415.169
       241.000         204.000
 -24044508.37949 -18702427.27147  20372243.796    20372243.235    20372253.849
       240.000         202.000
  -6269948.84649  -4850289.38446  22362608.607    22362608.808    22362628.316
       223.000         170.000
 -12733865.64449  -9907032.03047  18897374.006    18897373.165    18897382.569
       244.000         209.000
 -16565708.45149 -12596735.56146  21636718.016    21636717.531    21636733.004
       222.000         168.000
 -14540837.00649 -10999165.57445  22020877.454    22020877.160    22020894.104
       215.000         156.000
  -5327679.79349  -4130516.71146  22070777.400    22070777.059    22070793.527
       225.000         169.000
   1437418.17949   1218688.68446  21261265.921    21261264.086    21261277.768
       225.000         175.000
 01 12  3 17 44 29.9940000  0  9G20G13G27G 2G 1G 3G31G 8G22
   5826651.66049   4547048.31246  21607038.054    21607036.466    21607050.549
       224.000         172.000
 -23787835.52949 -18519669.41747  18916561.969    18916561.929    18916569.928
       240.000         204.000
 -24136013.27949 -18773729.80247  20354831.002    20354830.433    20354840.991
       240.000         202.000
  -6407398.88649  -4957393.02146  22336452.642    22336452.714    22336472.128
       223.000         171.000
 -12756483.16649  -9924656.12347  18893070.068    18893069.231    18893078.632
       243.000         209.000
 -16651290.84249 -12663423.01746  21620432.111    21620431.678    21620447.198
       222.000         170.000
 -14672417.75349 -11101695.99045  21995838.290    21995838.014    21995854.994
       216.000         157.000
  -5451186.74349  -4226755.79646  22047274.656    22047274.284    22047290.692
       223.000         167.000
   1495195.44249   1263709.60246  21272260.812    21272258.939    21272272.708
       223.000         174.000
 01 12  3 17 44 59.9940000  0  9G20G13G27G 2G 1G 3G31G 8G22
   5890927.31049   4597132.90146  21619269.534    21619267.978    21619282.145
       223.000         172.000
 -23870748.66749 -18584277.04947  18900784.139    18900784.075    18900792.118
       240.000         204.000
 -24227338.98549 -18844892.70247  20337452.291    20337451.731    20337462.250
       240.000         203.000
  -6544649.76249  -5064341.45146  22310334.595    22310334.519    22310353.826
       223.000         170.000
 -12778691.53249  -9941961.39547  18888843.998    18888843.157    18888852.549
       244.000         209.000
 -16736425.68349 -12729761.71946  21604231.457    21604231.019    21604246.555
       223.000         170.000
 -14803839.27649 -11204102.32645  21970829.598    21970829.256    21970846.149
       216.000         156.000
  -5574542.19749  -4322876.87946  22023800.901    22023800.468    22023816.763
       222.000         165.000
   1553252.56749   1308948.58446  21283308.889    21283307.035    21283320.891
       224.000         173.000
 01 12  3 17 45 29.9940000  0  9G20G13G27G 2G 1G 3G31G 8G22
   5955344.58849   4647327.84546  21631528.041    21631526.446    21631540.708
       223.000         171.000
 -23953329.31949 -18648625.60347  18885069.619    18885069.521    18885077.547
       239.000         204.000
 -24318508.92649 -18915934.23147  20320103.223    20320102.658    20320113.194
       240.000         204.000
  -6681723.01149  -5171151.47546  22284250.230    22284250.120    22284269.340
       223.000         171.000
 -12800513.41049  -9958965.51347  18884691.500    18884690.648    18884700.016
       242.000         209.000
 -16821133.71549 -12795767.83146  21588112.037    21588111.580    21588127.137
       223.000         170.000
 -14935121.56649 -11306400.14545  21945847.418    21945847.001    21945863.866
       216.000         158.000
  -5697769.45949  -4418898.09746  22000351.366    22000350.974    22000367.219
       221.000         164.000
   1611563.53649   1354385.36046  21294405.197    21294403.440    21294417.414
       223.000         172.000
 01 12  3 17 45 59.9940000  0  9G20G13G27G 2G 1G 3G31G 8G22
   6019972.94649   4697687.28846  21643826.776    21643825.071    21643839.424
       224.000         172.000
 -24035502.79549 -18712656.87447  18869432.563    18869432.446    18869440.478
       239.000         204.000
 -24409450.77149 -18986798.02647  20302797.628    20302797.008    20302807.551
       240.000         204.000
  -6818544.28049  -5277765.14546  22258213.752    22258213.629    22258232.790
       224.000         169.000
 -12821875.64349  -9975611.46147  18880626.437    18880625.592    18880634.956
       241.000         209.000
 -16905340.35949 -12861383.24046  21572087.977    21572087.513    21572103.078
       223.000         170.000
 -15066188.86449 -11408530.42245  21920906.156    21920905.685    21920922.498
       217.000         159.000
  -5820795.48849  -4514762.54946  21976940.307    21976939.850    21976955.923
       221.000         163.000
   1670198.07349   1400074.27546  21305563.241    21305561.422    21305575.510
       222.000         172.000
 01 12  3 17 46 29.9940000  0  9G20G13G27G 2G 1G 3G31G 8G22
   6084642.25149   4748078.61546  21656133.197    21656131.494    21656145.957
       223.000         170.000
 -24117434.92049 -18776500.07947  18853841.446    18853841.293    18853849.296
       239.000         204.000
 -24500332.15549 -19057614.69847  20285503.513    20285502.868    20285513.415
       241.000         204.000
  -6955279.40449  -5384311.69746  22232193.676    22232193.520    22232212.592
       221.000         166.000
 -12842945.04349  -9992029.22547  18876617.097    18876616.248    18876625.633
       241.000         209.000
 -16989210.50149 -12926736.44046  21556127.913    21556127.491    21556143.017
       222.000         169.000
 -15197205.35649 -11510621.05745  21895974.656    21895974.044    21895990.796
       219.000         161.000
  -5943787.74049  -4610600.70446  21953535.656    21953535.171    21953551.111
       222.000         163.000
   1728985.81049   1445882.56046  21316750.419    21316748.566    21316762.744
       223.000         172.000
 01 12  3 17 46 59.9940000  0  9G20G13G27G 2G 1G 3G31G 8G22
   6149499.13549   4798616.10146  21668475.353    21668473.613    21668488.174
       222.000         169.000
 -24198974.34649 -18840037.28847  18838325.011    18838324.868    18838332.845
       238.000         204.000
 -24591003.67849 -19128267.84747  20268249.318    20268248.667    20268259.209
       240.000         204.000
  -7091777.10049  -5490673.25046  22206218.625    22206218.582    22206237.573
       220.000         167.000
 -12863571.18049 -10008101.59247  18872692.044    18872691.258    18872700.681
       241.000         209.000
 -17072592.24149 -12991709.06846  21540260.821    21540260.385    21540275.894
       224.000         171.000
 -15328018.11449 -11612552.90645  21871081.817    21871081.147    21871097.830
       218.000         162.000
  -6066596.33649  -4706295.77545  21930165.910    21930165.420    21930181.222
       222.000         162.000
   1788073.52449   1491924.59346  21327994.620    21327992.815    21328007.082
       222.000         172.000
 01 12  3 17 47 29.9940000  0  9G20G13G27G 2G 1G 3G31G 8G22
   6214417.71749   4849201.66746  21680829.205    21680827.464    21680842.101
       221.000         168.000
 -24280242.51849 -18903363.13047  18822860.183    18822860.035    18822868.018
       238.000         204.000
 -24681588.66149 -19198853.55347  20251011.578    20251010.928    20251021.470
       240.000         204.000
  -7228158.94949  -5596944.54346  22180265.701    22180265.727    22180284.569
       222.000         163.000
 -12883876.50149 -10023923.97147  18868828.087    18868827.315    18868836.774
       241.000         210.000
 -17155606.69649 -13056395.48246  21524463.530    21524463.166    21524478.693
       223.000         170.000
 -15458746.74649 -11714419.14946  21846204.836    21846204.235    21846220.929
       217.000         163.000
  -6189344.19949  -4801943.50245  21906807.664    21906807.184    21906822.985
       220.000         160.000
   1847335.10649   1538102.11646  21339271.971    21339270.149    21339284.532
       223.000         173.000
 01 12  3 17 47 59.9940000  0  9G20G13G27G 2G 1G 3G31G 8G22
   6279461.93849   4899885.13646  21693206.908    21693205.207    21693219.870
       221.000         167.000
 -24361170.57049 -18966423.94247  18807460.034    18807459.945    18807467.900
       237.000         204.000
 -24772020.36949 -19269319.81047  20233802.985    20233802.338    20233812.891
       240.000         203.000
  -7364356.19049  -5703071.99946  22154347.963    22154347.983    22154366.673
       221.000         163.000
 -12903793.49849 -10039443.76147  18865038.049    18865037.280    18865046.747
       241.000         209.000
 -17238184.53349 -13120741.68046  21508749.430    21508749.055    21508764.576
       224.000         169.000
 -15589321.14149 -11816165.15746  21821357.200    21821356.671    21821373.360
       217.000         163.000
  -6311964.23749  -4897491.63746  21883473.756    21883473.272    21883489.108
       221.000         163.000
   1906834.88649   1584465.24446  21350594.689    21350592.830    21350607.327
       221.000         174.000
 01 12  3 17 48 29.9940000  0  9G20G13G27G 2G 1G 3G31G 8G22
   6344571.98549   4950619.88646  21705597.149    21705595.490    21705610.180
       219.000         166.000
 -24441813.73849 -19029262.76847  18792114.151    18792114.042    18792122.037
       237.000         204.000
 -24862355.99649 -19339711.19947  20216612.606    20216612.016    20216622.611
       240.000         204.000
  -7500424.13049  -5809098.69945  22128454.835    22128454.878    22128473.403
       222.000         160.000
 -12923378.60449 -10054704.93447  18861311.186    18861310.408    18861319.889
       242.000         210.000
 -17320380.45349 -13184790.28646  21493107.914    21493107.574    21493123.085
       223.000         169.000
 -15719795.02249 -11917832.81145  21796528.698    21796528.180    21796544.873
       217.000         162.000
  -6434513.38649  -4992984.51046  21860153.520    21860152.908    21860168.766
       222.000         164.000
   1966512.94349   1630967.27246  21361951.288    21361949.429    21361964.065
       224.000         173.000
 01 12  3 17 48 59.9940000  0  9G20G13G27G 2G 1G 3G31G 8G22
   6409866.95249   5001498.72446  21718022.565    21718020.932    21718035.650
       220.000         165.000
 -24522048.47449 -19091783.33547  18776845.984    18776845.873    18776853.886
       237.000         204.000
 -24952473.78849 -19409932.85347  20199463.748    20199463.148    20199473.799
       240.000         204.000
  -7636239.10149  -5914928.32345  22102609.940    22102609.862    22102628.275
       218.000         158.000
 -12942509.25349 -10069611.98147  18857670.811    18857670.013    18857679.503
       242.000         210.000
 -17402070.27349 -13248444.53046  21477562.705    21477562.411    21477577.852
       222.000         169.000
 -15850043.18749 -12019324.52745  21771742.965    21771742.607    21771759.356
       216.000         162.000
  -6556869.35849  -5088326.84946  21836870.130    21836869.412    21836885.203
       222.000         165.000
   2026488.33849   1677701.00846  21373364.436    21373362.590    21373377.390
       222.000         173.000
 01 12  3 17 49 29.9940000  0  9G20G13G27G 2G 1G 3G31G 8G22
   6475220.38649   5052423.13146  21730459.231    21730457.497    21730472.236
       221.000         166.000
 -24601996.50049 -19154080.49347  18761632.371    18761632.255    18761640.302
       237.000         204.000
 -25042497.37249 -19480081.08847  20182332.827    20182332.226    20182342.907
       240.000         204.000
  -7771923.02249  -6020655.83945  22076789.786    22076789.802    22076808.096
       218.000         158.000
 -12961308.30449 -10084260.63847  18854093.505    18854092.712    18854102.234
       242.000         209.000
 -17483375.43449 -13311799.06046  21462090.761    21462090.462    21462105.825
       223.000         170.000
 -15980185.73849 -12120733.92245  21746977.388    21746977.066    21746993.877
       216.000         162.000
  -6679155.60249  -5183614.80346  21813599.825    21813599.097    21813614.912
       220.000         165.000
   2086634.98349   1724568.17846  21384810.139    21384808.347    21384823.293
       222.000         173.000
 01 12  3 17 49 59.9940000  0  9G20G13G27G 2G 1G 3G31G 8G22
   6540705.83549   5103450.39646  21742920.840    21742919.162    21742933.955
       219.000         165.000
 -24681579.54949 -19216093.25647  18746488.237    18746488.108    18746496.190
       237.000         205.000
 -25132350.57249 -19550096.55047  20165234.351    20165233.738    20165244.417
       240.000         204.000
  -7907397.88749  -6126220.43445  22051009.491    22051009.546    22051027.766
       218.000         158.000
 -12979698.73949 -10098590.89147  18850593.977    18850593.165    18850602.733
       242.000         210.000
 -17564217.30949 -13374792.60146  21446706.944    21446706.691    21446721.991
       224.000         171.000
 -16110143.11249 -12221999.00946  21722247.050    21722246.797    21722263.611
       216.000         163.000
  -6801295.52249  -5278788.71446  21790357.272    21790356.572    21790372.421
       222.000         168.000
   2147026.25949   1771625.95046  21396302.393    21396300.659    21396315.719
       221.000         173.000
 01 12  3 17 50 29.9940000  0  9G20G13G27G 2G 1G 3G31G 8G22
   6606262.31449   5154533.00046  21755396.066    21755394.385    21755409.218
       220.000         164.000
 -24760853.93649 -19277865.50047  18731402.841    18731402.694    18731410.794
       237.000         205.000
 -25222091.63049 -19620024.61647  20148157.165    20148156.574    20148167.291
       240.000         204.000
  -8042720.06249  -6231666.07145  22025258.370    22025258.350    22025276.469
       219.000         159.000
 -12997738.15349 -10112647.62147  18847161.221    18847160.417    18847170.009
       242.000         209.000
 -17644651.66049 -13437468.61246  21431400.715    21431400.455    21431415.742
       224.000         172.000
 -16239970.00749 -12323162.41346  21697541.671    21697541.368    21697558.139
       218.000         163.000
  -6923347.02949  -5373893.70146  21767131.721    21767130.926    21767146.774
       221.000         167.000
   2207601.26649   1818826.91146  21407829.729    21407827.957    21407843.135
       222.000         173.000
 01 12  3 17 50 59.9930000  0  9G20G13G27G 2G 1G 3G31G 8G22
   6671895.30849   5205675.23845  21767885.806    21767884.138    21767899.014
       218.000         162.000
 -24839804.94149 -19339385.76247  18716378.982    18716378.839    18716386.946
       237.000         205.000
 -25311707.18749 -19689854.88847  20131103.852    20131103.278    20131114.005
       239.000         203.000
  -8177873.17749  -6336980.00045  21999539.407    21999539.376    21999557.352
       219.000         161.000
 -13015414.91749 -10126421.76947  18843797.463    18843796.668    18843806.296
       241.000         210.000
 -17724663.19749 -13499815.16846  21416174.904    21416174.645    21416189.929
       223.000         170.000
 -16369648.40749 -12424210.10546  21672864.528    21672864.180    21672880.868
       218.000         164.000
  -7045295.52549  -5468918.36746  21743925.598    21743924.845    21743940.700
       221.000         166.000
   2268365.67649   1866175.46046  21419393.106    21419391.306    21419406.590
       222.000         174.000
 01 12  3 17 51 29.9930000  0  9G20G13G27G 2G 1G 3G31G 8G22
   6737670.99149   5256928.63345  21780402.548    21780401.028    21780416.034
       218.000         162.000
 -24918371.40549 -19400606.37847  18701428.269    18701428.137    18701436.260
       237.000         205.000
 -25401138.67749 -19759541.72447  20114085.529    20114084.989    20114095.711
       240.000         203.000
  -8312799.65649  -6442117.31645  21973863.595    21973863.510    21973881.388
       220.000         162.000
 -13032664.81449 -10139863.29847  18840514.927    18840514.156    18840523.806
       241.000         210.000
 -17804190.42649 -13561784.34746  21401041.191    21401041.023    21401056.233
       225.000         171.000
 -16499118.94349 -12525095.82246  21648226.863    21648226.534    21648243.236
       220.000         164.000
  -7167084.12949  -5563818.41446  21720749.874    21720749.187    21720765.036
       220.000         168.000
   2329385.45149   1913722.99546  21431005.062    21431003.245    21431018.673
       223.000         174.000
 01 12  3 17 51 59.9930000  0  9G20G13G27G 2G 1G 3G31G 8G22
   6803562.02249   5308271.90446  21792941.358    21792939.903    21792955.023
       216.000         163.000
 -24996571.06949 -19461541.17447  18686547.384    18686547.228    18686555.380
       238.000         205.000
 -25490405.76849 -19829100.45047  20097098.531    20097097.998    20097108.719
       240.000         203.000
  -8447515.87949  -6547090.79146  21948227.858    21948227.676    21948245.505
       220.000         164.000
 -13049509.20149 -10152988.83747  18837309.561    18837308.813    18837318.482
       241.000         210.000
 -17883250.99849 -13623389.90546  21385996.391    21385996.208    21386011.339
       225.000         171.000
 -16628396.34849 -12625831.07546  21623625.993    21623625.634    21623642.282
       218.000         164.000
  -7288731.21249  -5658608.14046  21697601.174    21697600.490    21697616.339
       221.000         168.000
   2390633.46049   1961448.37446  21442660.536    21442658.611    21442674.166
       222.000         174.000
 01 12  3 17 52 29.9930000  0  9G20G13G27G 2G 1G 3G31G 8G22
   6869573.07949   5359708.72045  21805503.116    21805501.637    21805516.836
       219.000         161.000
 -25074394.87349 -19522183.09447  18671738.029    18671737.862    18671745.999
       237.000         205.000
 -25579501.03349 -19898525.28547  20080144.246    20080143.709    20080154.440
       240.000         204.000
  -8582012.70049  -6651893.31746  21922633.797    21922633.583    21922651.317
       223.000         165.000
 -13065939.92049 -10165792.04247  18834182.937    18834182.171    18834191.867
       241.000         210.000
 -17961835.48749 -13684624.49246  21371042.173    21371041.985    21371057.094
       225.000         172.000
 -16757469.75349 -12726407.38146  21599063.768    21599063.525    21599080.156
       216.000         163.000
  -7410228.98049  -5753281.52746  21674480.761    21674480.129    21674496.071
       220.000         169.000
   2452114.36749   2009355.23346  21454360.237    21454358.299    21454373.942
       223.000         173.000
 01 12  3 17 52 59.9930000  0  9G20G13G27G 2G 1G 3G31G 8G22
   6935595.20049   5411154.15445  21818067.036    21818065.495    21818080.791
       217.000         162.000
 -25151947.19949 -19582613.47147  18656980.333    18656980.162    18656988.276
       237.000         205.000
 -25668530.70649 -19967899.00247  20063202.455    20063201.909    20063212.633
       240.000         204.000
  -8716394.36649  -6756606.09146  21897061.753    21897061.461    21897079.105
       225.000         168.000
 -13082062.46649 -10178355.11447  18831114.955    18831114.183    18831123.906
       241.000         210.000
 -18040047.38049 -13745568.75546  21356158.886    21356158.657    21356173.781
       225.000         173.000
 -16886441.79249 -12826904.72345  21574520.672    21574520.618    21574537.297
       217.000         162.000
  -7531683.18249  -5847920.93046  21651368.619    21651368.040    21651384.085
       223.000         171.000
   2513719.54949   2057358.92546  21466083.463    21466081.637    21466097.373
       222.000         173.000
 01 12  3 17 53 29.9930000  0  9G20G13G27G 2G 1G 3G31G 8G22
   7001712.65149   5462673.84845  21830649.056    21830647.457    21830662.977
       217.000         161.000
 -25229139.07449 -19642762.97747  18642291.223    18642291.057    18642299.149
       237.000         205.000
 -25757408.20849 -20037154.14747  20046289.585    20046289.055    20046299.777
       240.000         204.000
  -8850572.35749  -6861160.13746  21871528.536    21871528.135    21871545.662
       225.000         169.000
 -13097789.47449 -10190609.97747  18828122.259    18828121.480    18828131.216
       241.000         210.000
 -18117798.01649 -13806153.60646  21341363.392    21341363.134    21341378.267
       227.000         174.000
 -17015222.45249 -12927252.98146  21550014.152    21550014.176    21550030.827
       218.000         163.000
  -7653007.05249  -5942458.77546  21628281.448    21628280.828    21628296.822
       224.000         171.000
   2575532.92549   2105524.85146  21477846.385    21477844.578    21477860.419
       221.000         173.000
 01 12  3 17 53 59.9930000  0  9G20G13G27G 2G 1G 3G31G 8G22
   7067915.09049   5514259.77045  21843247.208    21843245.599    21843261.308
       216.000         160.000
 -25305976.34249 -19702636.17047  18627669.586    18627669.421    18627677.506
       237.000         206.000
 -25846140.96349 -20106296.49847  20029404.247    20029403.746    20029414.465
       240.000         203.000
  -8984552.41949  -6965559.94046  21846032.896    21846032.469    21846049.892
       223.000         170.000
 -13113127.60049 -10202561.81947  18825203.535    18825202.776    18825212.537
       241.000         210.000
 -18195092.41649 -13866382.96246  21326654.743    21326654.454    21326669.534
       226.000         174.000
 -17143815.57149 -13027455.11945  21525543.301    21525543.444    21525559.973
       218.000         161.000
  -7774207.71049  -6036900.61346  21605217.512    21605216.966    21605232.966
       225.000         173.000
   2637544.45649   2153845.18746  21489647.001    21489645.214    21489661.179
       222.000         173.000
 01 12  3 17 54 29.9930000  0  9G20G13G27G 2G 1G 3G31G 8G22
   7134145.40249   5565867.40645  21855850.728    21855849.136    21855864.944
       216.000         159.000
 -25382511.78649 -19762274.16847  18613105.388    18613105.210    18613113.302
       237.000         206.000
 -25934783.46249 -20175368.52647  20012536.093    20012535.604    20012546.312
       240.000         203.000
  -9118387.63149  -7069846.84646  21820564.875    21820564.333    21820581.715
       226.000         173.000
 -13128130.91849 -10214252.76947  18822348.536    18822347.781    18822357.566
       241.000         210.000
 -18271983.15149 -13926297.77646  21312022.875    21312022.570    21312037.614
       226.000         174.000
 -17272272.26049 -13127550.99746  21501098.577    21501098.716    21501115.119
       217.000         163.000
  -7895339.42549  -6131288.71646  21582166.822    21582166.253    21582182.192
       225.000         174.000
   2699697.01349   2202275.42346  21501474.489    21501472.699    21501488.780
       222.000         172.000
 01 12  3 17 54 59.9930000  0  9G20G13G27G 2G 1G 3G31G 8G22
   7200483.97149   5617559.39945  21868475.019    21868473.276    21868489.186
       218.000         160.000
 -25458660.25749 -19821610.62847  18598614.779    18598614.633    18598622.748
       237.000         206.000
 -26023252.50649 -20244305.39547  19995700.952    19995700.468    19995711.162
       240.000         203.000
  -9251992.92049  -7173954.56546  21795140.449    21795139.926    21795157.342
       225.000         173.000
 -13142715.73249 -10225617.61547  18819573.162    18819572.410    18819582.236
       241.000         209.000
 -18348384.87749 -13985831.54346  21297484.081    21297483.746    21297498.747
       226.000         174.000
 -17400505.94349 -13227473.10746  21476696.306    21476696.410    21476712.770
       217.000         164.000
  -8016318.69249  -6225558.02946  21559145.063    21559144.521    21559160.441
       227.000         174.000
   2762071.01749   2250878.18646  21513344.204    21513342.343    21513358.501
       223.000         172.000
 01 12  3 17 55 29.9930000  0  9G20G13G27G 2G 1G 3G31G 8G22
   7266870.61549   5669288.83845  21881108.490    21881106.618    21881122.560
       218.000         159.000
 -25534477.25649 -19880688.79847  18584187.302    18584187.152    18584195.286
       237.000         207.000
 -26111605.42649 -20313151.77547  19978887.918    19978887.429    19978898.109
       240.000         203.000
  -9385424.00049  -7277926.51346  21769749.139    21769748.642    21769766.070
       225.000         174.000
 -13156938.65449 -10236700.46547  18816866.685    18816865.906    18816875.758
       241.000         209.000
 -18424352.63349 -14045027.13546  21283027.817    21283027.500    21283042.491
       226.000         174.000
 -17528570.41849 -13327263.41546  21452326.398    21452326.390    21452342.647
       219.000         165.000
  -8137202.81949  -6319753.22546  21536141.584    21536140.975    21536156.763
       227.000         175.000
   2824606.60049   2299606.85346  21525244.687    21525242.758    21525258.971
       222.000         172.000
 01 12  3 17 55 59.9930000  0  9G20G13G27G 2G 1G 3G31G 8G22
   7333363.64949   5721101.17845  21893762.079    21893760.157    21893776.126
       219.000         160.000
 -25609899.73449 -19939459.55347  18569834.866    18569834.754    18569842.891
       237.000         207.000
 -26199781.30149 -20381860.20547  19962108.596    19962108.098    19962118.737
       239.000         203.000
  -9518618.01349  -7381713.74246  21744402.916    21744402.485    21744419.906
       226.000         174.000
 -13170738.01349 -10247453.27747  18814240.818    18814240.020    18814249.887
       241.000         209.000
 -18499823.37549 -14103835.45646  21268666.194    21268665.881    21268680.836
       226.000         172.000
 -17656401.42249 -13426871.82746  21428000.879    21428000.797    21428016.971
       220.000         166.000
  -8257930.13449  -6413826.23946  21513167.731    21513167.209    21513182.988
       225.000         175.000
   2887362.13549   2348506.90746  21537187.033    21537185.016    21537201.280
       222.000         172.000
 01 12  3 17 56 29.9930000  0  9G20G13G27G 2G 1G 3G31G 8G22
   7399934.71849   5772974.32745  21906430.407    21906428.512    21906444.562
       218.000         159.000
 -25684951.90949 -19997941.75147  18555552.891    18555552.810    18555560.955
       237.000         207.000
 -26287805.91949 -20450450.78047  19945358.019    19945357.533    19945368.158
       240.000         203.000
  -9651599.12749  -7485335.06146  21719097.182    21719096.814    21719114.240
       225.000         173.000
 -13184139.11049 -10257895.75947  18811690.697    18811689.916    18811699.788
       241.000         209.000
 -18574820.90049 -14162275.06146  21254394.623    21254394.242    21254409.235
       227.000         175.000
 -17784021.27449 -13526315.73246  21403715.464    21403715.354    21403731.444
       220.000         167.000
  -8378526.58149  -6507797.30146  21490218.712    21490218.279    21490234.115
       224.000         175.000
   2950309.28749   2397556.27446  21549165.791    21549163.729    21549180.092
       222.000         172.000
 01 12  3 17 56 59.9930000  0  9G20G13G27G 2G 1G 3G31G 8G22
   7466547.69849   5824880.12445  21919106.770    21919104.859    21919120.999
       218.000         159.000
 -25759665.29849 -20056159.96647  18541335.434    18541335.332    18541343.499
       237.000         207.000
 -26375712.72049 -20518949.55447  19928629.861    19928629.390    19928640.018
       240.000         203.000
  -9784399.25549  -7588815.35546  21693825.911    21693825.617    21693842.987
       226.000         174.000
 -13197174.63749 -10268053.37947  18809210.162    18809209.370    18809219.256
       241.000         209.000
 -18649376.48849 -14220370.30146  21240207.154    21240206.757    21240221.700
       227.000         175.000
 -17911459.96449 -13625618.49546  21379464.558    21379464.426    21379480.419
       221.000         168.000
  -8499025.15649  -6601692.12146  21467288.395    21467287.984    21467303.857
       226.000         176.000
   3013412.06249   2446726.90846  21561174.090    21561172.075    21561188.494
       220.000         171.000
 01 12  3 17 57 29.9930000  0  9G20G13G27G 2G 1G 3G31G 8G22
   7533231.13049   5876840.80245  21931796.595    21931794.613    21931810.765
       219.000         159.000
 -25834006.49249 -20114088.16547  18527188.815    18527188.670    18527196.849
       237.000         207.000
 -26463470.42849 -20587332.16147  19911930.064    19911929.599    19911940.243
       240.000         203.000
  -9916985.23249  -7692128.77746  21668595.441    21668595.153    21668612.438
       224.000         171.000
 -13209812.62349 -10277901.23047  18806805.305    18806804.487    18806814.380
       241.000         209.000
 -18723456.55349 -14278095.01246  21226110.143    21226109.747    21226124.652
       227.000         175.000
 -18038682.39949 -13724752.77046  21355254.774    21355254.638    21355270.546
       220.000         168.000
  -8619394.30149  -6695486.08746  21444382.712    21444382.366    21444398.219
       226.000         177.000
   3076699.09549   2496041.11246  21573217.327    21573215.430    21573231.964
       219.000         169.000
 01 12  3 17 57 59.9930000  0  9G20G13G27G 2G 1G 3G31G 8G22
   7599984.70049   5928856.14745  21944499.727    21944497.756    21944513.893
       218.000         158.000
 -25907971.55949 -20171723.27747  18513113.784    18513113.607    18513121.794
       237.000         208.000
 -26551076.64249 -20655596.71347  19895259.147    19895258.664    19895269.304
       240.000         203.000
 -10049353.24449  -7795272.39246  21643406.465    21643406.165    21643423.328
       225.000         172.000
 -13222050.36149 -10287437.19947  18804476.575    18804475.766    18804485.688
       242.000         209.000
 -18797056.75349 -14335445.81446  21212104.431    21212104.036    21212118.950
       228.000         175.000
 -18165683.04849 -13823714.22646  21331087.123    21331087.014    21331102.926
       220.000         168.000
  -8739631.32149  -6789177.12546  21421502.305    21421501.903    21421517.672
       227.000         177.000
   3140170.14749   2545498.70846  21585295.670    21585293.819    21585310.475
       219.000         169.000
 01 12  3 17 58 29.9930000  0  9G20G13G27G 2G 1G 3G31G 8G22
   7666771.56749   5980897.42345  21957209.042    21957207.190    21957223.391
       217.000         157.000
 -25981593.01549 -20229090.64647  18499104.113    18499103.937    18499112.100
       236.000         207.000
 -26638565.63549 -20723769.94147  19878610.512    19878610.035    19878620.659
       240.000         203.000
 -10181535.91249  -7898271.59546  21618252.692    21618252.418    21618269.414
       224.000         170.000
 -13233921.69449 -10296687.66547  18802217.585    18802216.779    18802226.707
       241.000         209.000
 -18870209.21449 -14392447.74446  21198184.013    21198183.558    21198198.446
       227.000         175.000
 -18292492.68449 -13922526.86346  21306955.943    21306955.806    21306971.651
       220.000         168.000
  -8859770.30849  -6882791.78846  21398640.489    21398640.094    21398655.709
       227.000         177.000
   3203788.36549   2595070.96446  21597401.927    21597400.203    21597416.975
       218.000         166.000
 01 12  3 17 58 59.9930000  0  9G20G13G27G 2G 1G 3G31G 8G22
   7733635.28649   6032998.58845  21969933.016    21969931.198    21969947.518
       218.000         158.000
 -26054822.66649 -20286152.71147  18485168.956    18485168.801    18485176.955
       236.000         207.000
 -26725891.19049 -20791815.81747  19861992.980    19861992.506    19862003.122
       240.000         203.000
 -10313485.25549  -8001088.98246  21593143.312    21593143.050    21593159.993
       226.000         172.000
 -13245379.69449 -10305616.05147  18800037.244    18800036.431    18800046.384
       241.000         209.000
 -18942865.79449 -14449063.27746  21184357.869    21184357.447    21184372.319
       226.000         176.000
 -18419061.57749 -14021151.90046  21282870.674    21282870.472    21282886.214
       220.000         169.000
  -8979764.63049  -6976293.73346  21375806.203    21375805.811    21375821.342
       226.000         177.000
   3267597.68849   2644792.13646  21609544.673    21609542.907    21609559.834
       217.000         163.000
 01 12  3 17 59 29.9930000  0  9G20G13G27G 2G 1G 3G31G 8G22
   7800502.81449   6085102.72745  21982657.789    21982655.963    21982672.350
       219.000         159.000
 -26127729.03549 -20342962.87447  18471295.335    18471295.196    18471303.340
       236.000         207.000
 -26813123.78349 -20859789.26147  19845393.149    19845392.668    19845403.272
       240.000         202.000
 -10445270.17049  -8103778.29946  21568065.153    21568064.959    21568081.812
       226.000         172.000
 -13256494.22149 -10314276.79847  18797922.238    18797921.450    18797931.431
       242.000         209.000
 -19015095.07849 -14505345.87146  21170613.058    21170612.629    21170627.470
       227.000         176.000
 -18545456.71049 -14119641.53146  21258818.397    21258818.184    21258833.911
       219.000         168.000
  -9099684.55049  -7069737.74146  21352986.108    21352985.677    21353001.189
       226.000         179.000
   3331524.84849   2694605.12645  21621709.857    21621708.097    21621725.097
       214.000         160.000
 01 12  3 17 59 59.9930000  0  9G20G13G27G 2G 1G 3G31G 8G22
   7867468.66649   6137283.47245  21995401.167    21995399.429    21995415.906
       218.000         158.000
 -26200212.97349 -20399443.87247  18457502.094    18457501.957    18457510.091
       236.000         207.000
 -26900165.92449 -20927614.30047  19828829.530    19828829.069    19828839.663
       239.000         203.000
 -10576791.54749  -8206262.27846  21543037.164    21543037.022    21543053.778
       224.000         171.000
 -13267167.53249 -10322593.73847  18795891.258    18795890.447    18795900.450
       242.000         209.000
 -19086797.58449 -14561218.01046  21156968.540    21156968.094    21156982.899
       228.000         176.000
 -18671577.06649 -14217917.05346  21234818.442    21234818.155    21234833.897
       221.000         168.000
  -9219432.58749  -7163047.84146  21330198.698    21330198.250    21330213.811
       227.000         180.000
   3395664.67849   2744583.82345  21633915.625    21633913.766    21633930.840
       216.000         160.000
 01 12  3 18  0 29.9930000  0  9G20G13G27G 2G 1G 3G31G 8G22
   7934402.82049   6189439.50145  22008138.591    22008136.842    22008153.484
       217.000         159.000
 -26272400.28049 -20455693.74047  18443765.330    18443765.179    18443773.316
       237.000         207.000
 -26987145.17749 -20995390.34547  19812277.876    19812277.423    19812288.027
       240.000         203.000
 -10708175.07349  -8308638.86746  21518035.449    21518035.320    21518052.040
       225.000         173.000
 -13277526.45849 -10330665.70647  18793920.049    18793919.252    18793929.283
       241.000         209.000
 -19158098.89249 -14616777.52846  21143400.396    21143399.921    21143414.691
       228.000         176.000
 -18797546.43049 -14316074.89746  21210847.246    21210846.891    21210862.582
       219.000         169.000
  -9339135.75949  -7256322.99146  21307419.876    21307419.417    21307434.968
       226.000         179.000
   3459887.33549   2794627.07245  21646137.157    21646135.207    21646152.405
       217.000         159.000
 01 12  3 18  0 59.9930000  0  9G20G13G27G 2G 1G 3G31G 8G22
   8001410.16249   6241652.57345  22020890.056    22020888.274    22020904.978
       218.000         159.000
 -26344181.64249 -20511627.29347  18430105.811    18430105.649    18430113.786
       237.000         207.000
 -27073954.01349 -21063033.60947  19795758.707    19795758.239    19795768.833
       240.000         203.000
 -10839311.82549  -8410823.20646  21493080.788    21493080.641    21493097.271
       225.000         173.000
 -13287463.06649 -10338408.59147  18792029.224    18792028.417    18792038.468
       241.000         209.000
 -19228889.46749 -14671939.09446  21129929.421    21129928.915    21129943.685
       227.000         176.000
 -18923254.30049 -14414028.96946  21186925.715    21186925.347    21186941.063
       219.000         170.000
  -9458686.35149  -7349479.26046  21284670.037    21284669.597    21284685.085
       227.000         179.000
   3524297.61249   2844816.50645  21658394.413    21658392.394    21658409.638
       217.000         161.000
 01 12  3 18  1 29.9930000  0  9G20G13G27G 2G 1G 3G31G 8G22
   8068448.36149   6293889.68745  22033647.364    22033645.566    22033662.324
       218.000         159.000
 -26415594.79449 -20567273.92647  18416516.367    18416516.182    18416524.332
       236.000         207.000
 -27160632.14449 -21130575.02147  19779264.401    19779263.907    19779274.540
       240.000         204.000
 -10970239.83649  -8512844.89946  21468165.961    21468165.703    21468182.274
       225.000         175.000
 -13297016.51949 -10345852.91947  18790211.305    18790210.516    18790220.557
       241.000         209.000
 -19299206.98549 -14726732.04746  21116548.429    21116547.928    21116562.675
       226.000         175.000
 -19048736.68849 -14511807.32346  21163047.067    21163046.701    21163062.466
       221.000         170.000
  -9578123.71649  -7442547.33446  21261941.814    21261941.355    21261956.726
       226.000         177.000
   3588853.44249   2895119.35045  21670679.379    21670677.263    21670694.557
       217.000         160.000
 01 12  3 18  1 59.9930000  0  9G20G13G27G 2G 1G 3G31G 8G22
   8135509.83749   6346144.92745  22046409.096    22046407.266    22046424.106
       218.000         158.000
 -26486642.74349 -20622635.98647  18402996.418    18402996.227    18403004.376
       236.000         207.000
 -27247184.48849 -21198018.41847  19762794.058    19762793.561    19762804.162
       241.000         204.000
 -11100962.42449  -8614706.54746  21443290.215    21443289.898    21443306.403
       226.000         175.000
 -13306191.22349 -10353002.11247  18788465.438    18788464.667    18788474.745
       241.000         209.000
 -19369054.45849 -14781158.74246  21103256.930    21103256.425    21103271.111
       227.000         174.000
 -19173995.01449 -14609411.07546  21139211.133    21139210.738    21139226.490
       222.000         172.000
  -9697452.58649  -7535530.86546  21239234.287    21239233.760    21239249.032
       225.000         175.000
   3653547.42449   2945529.85145  21682990.597    21682988.450    21683005.759
       219.000         161.000
 01 12  3 18  2 29.9930000  0  9G20G13G27G 2G 1G 3G31G 8G22
   8202650.30649   6398461.73145  22059185.835    22059184.050    22059200.961
       217.000         157.000
 -26557265.51049 -20677666.73847  18389557.329    18389557.170    18389565.341
       235.000         206.000
 -27333552.51649 -21265318.20147  19746358.818    19746358.274    19746368.889
       241.000         204.000
 -11231419.49749  -8716361.33346  21418464.991    21418464.609    21418481.025
       226.000         174.000
 -13314928.27949 -10359810.27647  18786802.919    18786802.110    18786812.235
       242.000         209.000
 -19438371.64949 -14835172.21746  21090066.357    21090065.805    21090080.484
       226.000         174.000
 -19298967.57449 -14706792.13646  21115429.727    21115429.192    21115444.911
       224.000         174.000
  -9816614.31249  -7628384.15746  21216558.547    21216558.011    21216573.241
       225.000         176.000
   3718435.30749   2996091.44745  21695338.728    21695336.525    21695353.836
       221.000         162.000
 01 12  3 18  2 59.9930000  0  9G20G13G27G 2G 1G 3G31G 8G22
   8269772.59449   6450764.34945  22071959.287    22071957.364    22071974.266
       217.000         154.000
 -26627555.64149 -20732438.30147  18376181.534    18376181.403    18376189.571
       235.000         206.000
 -27419830.61549 -21332547.90747  19729940.648    19729940.098    19729950.707
       240.000         204.000
 -11361703.75849  -8817881.46846  21393672.712    21393672.224    21393688.544
       227.000         171.000
 -13323321.54949 -10366350.55747  18785205.806    18785204.986    18785215.147
       241.000         209.000
 -19507251.14849 -14888844.62446  21076959.088    21076958.492    21076973.164
       227.000         175.000
 -19423745.13849 -14804021.24246  21091685.338    21091684.746    21091700.405
       223.000         174.000
  -9935702.77449  -7721180.36946  21193896.847    21193896.219    21193911.397
       225.000         176.000
   3783420.29349   3046728.69246  21707705.251    21707703.086    21707720.406
       222.000         163.000
 01 12  3 18  3 29.9930000  0  9G20G13G27G 2G 1G 3G31G 8G22
   8336911.25549   6503079.75345  22084735.705    22084733.761    22084750.762
       217.000         154.000
 -26697474.38449 -20786920.46747  18362876.424    18362876.309    18362884.451
       235.000         205.000
 -27505981.94749 -21399678.83647  19713546.618    19713546.033    19713556.629
       240.000         204.000
 -11491776.65949  -8919236.92646  21368920.631    21368920.081    21368936.314
       225.000         173.000
 -13331333.82649 -10372593.95947  18783681.150    18783680.346    18783690.530
       242.000         209.000
 -19575654.28249 -14942145.83846  21063942.375    21063941.826    21063956.511
       228.000         175.000
 -19548287.50049 -14901067.06446  21067985.544    21067985.018    21068000.655
       223.000         174.000
 -10054681.04549  -7813890.70746  21171256.004    21171255.347    21171270.583
       224.000         175.000
   3848536.77849   3097468.39546  21720096.779    21720094.629    21720111.998
       220.000         165.000
 01 12  3 18  3 59.9930000  0  9G20G13G27G 2G 1G 3G31G 8G22
   8404089.63649   6555426.09645  22097519.582    22097517.670    22097534.798
       216.000         153.000
 -26766993.80049 -20841091.47147  18349647.281    18349647.207    18349655.337
       235.000         205.000
 -27591980.06249 -21466690.37347  19697181.747    19697181.157    19697191.744
       241.000         204.000
 -11621610.56049  -9020406.15746  21344213.952    21344213.369    21344229.564
       227.000         175.000
 -13338938.55049 -10378519.78747  18782234.037    18782233.250    18782243.445
       241.000         208.000
 -19643552.80549 -14995053.82546  21051021.684    21051021.178    21051035.890
       225.000         173.000
 -19672564.87149 -14997906.39846  21044336.263    21044335.721    21044351.334
       223.000         173.000
 -10173522.59249  -7906494.50246  21148641.090    21148640.479    21148655.690
       223.000         173.000
   3913808.48149   3148329.04046  21732517.685    21732515.707    21732533.134
       222.000         166.000
 01 12  3 18  4 29.9930000  0  9G20G13G27G 2G 1G 3G31G 8G22
   8471333.80349   6607823.68845  22110316.004    22110314.168    22110331.393
       215.000         155.000
 -26836083.81449 -20894927.87947  18336499.913    18336499.801    18336507.947
       235.000         205.000
 -27677796.48249 -21533560.32447  19680851.426    19680850.837    19680861.442
       240.000         204.000
 -11751175.52349  -9121365.81546  21319558.436    21319557.852    21319573.999
       226.000         176.000
 -13346106.96949 -10384105.63647  18780870.008    18780869.203    18780879.400
       242.000         208.000
 -19710916.53849 -15047545.08046  21038202.766    21038202.271    21038217.014
       228.000         174.000
 -19796545.47449 -15094514.48046  21020743.336    21020742.855    21020758.512
       224.000         174.000
 -10292198.64549  -7998969.32046  21126057.785    21126057.129    21126072.303
       225.000         174.000
   3979261.43049   3199330.91346  21744973.307    21744971.295    21744988.783
       222.000         167.000
 01 12  3 18  4 59.9930000  0  9G20G13G27G 2G 1G 3G31G 8G22
   8538572.06349   6660216.67145  22123111.368    22123109.512    22123126.919
       215.000         154.000
 -26904811.54349 -20948481.98947  18323421.499    18323421.367    18323429.501
       235.000         205.000
 -27763500.21449 -21600342.46547  19664542.581    19664541.971    19664552.585
       240.000         204.000
 -11880538.86449  -9222168.36746  21294941.179    21294940.707    21294956.789
       226.000         176.000
 -13352907.64249 -10389404.93047  18779575.945    18779575.133    18779585.344
       241.000         209.000
 -19777812.83349 -15099672.08946  21025472.923    21025472.357    21025487.088
       226.000         175.000
 -19920294.82649 -15190942.36846  20997194.452    20997194.007    20997209.685
       224.000         173.000
 -10410777.94649  -8091368.71346  21103492.924    21103492.211    21103507.265
       226.000         174.000
   4044823.98149   3250418.19146  21757449.657    21757447.736    21757465.303
       221.000         168.000
 01 12  3 18  5 29.9930000  0  9G20G13G27G 2G 1G 3G31G 8G22
   8605794.82349   6712597.58445  22135903.826    22135901.887    22135919.477
       216.000         155.000
 -26973182.20249 -21001757.85647  18310411.040    18310410.902    18310419.007
       235.000         205.000
 -27849098.26849 -21667042.25147  19648253.846    19648253.213    19648263.834
       240.000         204.000
 -12009705.99649  -9322817.99946  21270361.371    21270360.914    21270376.973
       227.000         178.000
 -13359347.19249 -10394422.82847  18778350.568    18778349.787    18778360.027
       241.000         209.000
 -19844246.68249 -15151438.71746  21012831.045    21012830.478    21012845.174
       226.000         176.000
 -20043816.30249 -15287192.69346  20973688.915    20973688.531    20973704.178
       223.000         173.000
 -10529267.36649  -8183698.04846  21080945.162    21080944.413    21080959.402
       226.000         175.000
   4110486.85049   3301583.61746  21769945.253    21769943.273    21769960.955
       222.000         169.000
 01 12  3 18  5 59.9930000  0  9G20G13G27G 2G 1G 3G31G 8G22
   8673016.14049   6764977.38045  22148696.051    22148694.050    22148711.684
       218.000         155.000
 -27041177.35149 -21054741.11447  18297472.008    18297471.859    18297479.971
       233.000         204.000
 -27934573.87649 -21733646.62447  19631988.379    19631987.753    19631998.369
       240.000         204.000
 -12138658.64149  -9423300.49046  21245822.522    21245821.982    21245838.011
       228.000         179.000
 -13365408.45549 -10399145.95747  18777197.241    18777196.414    18777206.694
       242.000         208.000
 -19910199.39049 -15202830.43246  21000280.628    21000280.114    21000294.832
       226.000         175.000
 -20167090.00749 -15383249.93946  20950230.552    20950230.197    20950245.813
       222.000         171.000
 -10647649.81749  -8275944.02346  21058417.668    21058416.941    21058431.964
       226.000         176.000
   4176264.23149   3352838.26846  21782462.735    21782460.635    21782478.376
       221.000         169.000
 01 12  3 18  6 29.9930000  0  9G20G13G27G 2G 1G 3G31G 8G22
   8740274.34749   6817385.91845  22161495.141    22161493.190    22161510.933
       216.000         154.000
 -27108754.14549 -21107398.37647  18284612.569    18284612.439    18284620.551
       234.000         204.000
 -28019886.18849 -21800123.73947  19615753.982    19615753.364    19615763.951
       239.000         204.000
 -12267354.38349  -9523582.76646  21221332.581    21221331.929    21221347.972
       229.000         179.000
 -13371050.12349 -10403542.12947  18776123.703    18776122.887    18776133.180
       242.000         208.000
 -19975628.54549 -15253814.16446  20987829.857    20987829.352    20987844.104
       226.000         176.000
 -20290071.50549 -15479079.51246  20926827.819    20926827.479    20926843.022
       222.000         171.000
 -10765884.21649  -8368074.61446  21035918.333    21035917.619    21035932.705
       226.000         176.000
   4242194.64949   3404212.15946  21795009.365    21795007.133    21795024.945
       220.000         168.000
 01 12  3 18  6 59.9930000  0  9G20G13G27G 2G 1G 3G31G 8G22
   8807547.05049   6869805.75045  22174297.061    22174295.088    22174312.916
       218.000         155.000
 -27175930.88749 -21159743.91047  18271829.274    18271829.133    18271837.257
       233.000         204.000
 -28105054.86149 -21866488.92047  19599546.942    19599546.289    19599556.876
       240.000         204.000
 -12395811.50549  -9623679.09246  21196888.009    21196887.297    21196903.374
       229.000         180.000
 -13376291.55049 -10407626.42947  18775126.354    18775125.537    18775135.819
       242.000         208.000
 -20040552.30749 -15304404.07046  20975475.267    20975474.775    20975489.561
       227.000         175.000
 -20412777.01249 -15574694.03346  20903477.702    20903477.308    20903492.725
       223.000         173.000
 -10883990.01249  -8460104.98646  21013443.443    21013442.753    21013457.881
       227.000         177.000
   4308255.87049   3455687.97746  21807580.919    21807578.555    21807596.405
       219.000         167.000
 01 12  3 18  7 29.9930000  0  9G20G13G27G 2G 1G 3G31G 8G22
   8874842.75849   6922243.51445  22187103.380    22187101.410    22187119.281
       218.000         154.000
 -27242694.59949 -21211767.60147  18259124.550    18259124.418    18259132.563
       233.000         204.000
 -28190068.67349 -21932733.42747  19583369.374    19583368.721    19583379.321
       240.000         205.000
 -12524017.32749  -9723579.60046  21172491.224    21172490.489    21172506.538
       229.000         181.000
 -13381121.29249 -10411389.93947  18774207.346    18774206.519    18774216.802
       242.000         208.000
 -20104957.93649 -15354590.21446  20963219.372    20963218.827    20963233.593
       227.000         176.000
 -20535192.03549 -15670082.22146  20880182.798    20880182.393    20880197.683
       223.000         173.000
 -11001955.94349  -8552026.35046  20990995.183    20990994.520    20991009.646
       227.000         176.000
   4374456.60649   3507272.50446  21820178.772    21820176.472    21820194.402
       218.000         165.000
 01 12  3 18  7 59.9930000  0  9G20G13G27G 2G 1G 3G31G 8G22
   8942114.57549   6974662.66245  22199905.243    22199903.200    22199921.064
       216.000         153.000
 -27309087.82049 -21263502.59847  18246490.362    18246490.225    18246498.355
       233.000         204.000
 -28274971.63449 -21998891.55947  19567212.854    19567212.210    19567222.845
       240.000         205.000
 -12652014.53649  -9823317.51046  21148134.099    21148133.341    21148149.443
       229.000         181.000
 -13385583.24749 -10414866.86447  18773358.345    18773357.502    18773367.789
       241.000         208.000
 -20168887.75449 -15404405.58846  20951053.919    20951053.390    20951068.143
       226.000         176.000
 -20657357.56649 -15765276.01346  20856935.288    20856934.923    20856950.176
       223.000         173.000
 -11119825.80749  -8643872.84246  20968565.277    20968564.607    20968579.660
       227.000         176.000
   4440750.07449   3558929.27046  21832794.623    21832792.075    21832810.076
       216.000         165.000
 01 12  3 18  8 29.9930000  0  9G20G13G27G 2G 1G 3G31G 8G22
   9009379.08349   7027076.11345  22212705.556    22212703.537    22212721.503
       215.000         151.000
 -27375089.82649 -21314932.75147  18233930.588    18233930.447    18233938.608
       232.000         203.000
 -28359744.79049 -22064948.54147  19551081.038    19551080.406    19551091.059
       240.000         205.000
 -12779782.60549  -9922876.83746  21123820.474    21123819.794    21123835.944
       229.000         182.000
 -13389658.27049 -10418042.29147  18772582.965    18772582.117    18772592.392
       242.000         208.000
 -20232321.13649 -15453834.11346  20938982.952    20938982.407    20938997.150
       226.000         175.000
 -20779251.07049 -15860257.84646  20833739.647    20833739.255    20833754.441
       224.000         174.000
 -11237580.46649  -8735629.54646  20946157.290    20946156.601    20946171.537
       228.000         175.000
   4507153.14849   3610671.44446  21845431.049    21845428.511    21845446.598
       213.000         165.000
 01 12  3 18  8 59.9920000  0  9G20G13G27G 2G 1G 3G31G 8G22
   9076630.94349   7079479.69645  22225503.399    22225501.444    22225519.569
       216.000         152.000
 -27440696.97649 -21366055.22347  18221445.957    18221445.821    18221453.981
       233.000         203.000
 -28444385.68349 -22130902.45447  19534974.393    19534973.783    19534984.431
       241.000         205.000
 -12907316.31449 -10022253.53546  21099551.485    21099550.834    21099566.991
       229.000         183.000
 -13393346.22549 -10420916.10947  18771881.257    18771880.390    18771890.665
       241.000         208.000
 -20295254.90349 -15502873.33446  20927006.914    20927006.486    20927021.235
       226.000         176.000
 -20900865.38249 -15955022.15846  20810597.127    20810596.707    20810611.840
       224.000         175.000
 -11355216.20149  -8827293.59046  20923771.830    20923771.187    20923786.053
       228.000         176.000
   4573660.62849   3662494.98346  21858087.156    21858084.788    21858103.010
       214.000         164.000
 01 12  3 18  9 29.9920000  0  9G20G13G27G 2G 1G 3G31G 8G22
   9143934.48249   7131923.54245  22238311.178    22238309.190    22238327.479
       215.000         150.000
 -27505849.68949 -21416823.58847  18209047.830    18209047.672    18209055.820
       232.000         203.000
 -28528837.38749 -22196708.94247  19518903.745    19518903.142    19518913.798
       240.000         205.000
 -13034560.22649 -10121404.40246  21075337.667    21075337.027    21075353.156
       229.000         183.000
 -13396584.58349 -10423439.59347  18771265.077    18771264.211    18771274.478
       241.000         207.000
 -20357629.20649 -15551476.62446  20915137.454    20915137.025    20915151.798
       226.000         176.000
 -21022142.82049 -16049523.97146  20787518.687    20787518.265    20787533.368
       225.000         174.000
 -11472678.03249  -8918822.13546  20901419.343    20901418.799    20901433.721
       228.000         178.000
   4640337.11849   3714450.23745  21870775.636    21870773.233    21870791.602
       210.000         161.000
 01 12  3 18  9 59.9920000  0  9G20G13G27G 2G 1G 3G31G 8G22
   9211168.73749   7184313.40545  22251105.645    22251103.801    22251122.194
       213.000         150.000
 -27570660.17249 -21467325.27847  18196714.823    18196714.680    18196722.806
       232.000         203.000
 -28613213.25049 -22262456.33147  19502847.516    19502846.932    19502857.598
       240.000         205.000
 -13161625.04249 -10220415.69546  21051157.910    21051157.293    21051173.365
       230.000         184.000
 -13399489.32249 -10425703.11547  18770712.345    18770711.513    18770721.781
       241.000         207.000
 -20419556.62949 -15599731.69946  20903353.081    20903352.593    20903367.384
       226.000         177.000
 -21143192.24349 -16143848.13546  20764483.705    20764483.248    20764498.262
       225.000         175.000
 -11590078.32249  -9010302.73046  20879078.660    20879078.152    20879093.123
       230.000         179.000
   4707061.79749   3766443.04545  21883473.029    21883470.823    21883489.340
       211.000         160.000
 01 12  3 18 10 29.9920000  0  9G20G13G27G 2G 1G 3G31G 8G22
   9278405.91349   7236705.52345  22263900.784    22263898.953    22263917.442
       213.000         150.000
 -27635052.32649 -21517500.99447  18184461.430    18184461.269    18184469.415
       232.000         203.000
 -28697438.65749 -22328086.47947  19486819.945    19486819.361    19486830.039
       241.000         206.000
 -13288434.44749 -10319227.95446  21027026.718    21027026.126    21027042.187
       229.000         184.000
 -13401985.61849 -10427648.37247  18770237.409    18770236.553    18770246.818
       242.000         207.000
 -20480961.02649 -15647579.25146  20891668.147    20891667.664    20891682.486
       227.000         177.000
 -21263935.35449 -16237933.60446  20741506.946    20741506.499    20741521.468
       225.000         175.000
 -11707341.91749  -9101676.82146  20856764.116    20856763.592    20856778.538
       229.000         179.000
   4773906.69049   3818529.52345  21896193.363    21896191.265    21896210.022
       211.000         158.000
 01 12  3 18 10 59.9920000  0  9G20G13G27G 2G 1G 3G31G 8G22
   9345632.52449   7289089.41245  22276694.066    22276692.122    22276710.767
       215.000         150.000
 -27699035.32649 -21567357.89047  18172285.885    18172285.726    18172293.874
       231.000         203.000
 -28781524.20449 -22393607.65147  19470818.969    19470818.401    19470829.079
       240.000         205.000
 -13414997.72149 -10417848.41846  21002942.327    21002941.795    21002957.848
       228.000         184.000
 -13404083.93649 -10429283.52247  18769838.178    18769837.324    18769847.597
       241.000         208.000
 -20541851.85949 -15695026.63946  20880080.965    20880080.480    20880095.315
       227.000         177.000
 -21384379.60749 -16331786.21446  20718587.038    20718586.617    20718601.540
       224.000         175.000
 -11824479.50749  -9192952.74146  20834473.525    20834472.985    20834487.858
       230.000         179.000
   4840858.81149   3870699.56445  21908934.036    21908932.115    21908951.041
       213.000         158.000
 01 12  3 18 11 29.9920000  0  9G20G13G27G 2G 1G 3G31G 8G22
   9412856.16349   7341470.97245  22289486.701    22289484.716    22289503.500
       214.000         149.000
 -27762597.13649 -21616886.58547  18160190.480    18160190.337    18160198.486
       231.000         202.000
 -28865459.65349 -22459011.86747  19454846.586    19454846.015    19454856.691
       241.000         205.000
 -13541303.29649 -10516268.07346  20978906.875    20978906.470    20978922.511
       229.000         184.000
 -13405773.83549 -10430600.42547  18769516.648    18769515.805    18769526.099
       241.000         207.000
 -20602217.13049 -15742064.51746  20868593.836    20868593.339    20868608.161
       226.000         178.000
 -21504511.53549 -16425395.48446  20695726.643    20695726.183    20695741.041
       225.000         175.000
 -11941480.61849  -9284122.31046  20812208.843    20812208.315    20812223.159
       229.000         180.000
   4907926.01149   3922959.28945  21921696.830    21921694.952    21921713.989
       214.000         156.000
 01 12  3 18 11 59.9920000  0  9G20G13G27G 2G 1G 3G31G 8G22
   9480046.28449   7393826.41645  22302273.055    22302270.979    22302289.901
       213.000         149.000
 -27825763.89949 -21666107.44647  18148170.261    18148170.117    18148178.272
       232.000         202.000
 -28949273.03649 -22524320.96447  19438897.399    19438896.843    19438907.513
       240.000         206.000
 -13667377.66449 -10614507.56746  20954915.577    20954915.171    20954931.174
       231.000         186.000
 -13407083.00949 -10431620.65647  18769267.565    18769266.742    18769277.063
       241.000         207.000
 -20662083.47249 -15788713.63346  20857201.600    20857201.142    20857215.966
       226.000         177.000
 -21624355.71949 -16518780.51346  20672921.058    20672920.536    20672935.341
       228.000         175.000
 -12058372.86849  -9375207.06746  20789964.815    20789964.318    20789979.184
       230.000         180.000
   4975077.96349   3975285.05245  21934475.631    21934473.854    21934493.061
       213.000         158.000
 01 12  3 18 12 29.9920000  0  9G20G13G27G 2G 1G 3G31G 8G22
   9547206.71649   7446158.68545  22315053.715    22315051.606    22315070.558
       213.000         148.000
 -27888527.69249 -21715014.30547  18136226.727    18136226.578    18136234.725
       232.000         202.000
 -29032957.78049 -22589529.82947  19422972.690    19422972.146    19422982.821
       240.000         206.000
 -13793213.00149 -10712560.81146  20930969.768    20930969.355    20930985.319
       228.000         183.000
 -13408004.78249 -10432339.01547  18769092.207    18769091.387    18769101.741
       241.000         207.000
 -20721442.86549 -15834967.74146  20845905.918    20845905.400    20845920.243
       227.000         178.000
 -21743902.37149 -16611933.70246  20650172.044    20650171.511    20650186.252
       226.000         175.000
 -12175149.70149  -9466201.91546  20767742.764    20767742.304    20767757.144
       230.000         181.000
   5042318.76349   4027680.07845  21947271.563    21947269.672    21947288.997
       217.000         157.000
 01 12  3 18 12 59.9920000  0  9G20G13G27G 2G 1G 3G31G 8G22
   9614352.13849   7498479.25945  22327831.540    22327829.335    22327848.347
       213.000         148.000
 -27950870.00649 -21763592.73947  18124363.442    18124363.279    18124371.390
       232.000         202.000
 -29116496.95049 -22654625.26947  19407075.683    19407075.160    19407085.826
       241.000         206.000
 -13918790.97649 -10810413.50146  20907072.929    20907072.487    20907088.437
       230.000         183.000
 -13408522.09849 -10432742.20847  18768993.827    18768992.997    18769003.397
       241.000         207.000
 -20780277.12649 -15880812.66746  20834710.119    20834709.601    20834724.438
       226.000         178.000
 -21863131.15849 -16704839.19846  20627483.479    20627482.955    20627497.698
       225.000         176.000
 -12291794.12449  -9557093.57646  20745546.021    20745545.514    20745560.362
       231.000         183.000
   5109662.95149   4080155.65445  21960086.957    21960085.145    21960104.618
       216.000         156.000
 01 12  3 18 13 29.9920000  0  9G20G13G27G 2G 1G 3G31G 8G22
   9681531.98249   7550826.62045  22340615.924    22340613.622    22340632.715
       213.000         147.000
 -28012736.89749 -21811800.72147  18112590.575    18112590.403    18112598.490
       231.000         201.000
 -29199838.13049 -22719566.43847  19391216.375    19391215.842    19391226.513
       241.000         206.000
 -14044058.11749 -10908023.99546  20883235.252    20883234.782    20883250.687
       230.000         183.000
 -13408582.72449 -10432789.54647  18768982.344    18768981.510    18768991.952
       241.000         207.000
 -20838532.38549 -15926206.41746  20823624.545    20823624.024    20823638.845
       225.000         178.000
 -21981986.27449 -16797453.52846  20604866.054    20604865.517    20604880.288
       225.000         175.000
 -12408253.30849  -9647840.91546  20723384.562    20723384.024    20723398.829
       231.000         183.000
   5177160.36149   4132750.62845  21972931.816    21972929.831    21972949.403
       219.000         157.000
 01 12  3 18 13 59.9920000  0  9G20G13G27G 2G 1G 3G31G 8G22
   9748596.97649   7603084.46345  22353378.400    22353376.149    22353395.205
       210.000         147.000
 -28074273.56349 -21859751.37647  18100880.523    18100880.372    18100888.448
       230.000         201.000
 -29283127.81349 -22784467.48347  19375366.857    19375366.322    19375376.980
       241.000         206.000
 -14169159.53349 -11005505.35046  20859429.035    20859428.583    20859444.462
       230.000         183.000
 -13408333.10849 -10432595.12847  18769029.885    18769029.067    18769039.549
       241.000         206.000
 -20896353.73349 -15971262.05346  20812621.478    20812620.972    20812635.806
       227.000         178.000
 -22100610.96849 -16889888.29346  20582292.462    20582291.931    20582306.689
       226.000         176.000
 -12524673.80949  -9738558.11146  20701230.388    20701229.857    20701244.657
       230.000         182.000
   5244662.15649   4185349.03045  21985777.438    21985775.339    21985794.983
       221.000         155.000
 01 12  3 18 14 29.9920000  0  9G20G13G27G 2G 1G 3G31G 8G22
   9815678.61549   7655355.24845  22366144.033    22366141.792    22366160.853
       210.000         147.000
 -28135344.47449 -21907339.10947  18089259.089    18089258.963    18089267.041
       230.000         201.000
 -29366232.10249 -22849224.07147  19359552.649    19359552.103    19359562.732
       240.000         206.000
 -14293959.89849 -11102752.12946  20835680.105    20835679.657    20835695.510
       231.000         185.000
 -13407639.24749 -10432054.54847  18769161.942    18769161.158    18769171.670
       240.000         206.000
 -20953606.16949 -16015874.37346  20801726.712    20801726.195    20801741.022
       226.000         179.000
 -22218868.15549 -16982036.69446  20559788.847    20559788.292    20559803.010
       227.000         175.000
 -12640921.68849  -9829140.79346  20679108.994    20679108.508    20679123.297
       232.000         181.000
   5312299.73849   4238053.24645  21998648.737    21998646.691    21998666.411
       218.000         154.000
 01 12  3 18 14 59.9920000  0  9G20G13G27G 2G 1G 3G31G 8G22
   9882706.37549   7707584.02645  22378899.424    22378897.112    22378916.230
       210.000         146.000
 -28196015.72149 -21954615.42147  18077713.702    18077713.617    18077721.693
       230.000         201.000
 -29449218.70949 -22913888.96747  19343760.826    19343760.267    19343770.902
       241.000         207.000
 -14418525.73349 -11199816.17146  20811975.700    20811975.364    20811991.181
       230.000         185.000
 -13406568.78649 -10431220.51047  18769365.707    18769364.919    18769375.456
       240.000         205.000
 -21010356.12449 -16060095.15846  20790927.588    20790927.055    20790941.893
       226.000         179.000
 -22336822.18049 -17073948.85946  20537342.977    20537342.357    20537357.036
       228.000         175.000
 -12757064.43149  -9919641.56246  20657007.760    20657007.206    20657021.950
       232.000         182.000
   5380003.09949   4290808.70645  22011532.800    22011530.561    22011550.316
       216.000         153.000
 01 12  3 18 15 29.9920000  0  9G20G13G27G 2G 1G 3G31G 8G22
   9949670.14349   7759762.89845  22391642.602    22391640.341    22391659.464
       209.000         146.000
 -28256293.74849 -22001585.31947  18066243.150    18066243.093    18066251.200
       230.000         200.000
 -29532095.37749 -22978468.20447  19327989.921    19327989.367    19327999.972
       240.000         207.000
 -14542863.69049 -11296702.64746  20788314.703    20788314.448    20788330.156
       231.000         184.000
 -13405129.43449 -10430099.02847  18769639.696    18769638.883    18769649.439
       240.000         206.000
 -21066609.96349 -16103929.34746  20780222.882    20780222.310    20780237.169
       226.000         178.000
 -22454477.55049 -17165628.30246  20514953.927    20514953.270    20514967.890
       228.000         177.000
 -12873109.53049 -10010066.21946  20634925.139    20634924.511    20634939.192
       232.000         183.000
   5447761.97149   4343607.39245  22024427.338    22024424.982    22024444.824
       219.000         153.000
 01 12  3 18 15 59.9920000  0 10G20G13G27G 2G10G 1G 3G31G 8G22
  10016593.44649   7811910.23545  22404378.242    22404375.911    22404395.003
       210.000         144.000
 -28316150.84249 -22048227.21947  18054852.704    18054852.644    18054860.785
       230.000         201.000
 -29614835.84649 -23042941.32047  19312244.938    19312244.373    19312254.966
       241.000         207.000
 -14666946.12049 -11393390.02246  20764702.455    20764702.172    20764717.749
       232.000         184.000
   -224098.97654                  22970848.693
       201.000         123.000
 -13403294.94149 -10428669.63847  18769988.866    18769988.048    18769998.606
       240.000         206.000
 -21122340.31849 -16147355.60646  20769617.755    20769617.180    20769632.051
       226.000         178.000
 -22571804.72249 -17257051.98646  20492627.302    20492626.602    20492641.157
       226.000         177.000
 -12989030.60849 -10100394.24946  20612866.090    20612865.444    20612880.054
       231.000         182.000
   5515600.31949   4396468.00545  22037336.946    22037334.514    22037354.426
       219.000         152.000
 01 12  3 18 16 29.9920000  0 10G20G13G27G 2G10G 1G 3G31G 8G22
  10083481.55149   7864030.12145  22417107.166    22417104.816    22417123.858
       212.000         144.000
 -28375577.13049 -22094533.43047  18043544.235    18043544.197    18043552.355
       230.000         200.000
 -29697432.02649 -23107302.01047  19296527.412    19296526.838    19296537.425
       241.000         207.000
 -14790763.55049 -11489870.90646  20741140.731    20741140.347    20741155.788
       232.000         185.000
   -445021.23049   -322794.41744  22946746.557    22946745.570    22946766.973
       206.000         130.000
 -13401057.10249 -10426925.95547  18770414.747    18770413.943    18770424.540
       239.000         205.000
 -21177538.07849 -16190366.83546  20759113.986    20759113.423    20759128.265
       227.000         178.000
 -22688792.35749 -17348211.09946  20470365.253    20470364.553    20470379.066
       228.000         178.000
 -13104819.36849 -10190619.15946  20590832.127    20590831.513    20590846.092
       230.000         181.000
   5583523.98449   4449395.08645  22050262.653    22050260.246    22050280.225
       217.000         153.000
 01 12  3 18 16 59.9920000  0 10G20G13G27G 2G10G 1G 3G31G 8G22
  10150340.04949   7916126.91245  22429830.597    22429828.057    22429847.117
       213.000         146.000
 -28434563.47449 -22140496.82847  18032319.554    18032319.465    18032327.648
       230.000         200.000
 -29779876.01949 -23171544.11447  19280838.867    19280838.275    19280848.860
       241.000         207.000
 -14914306.88349 -11586138.22746  20717631.082    20717630.672    20717645.983
       233.000         185.000
   -571329.17949   -421216.19155  22922711.337    22922710.451    22922730.516
       209.000         132.000
 -13398408.05349 -10424861.85647  18770918.848    18770918.074    18770928.725
       240.000         205.000
 -21232194.04849 -16232955.87046  20748713.323    20748712.778    20748727.583
       227.000         178.000
 -22805429.47249 -17439097.06146  20448169.898    20448169.191    20448183.697
       227.000         179.000
 -13220467.78949 -10280734.71746  20568824.844    20568824.251    20568838.868
       229.000         180.000
   5651538.38149   4502392.85945  22063205.788    22063203.291    22063223.294
       218.000         152.000
 01 12  3 18 17 29.9920000  0 10G20G13G27G 2G10G 1G 3G31G 8G22
  10217107.73349   7968152.90645  22442536.592    22442533.991    22442553.115
       211.000         144.000
 -28493166.90849 -22186161.86047  18021167.714    18021167.606    18021175.803
       231.000         201.000
 -29862226.32749 -23235713.21747  19265168.140    19265167.554    19265178.129
       240.000         207.000
 -15037633.64149 -11682236.80046  20694162.606    20694162.205    20694177.423
       232.000         187.000
   -697342.32559   -519408.31345  22898732.013    22898731.516    22898751.481
       211.000         135.000
 -13395406.48149 -10422523.06147  18771490.053    18771489.314    18771500.000
       239.000         205.000
 -21286365.78749 -16275167.57646  20738404.845    20738404.245    20738419.026
       227.000         177.000
 -22921771.35049 -17529752.97546  20426030.626    20426029.969    20426044.502
       227.000         179.000
 -13336034.44549 -10370786.54946  20546833.096    20546832.553    20546847.157
       230.000         180.000
   5719582.54349   4555413.82545  22076154.483    22076151.961    22076172.027
       217.000         150.000
 01 12  3 18 17 59.9920000  0 10G20G13G27G 2G10G 1G 3G31G 8G22
  10283830.56449   8020143.93045  22455233.956    22455231.398    22455250.583
       210.000         144.000
 -28551337.45349 -22231489.57547  18010098.234    18010098.143    18010106.338
       230.000         201.000
 -29944434.29249 -23299771.40647  19249524.461    19249523.893    19249534.476
       240.000         207.000
 -15160694.06649 -11778127.85046  20670744.719    20670744.398    20670759.569
       233.000         186.000
   -823009.64649   -617330.99345  22874818.614    22874818.153    22874837.460
       211.000         133.000
 -13392003.83849 -10419871.74147  18772137.631    18772136.871    18772147.586
       240.000         205.000
 -21340003.60049 -16316963.23546  20728197.846    20728197.265    20728212.106
       226.000         177.000
 -23037766.21149 -17620138.47546  20403957.450    20403956.805    20403971.375
       227.000         180.000
 -13451470.61249 -10460736.69746  20524866.219    20524865.701    20524880.264
       231.000         181.000
   5787702.88349   4608494.14245  22089117.448    22089115.243    22089135.271
       213.000         151.000
 01 12  3 18 18 29.9920000  0 10G20G13G27G 2G10G 1G 3G31G 8G22
  10350486.56149   8072082.85845  22467918.687    22467916.034    22467935.384
       210.000         142.000
 -28609093.16349 -22276494.04747  17999107.732    17999107.618    17999115.796
       230.000         201.000
 -30026519.37649 -23363733.85047  19233904.193    19233903.609    19233914.223
       240.000         206.000
 -15283506.20649 -11873825.45447  20647374.149    20647373.852    20647388.980
       234.000         188.000
   -948347.87749   -714997.22945  22850967.686    22850967.052    22850986.763
       211.000         136.000
 -13388219.73549 -10416923.18647  18772857.825    18772857.031    18772867.770
       239.000         205.000
 -21393125.72049 -16358357.05346  20718088.972    20718088.440    20718103.338
       227.000         177.000
 -23153430.33349 -17710266.25046  20381947.218    20381946.593    20381961.177
       225.000         180.000
 -13566795.44349 -10550600.09646  20502920.584    20502920.053    20502934.559
       231.000         181.000
   5855877.45649   4661616.72045  22102090.869    22102088.760    22102108.874
       216.000         151.000
 01 12  3 18 18 59.9920000  0 10G20G13G27G 2G10G 1G 3G31G 8G22
  10417113.93049   8123999.45445  22480597.863    22480595.262    22480614.765
       211.000         144.000
 -28666391.91749 -22321142.44847  17988204.179    17988204.053    17988212.209
       230.000         201.000
 -30108440.83849 -23427568.79547  19218315.045    19218314.464    19218325.098
       240.000         206.000
 -15406028.24849 -11969297.01746  20624058.866    20624058.529    20624073.606
       233.000         187.000
  -1073313.83849   -812373.47645  22827187.579    22827186.869    22827206.707
       212.000         135.000
 -13384013.66149 -10413645.82147  18773658.290    18773657.494    18773668.275
       240.000         205.000
 -21445690.41349 -16399316.51346  20708086.285    20708085.710    20708100.590
       227.000         177.000
 -23268719.67149 -17800101.98846  20360008.291    20360007.677    20360022.287
       227.000         180.000
 -13681968.24449 -10640345.02646  20481003.815    20481003.307    20481017.807
       231.000         180.000
   5924144.74749   4714811.54045  22115082.008    22115079.880    22115100.114
       213.000         150.000
 01 12  3 18 19 29.9920000  0 11G20G13G27G 2G10G 1G28G 3G31G 8G22
  10483707.12949   8175889.41245  22493270.630    22493268.010    22493287.658
       210.000         145.000
 -28723235.21649 -22365435.95547  17977387.280    17977387.153    17977395.295
       229.000         201.000
 -30190201.49149 -23491278.42847  19202756.510    19202755.937    19202766.584
       240.000         206.000
 -15528261.69949 -12064543.72546  20600798.533    20600798.144    20600813.157
       233.000         187.000
  -1197908.11249   -909460.07244  22803478.322    22803477.517    22803497.097
       212.000         131.000
 -13379388.28649 -10410041.72947  18774538.515    18774537.726    18774548.566
       240.000         205.000
   -285005.00555                  22569688.278                    22569706.981
       212.000         150.000
 -21497699.35749 -16439842.92846  20698189.245    20698188.734    20698203.583
       227.000         177.000
 -23383633.87949 -17889645.42846  20338140.736    20338140.165    20338154.735
       226.000         180.000
 -13796991.73249 -10729973.61546  20459115.514    20459114.979    20459129.471
       230.000         180.000
   5992499.43549   4768074.46045  22128089.760    22128087.670    22128107.942
       213.000         150.000
 01 12  3 18 19 59.9920000  0 11G20G13G27G 2G10G 1G28G 3G31G 8G22
  10550260.63849   8227748.42245  22505935.925    22505933.298    22505953.075
       209.000         144.000
 -28779624.62449 -22409375.77447  17966656.839    17966656.634    17966664.767
       230.000         200.000
 -30271804.25649 -23554865.03247  19187228.032    19187227.457    19187238.118
       241.000         206.000
 -15650208.53449 -12159567.12447  20577592.751    20577592.315    20577607.221
       233.000         188.000
  -1322130.84349  -1006257.15945  22779839.588    22779838.735    22779858.068
       211.000         135.000
 -13374346.83049 -10406113.41447  18775497.971    18775497.138    18775508.048
       239.000         205.000
   -562364.73049   -400663.90045  22541442.602    22541439.639    22541461.372
       211.000         151.000
 -21549154.85549 -16479938.09546  20688397.567    20688397.043    20688411.918
       227.000         177.000
 -23498172.97449 -17978896.57146  20316344.599    20316344.015    20316358.582
       227.000         180.000
 -13911868.71549 -10819488.05446  20437255.079    20437254.528    20437269.007
       232.000         181.000
   6060936.25349   4821401.37745  22141113.160    22141111.056    22141131.432
       216.000         151.000
 01 12  3 18 20 29.9920000  0 11G20G13G27G 2G10G 1G28G 3G31G 8G22
  10616720.17649   8279534.18245  22518583.373    22518580.747    22518600.655
       208.000         142.000
 -28835610.43549 -22453001.11647  17956003.088    17956002.909    17956011.053
       230.000         200.000
 -30353300.89449 -23618368.93147  19171719.754    19171719.171    19171729.834
       241.000         206.000
 -15771919.27749 -12254406.56947  20554431.921    20554431.419    20554446.208
       234.000         188.000
  -1446031.64349  -1102803.41245  22756262.004    22756261.143    22756280.589
       212.000         139.000
 -13368940.97649 -10401901.15747  18776526.711    18776525.892    18776536.859
       240.000         204.000
   -710720.57159   -516265.35355  22513211.076    22513208.934    22513229.921
       210.000         150.000
 -21600107.56149 -16519641.49746  20678701.611    20678701.073    20678715.941
       228.000         177.000
 -23612385.56849 -18067893.29246  20294610.588    20294610.015    20294624.562
       227.000         180.000
 -14026650.77949 -10908928.53346  20415412.680    20415412.161    20415426.608
       232.000         182.000
   6129401.31349   4874750.27045  22154142.011    22154139.851    22154160.302
       206.000         153.000
 01 12  3 18 20 59.9920000  0 11G20G13G27G 2G10G 1G28G 3G31G 8G22
  10683124.66849   8331277.00845  22531220.320    22531217.644    22531237.721
       208.000         142.000
 -28891149.78049 -22496278.55247  17945434.321    17945434.136    17945442.286
       229.000         200.000
 -30434649.72949 -23681757.64947  19156239.570    19156239.000    19156249.671
       241.000         205.000
 -15893351.22549 -12349028.76247  20531324.114    20531323.567    20531338.302
       234.000         189.000
  -1569566.49849  -1199064.45145  22732754.198    22732753.386    22732772.703
       213.000         140.000
 -13363129.59449 -10397372.90447  18777632.653    18777631.831    18777642.817
       240.000         204.000
   -858959.34849   -631775.60945  22485001.470    22484999.464    22485021.495
       208.000         148.000
 -21650514.95249 -16558919.99046  20669109.397    20669108.850    20669123.738
       228.000         179.000
 -23726226.66249 -18156600.54346  20272947.294    20272946.702    20272961.224
       227.000         180.000
 -14141296.38149 -10998262.66546  20393596.297    20393595.769    20393610.188
       232.000         182.000
   6197933.70249   4928151.63045  22167183.554    22167181.458    22167202.004
       216.000         152.000
 01 12  3 18 21 29.9920000  0 11G20G13G27G 2G10G 1G28G 3G31G 8G22
  10749474.55849   8382977.26245  22543846.905    22543844.209    22543864.463
       208.000         140.000
 -28946238.40849 -22539204.79247  17934951.300    17934951.136    17934959.282
       229.000         200.000
 -30515847.87549 -23745028.93947  19140788.087    19140787.508    19140798.185
       241.000         206.000
 -16014500.43649 -12443430.66847  20508270.035    20508269.528    20508284.196
       234.000         190.000
  -1692730.08149  -1295036.18345  22709317.034    22709316.151    22709335.530
       213.000         139.000
 -13356910.06949 -10392526.62647  18778816.263    18778815.428    18778826.441
       239.000         204.000
  -1007076.42049   -747191.11945  22456815.280    22456813.391    22456835.598
       210.000         147.000
 -21700373.22749 -16597770.61446  20659621.643    20659621.152    20659636.020
       228.000         178.000
 -23839690.23449 -18245013.62246  20251355.792    20251355.233    20251369.701
       228.000         180.000
 -14255802.40549 -11087488.05446  20371806.560    20371805.951    20371820.305
       232.000         182.000
   6266534.12749   4981605.99445  22180238.017    22180235.989    22180256.660
       214.000         153.000
 01 12  3 18 21 59.9920000  0 11G20G13G27G 2G10G 1G28G 3G31G 8G22
  10815723.83449   8434599.12345  22556454.312    22556451.576    22556472.029
       208.000         141.000
 -29000918.32049 -22581812.54147  17924546.059    17924545.888    17924554.062
       229.000         199.000
 -30596938.52649 -23808216.45847  19125357.064    19125356.476    19125367.159
       240.000         206.000
 -16135409.12749 -12537645.13947  20485261.699    20485261.236    20485275.878
       235.000         190.000
  -1815562.99649  -1390750.25045  22685942.917    22685941.836    22685961.435
       216.000         144.000
 -13350325.58449 -10387395.95947  18780069.318    18780068.498    18780079.518
       240.000         204.000
  -1155113.28549   -862544.11745  22428644.352    22428642.808    22428665.073
       210.000         147.000
 -21749724.76549 -16636226.40446  20650230.364    20650229.848    20650244.694
       228.000         178.000
 -23952816.37349 -18333163.75946  20229828.539    20229827.978    20229842.386
       228.000         181.000
 -14370211.81949 -11176638.15946  20350035.051    20350034.489    20350048.854
       231.000         183.000
   6335157.07549   5035077.90545  22193296.843    22193294.836    22193315.623
       214.000         152.000
 01 12  3 18 22 29.9920000  0 11G20G13G27G 2G10G 1G28G 3G31G 8G22
  10881963.05749   8486213.13945  22569059.799    22569057.040    22569077.752
       209.000         142.000
 -29055095.10549 -22624028.25247  17914236.527    17914236.406    17914244.554
       228.000         199.000
 -30677828.75849 -23871247.80347  19109964.205    19109963.597    19109974.274
       241.000         206.000
 -16255983.20049 -12631598.88747  20462317.171    20462316.654    20462331.205
       235.000         190.000
  -1937970.11149  -1486132.51145  22662649.707    22662648.492    22662668.353
       216.000         145.000
 -13343283.27449 -10381908.54847  18781409.515    18781408.682    18781419.730
       239.000         204.000
  -1302975.31549   -977760.86745  22400506.692    22400505.498    22400527.816
       210.000         147.000
 -21798475.61149 -16674214.14346  20640953.403    20640952.874    20640967.717
       227.000         177.000
 -24065509.05049 -18420976.12946  20208383.795    20208383.213    20208397.556
       228.000         181.000
 -14484431.72349 -11265640.61246  20328299.588    20328299.071    20328313.446
       230.000         182.000
   6403893.18349   5088638.00945  22206377.237    22206375.229    22206396.144
       213.000         152.000
 01 12  3 18 22 59.9920000  0 11G20G13G27G 2G10G 1G28G 3G31G 8G22
  10948085.67349   8537736.27545  22581643.294    22581640.435    22581661.351
       212.000         142.000
 -29108871.59649 -22665932.04647  17904003.260    17904003.097    17904011.238
       229.000         199.000
 -30758622.47549 -23934203.93047  19094589.666    19094589.077    19094599.748
       241.000         206.000
 -16376325.40849 -12725371.95847  20439416.747    20439416.200    20439430.684
       234.000         189.000
  -2060053.09249  -1581262.15445  22639418.141    22639416.933    22639436.827
       217.000         144.000
 -13335887.45549 -10376145.68347  18782816.989    18782816.124    18782827.240
       240.000         204.000
  -1450764.49049  -1092920.92145  22372383.146    22372382.059    22372404.408
       210.000         151.000
 -21846728.98549 -16711814.24946  20631771.032    20631770.537    20631785.409
       227.000         177.000
 -24177869.31849 -18508529.48446  20187002.220    20187001.687    20187015.995
       227.000         180.000
 -14598566.09749 -11354576.42146  20306580.536    20306579.973    20306594.297
       232.000         183.000
   6472636.15449   5142203.45745  22219458.982    22219456.933    22219477.981
       209.000         154.000
 01 12  3 18 23 29.9920000  0 11G20G13G27G 2G10G 1G28G 3G31G 8G22
  11014167.65149   8589227.73645  22594218.949    22594216.114    22594237.271
       211.000         144.000
 -29162167.62149 -22707461.46247  17893861.404    17893861.238    17893869.373
       229.000         200.000
 -30839240.95849 -23997023.50947  19079248.482    19079247.876    19079258.570
       241.000         206.000
 -16496355.88349 -12818902.11547  20416575.661    20416575.066    20416589.543
       234.000         190.000
  -2181730.57049  -1676075.82645  22616263.652    22616262.552    22616282.396
       217.000         148.000
 -13328059.72449 -10370046.26347  18784306.660    18784305.759    18784316.920
       239.000         204.000
  -1598400.56949  -1207961.71045  22344288.788    22344287.732    22344310.099
       212.000         152.000
 -21894405.30949 -16748964.73946  20622698.525    20622698.039    20622712.915
       227.000         178.000
 -24289815.28849 -18595760.00746  20165699.524    20165698.992    20165713.298
       227.000         181.000
 -14712535.92849 -11443384.01646  20284892.789    20284892.187    20284906.511
       232.000         184.000
   6541462.41349   5195833.78345  22232556.416    22232554.480    22232575.655
       206.000         154.000
 01 12  3 18 23 59.9920000  0 11G20G13G27G 2G10G 1G28G 3G31G 8G22
  11080128.13049   8640624.49345  22606771.489    22606768.622    22606790.107
       212.000         142.000
 -29215060.49049 -22748676.73647  17883796.269    17883796.088    17883804.214
       230.000         199.000
 -30919762.70249 -24059767.71247  19063925.708    19063925.094    19063935.810
       241.000         206.000
 -16616152.22349 -12912249.83647  20393779.090    20393778.484    20393792.986
       235.000         192.000
  -2303079.01149  -1770633.12545  22593171.940    22593170.822    22593190.566
       218.000         149.000
 -13319878.85649 -10363671.67647  18785863.550    18785862.611    18785873.773
       240.000         204.000
  -1745960.10149  -1322942.88045  22316209.110    22316208.088    22316230.412
       213.000         150.000
 -21941582.32649 -16785726.15846  20613721.080    20613720.564    20613735.455
       227.000         178.000
 -24401422.49849 -18682726.56046  20144461.283    20144460.767    20144475.068
       228.000         181.000
 -14826419.71449 -11532124.57746  20263221.384    20263220.780    20263235.056
       233.000         183.000
   6610291.35349   5249466.18745  22245654.595    22245652.530    22245673.853
       210.000         153.000
 01 12  3 18 24 29.9920000  0 11G20G13G27G 2G10G 1G28G 3G31G 8G22
  11146004.16349   8691955.44345  22619308.051    22619305.066    22619326.974
       212.000         141.000
 -29267509.36749 -22789546.04347  17873815.598    17873815.432    17873823.549
       229.000         199.000
 -31000148.07749 -24122405.64747  19048628.846    19048628.249    19048639.003
       241.000         206.000
 -16735673.87749 -13005383.51047  20371034.732    20371034.186    20371048.698
       234.000         191.000
  -2424056.48949  -1864901.31745  22570150.773    22570149.642    22570169.294
       217.000         145.000
 -13311305.54349 -10356991.28747  18787495.103    18787494.146    18787505.317
       239.000         204.000
  -1893401.75949  -1437832.26645  22288151.837    22288150.881    22288172.938
       214.000         147.000
 -21988219.52649 -16822066.95946  20604846.418    20604845.827    20604860.743
       228.000         177.000
 -24512648.23449 -18769395.86646  20123295.622    20123295.121    20123309.416
       228.000         181.000
 -14940177.67549 -11620767.09446  20241573.874    20241573.298    20241587.558
       232.000         183.000
   6679160.02649   5303129.55245  22258760.457    22258758.193    22258779.665
       206.000         152.000
